[[{"header":{"parameterUnit":"m.s-1","parameterCategory":1,"la1":31.0,"la2":29.5877,"lo1":-88.7671,"lo2":-86.6584,"dy":0.0162,"dx":0.0185,"nx":115,"ny":88,"refTime":"2023-09-17T12:00:00:Z","depth":0,"parameterNumber":2,"parameterNumberName":"U-component_of_WINDS"},"data":[0.0,0.0,0.0,0.0,0.0,0.0,0.0,0.0,0.0,0.0,0.0,0.0,0.0,0.0,0.0,0.0,0.0,0.0,0.0,0.0,0.0,0.0,0.0,0.0,0.0,0.0,0.0,0.0,0.0,0.0,0.0,0.0,0.0,0.0,0.0,0.0,0.0,0.0,0.0,0.0,0.0,0.0,0.0,0.0,0.0,0.0,0.0,0.0,0.0,0.0,0.0,0.0,0.0,0.0,0.0,0.0,0.0,0.0,0.0,0.0,0.0,0.0,0.0,0.0,0.0,0.0,0.0,0.0,0.0,0.0,0.0,0.0,0.0,0.0,0.0,0.0,0.0,0.0,0.0,0.0,0.0,0.0,0.0,0.0,0.0,0.0,0.0,0.0,0.0,0.0,0.0,0.0,0.0,0.0,0.0,0.0,0.0,0.0,0.0,0.0,0.0,0.0,0.0,0.0,0.0,0.0,0.0,0.0,0.0,0.0,0.0,0.0,0.0,0.0,0.0,0.0,0.0,0.0,0.0,0.0,0.0,0.0,0.0,0.0,0.0,0.0,0.0,0.0,0.0,0.0,0.0,0.0,0.0,0.0,0.0,0.0,0.0,0.0,0.0,0.0,0.0,0.0,0.0,0.0,0.0,0.0,0.0,0.0,0.0,0.0,0.0,0.0,0.0,0.0,0.0,0.0,0.0,0.0,0.0,0.0,0.0,0.0,0.0,0.0,0.0,0.0,0.0,0.0,0.0,0.0,0.0,0.0,0.0,0.0,0.0,0.0,0.0,0.0,0.0,0.0,0.0,0.0,0.0,0.0,0.0,0.0,0.0,0.0,0.0,0.0,0.0,0.0,0.0,0.0,0.0,0.0,0.0,0.0,0.0,0.0,0.0,0.0,0.0,0.0,0.0,0.0,0.0,0.0,0.0,0.0,0.0,0.0,0.0,0.0,0.0,0.0,0.0,0.0,0.0,0.0,0.0,0.0,0.0,0.0,0.0,0.0,0.0,0.0,0.0,0.0,0.0,0.0,0.0,0.0,0.0,0.0,0.0,0.0,0.0,0.0,0.0,0.0,0.0,0.0,0.0,0.0,0.0,0.0,0.0,0.0,0.0,0.0,0.0,0.0,0.0,0.0,0.0,0.0,0.0,0.0,0.0,0.0,0.0,0.0,0.0,0.0,0.0,0.0,0.0,0.0,0.0,0.0,0.0,0.0,0.0,0.0,0.0,0.0,0.0,0.0,0.0,0.0,0.0,0.0,0.0,0.0,0.0,0.0,0.0,0.0,0.0,0.0,0.0,0.0,0.0,0.0,0.0,0.0,0.0,0.0,0.0,0.0,0.0,0.0,0.0,0.0,0.0,0.0,0.0,0.0,0.0,0.0,0.0,0.0,0.0,0.0,0.0,0.0,0.0,0.0,0.0,0.0,0.0,0.0,0.0,0.0,0.0,0.0,0.0,0.0,0.0,0.0,0.0,0.0,0.0,0.0,0.0,0.0,0.0,0.0,0.0,0.0,0.0,0.0,0.0,0.0,0.0,0.0,0.0,0.0,0.0,0.0,0.0,0.0,0.0,0.0,0.0,0.0,0.0,0.0,0.0,0.0,0.0,0.0,0.0,0.0,0.0,0.0,0.0,0.0,0.0,0.0,0.0,0.0,0.0,0.0,0.0,0.0,0.0,0.0,0.0,0.0,0.0,0.0,0.0,0.0,0.0,0.0,0.0,0.0,0.0,0.0,0.0,0.0,0.0,0.0,0.0,0.0,0.0,0.0,0.0,0.0,0.0,0.0,0.0,0.0,0.0,0.0,0.0,0.0,0.0,0.0,0.0,0.0,0.0,0.0,0.0,0.0,0.0,0.0,0.0,0.0,0.0,0.0,0.0,0.0,0.0,0.0,0.0,0.0,0.0,0.0,0.0,0.0,0.0,0.0,0.0,0.0,0.0,0.0,0.0,0.0,0.0,0.0,0.0,0.0,0.0,0.0,0.0,0.0,0.0,0.0,0.0,0.0,0.0,0.0,0.0,0.0,0.0,0.0,0.0,0.0,0.0,0.0,0.0,0.0,0.0,0.0,0.0,0.0,0.0,0.0,0.0,0.0,0.0,0.0,0.0,0.0,0.0,0.0,0.0,0.0,0.0,0.0,0.0,0.0,0.0,0.0,0.0,0.0,0.0,0.0,0.0,0.0,0.0,0.0,0.0,0.0,0.0,0.0,0.0,0.0,0.0,0.0,0.0,0.0,0.0,0.0,0.0,0.0,0.0,0.0,0.0,0.0,0.0,0.0,0.0,0.0,0.0,0.0,0.0,0.0,0.0,0.0,0.0,0.0,0.0,0.0,0.0,0.0,0.0,0.0,0.0,0.0,0.0,0.0,0.0,0.0,0.0,0.0,0.0,0.0,0.0,0.0,0.0,0.0,0.0,0.0,0.0,0.0,0.0,0.0,0.0,0.0,0.0,0.0,0.0,0.0,0.0,0.0,0.0,0.0,0.0,0.0,0.0,0.0,0.0,0.0,0.0,0.0,0.0,0.0,0.0,0.0,0.0,0.0,0.0,0.0,0.0,0.0,0.0,0.0,0.0,0.0,0.0,0.0,0.0,0.0,0.0,0.0,0.0,0.0,0.0,0.0,0.0,0.0,0.0,0.0,0.0,0.0,0.0,0.0,0.0,0.0,0.0,0.0,0.0,0.0,0.0,0.0,0.0,0.0,0.0,0.0,0.0,0.0,0.0,0.0,0.0,0.0,0.0,0.0,0.0,0.0,0.0,0.0,0.0,0.0,0.0,0.0,0.0,0.0,0.0,0.0,0.0,0.0,0.0,0.0,0.0,0.0,0.0,0.0,0.0,0.0,0.0,0.0,0.0,0.0,0.0,0.0,0.0,0.0,0.0,0.0,0.0,0.0,0.0,0.0,0.0,0.0,0.0,0.0,0.0,0.0,0.0,0.0,0.0,0.0,0.0,0.0,0.0,0.0,0.0,0.0,0.0,0.0,0.0,0.0,0.0,0.0,0.0,0.0,0.0,0.0,0.0,0.0,0.0,0.0,0.0,0.0,0.0,0.0,0.0,0.0,0.0,0.0,0.0,0.0,0.0,0.0,0.0,0.0,0.0,0.0,0.0,0.0,0.0,0.0,0.0,0.0,0.0,0.0,0.0,0.0,0.0,0.0,0.0,0.0,0.0,0.0,0.0,0.0,0.0,0.0,0.0,0.0,0.0,0.0,0.0,0.0,0.0,0.0,0.0,0.0,0.0,0.0,0.0,0.0,0.0,0.0,0.0,0.0,0.0,0.0,0.0,0.0,0.0,0.0,0.0,0.0,0.0,0.0,0.0,0.0,0.0,0.0,0.0,0.0,0.0,0.0,0.0,0.0,0.0,0.0,0.0,0.0,0.0,0.0,0.0,0.0,0.0,0.0,0.0,0.0,0.0,0.0,0.0,0.0,0.0,0.0,0.0,0.0,0.0,0.0,0.0,0.0,0.0,0.0,0.0,0.0,0.0,0.0,0.0,0.0,0.0,0.0,0.0,0.0,0.0,0.0,0.0,0.0,0.0,0.0,0.0,0.0,0.0,0.0,0.0,0.0,0.0,0.0,0.0,0.0,0.0,0.0,0.0,0.0,0.0,0.0,0.0,0.0,0.0,0.0,0.0,0.0,0.0,0.0,0.0,0.0,0.0,0.0,0.0,0.0,0.0,0.0,0.0,0.0,0.0,0.0,0.0,0.0,0.0,0.0,0.0,0.0,0.0,0.0,0.0,0.0,0.0,0.0,0.0,0.0,0.0,0.0,0.0,0.0,0.0,0.0,0.0,0.0,0.0,0.0,0.0,0.0,0.0,0.0,0.0,0.0,0.0,0.0,0.0,0.0,0.0,0.0,0.0,0.0,0.0,0.0,0.0,0.0,0.0,0.0,0.0,0.0,0.0,0.0,0.0,0.0,0.0,0.0,0.0,0.0,0.0,0.0,0.0,0.0,0.0,0.0,0.0,0.0,0.0,0.0,0.0,0.0,0.0,0.0,0.0,0.0,0.0,0.0,0.0,0.0,0.0,0.0,0.0,0.0,0.0,0.0,0.0,0.0,0.0,0.0,0.0,0.0,0.0,0.0,0.0,0.0,0.0,0.0,0.0,0.0,0.0,0.0,0.0,0.0,0.0,0.0,0.0,0.0,0.0,0.0,0.0,0.0,0.0,0.0,0.0,0.0,0.0,0.0,0.0,0.0,0.0,0.0,0.0,0.0,0.0,0.0,0.0,0.0,0.0,0.0,0.0,0.0,-1.3969,0.0,0.0,0.0,0.0,0.0,0.0,0.0,0.0,0.0,0.0,0.0,0.0,0.0,0.0,0.0,0.0,0.0,0.0,0.0,0.0,0.0,0.0,0.0,0.0,0.0,0.0,0.0,0.0,0.0,0.0,0.0,0.0,0.0,0.0,0.0,0.0,0.0,0.0,0.0,0.0,0.0,0.0,0.0,0.0,0.0,0.0,0.0,0.0,0.0,0.0,0.0,0.0,0.0,0.0,0.0,0.0,0.0,0.0,0.0,0.0,0.0,0.0,0.0,0.0,0.0,0.0,0.0,0.0,0.0,0.0,0.0,0.0,0.0,0.0,0.0,0.0,0.0,0.0,0.0,0.0,0.0,0.0,0.0,0.0,0.0,0.0,0.0,0.0,0.0,0.0,0.0,0.0,0.0,0.0,0.0,0.0,0.0,0.0,0.0,0.0,0.0,0.0,0.0,0.0,0.0,0.0,0.0,0.0,0.0,0.0,-1.4553,-1.4072,-1.4027,-1.41,-1.4276,0.0,0.0,0.0,0.0,0.0,0.0,0.0,0.0,0.0,0.0,0.0,0.0,0.0,0.0,0.0,0.0,0.0,0.0,0.0,0.0,0.0,0.0,0.0,0.0,0.0,0.0,0.0,0.0,0.0,0.0,0.0,0.0,0.0,0.0,0.0,0.0,0.0,0.0,0.0,0.0,0.0,0.0,0.0,0.0,0.0,0.0,0.0,0.0,0.0,0.0,0.0,0.0,0.0,0.0,0.0,0.0,0.0,0.0,0.0,0.0,0.0,0.0,0.0,0.0,0.0,0.0,0.0,0.0,0.0,0.0,0.0,0.0,0.0,0.0,0.0,0.0,0.0,0.0,0.0,0.0,0.0,0.0,0.0,0.0,0.0,0.0,0.0,0.0,0.0,0.0,0.0,0.0,0.0,0.0,0.0,0.0,0.0,0.0,0.0,0.0,0.0,0.0,0.0,0.0,0.0,0.0,0.0,0.0,0.0,0.0,0.0,0.0,-1.4844,-1.4727,-1.4524,0.0,0.0,0.0,0.0,0.0,0.0,0.0,0.0,0.0,0.0,0.0,0.0,0.0,0.0,0.0,0.0,0.0,0.0,0.0,0.0,0.0,0.0,0.0,0.0,0.0,0.0,0.0,0.0,0.0,0.0,0.0,0.0,0.0,0.0,0.0,0.0,0.0,0.0,0.0,0.0,0.0,0.0,0.0,0.0,0.0,0.0,0.0,0.0,0.0,0.0,0.0,0.0,0.0,0.0,0.0,0.0,0.0,0.0,0.0,0.0,0.0,0.0,0.0,0.0,0.0,0.0,0.0,0.0,0.0,0.0,0.0,0.0,0.0,0.0,0.0,0.0,0.0,0.0,0.0,0.0,0.0,0.0,0.0,0.0,0.0,0.0,0.0,0.0,0.0,0.0,0.0,0.0,0.0,0.0,0.0,0.0,0.0,0.0,0.0,0.0,0.0,0.0,0.0,0.0,0.0,0.0,0.0,0.0,0.0,0.0,-1.6552,-1.5795,-1.5595,0.0,-1.5223,0.0,0.0,0.0,0.0,0.0,0.0,0.0,0.0,0.0,0.0,0.0,0.0,0.0,0.0,0.0,0.0,0.0,0.0,0.0,0.0,0.0,0.0,0.0,0.0,0.0,0.0,0.0,0.0,0.0,0.0,0.0,0.0,0.0,0.0,0.0,0.0,0.0,0.0,0.0,0.0,0.0,0.0,0.0,0.0,0.0,0.0,0.0,0.0,0.0,0.0,0.0,0.0,0.0,0.0,0.0,0.0,0.0,0.0,0.0,0.0,0.0,0.0,0.0,0.0,0.0,0.0,0.0,0.0,0.0,0.0,0.0,0.0,0.0,0.0,0.0,0.0,0.0,0.0,0.0,0.0,0.0,0.0,0.0,0.0,0.0,0.0,0.0,0.0,0.0,0.0,0.0,0.0,0.0,0.0,0.0,0.0,0.0,0.0,0.0,0.0,0.0,0.0,0.0,0.0,0.0,0.0,0.0,0.0,0.0,0.0,-1.71,-1.6633,-1.632,-1.6129,0.0,0.0,0.0,0.0,0.0,0.0,0.0,0.0,0.0,0.0,0.0,0.0,0.0,0.0,0.0,0.0,0.0,0.0,0.0,0.0,0.0,0.0,0.0,0.0,0.0,0.0,0.0,0.0,0.0,0.0,0.0,0.0,0.0,0.0,0.0,0.0,0.0,0.0,0.0,0.0,0.0,0.0,0.0,0.0,0.0,0.0,0.0,0.0,0.0,0.0,0.0,0.0,0.0,0.0,0.0,0.0,0.0,0.0,0.0,0.0,0.0,0.0,0.0,0.0,0.0,0.0,0.0,0.0,0.0,0.0,0.0,0.0,0.0,0.0,0.0,0.0,0.0,0.0,0.0,0.0,0.0,0.0,0.0,0.0,0.0,0.0,0.0,0.0,0.0,0.0,0.0,0.0,0.0,0.0,0.0,0.0,0.0,0.0,0.0,0.0,0.0,0.0,0.0,0.0,0.0,0.0,0.0,0.0,0.0,0.0,-1.7595,-1.7396,-1.7105,-1.6815,-1.6623,-1.6512,0.0,0.0,0.0,0.0,0.0,0.0,0.0,0.0,0.0,0.0,0.0,0.0,0.0,0.0,0.0,0.0,0.0,0.0,0.0,0.0,0.0,0.0,0.0,0.0,0.0,0.0,0.0,0.0,0.0,0.0,0.0,0.0,0.0,0.0,0.0,0.0,0.0,0.0,0.0,0.0,0.0,0.0,0.0,0.0,0.0,0.0,0.0,0.0,0.0,0.0,0.0,0.0,0.0,0.0,0.0,0.0,0.0,0.0,0.0,0.0,0.0,0.0,0.0,0.0,0.0,0.0,0.0,0.0,0.0,0.0,0.0,0.0,0.0,0.0,0.0,0.0,0.0,0.0,0.0,0.0,0.0,0.0,0.0,0.0,0.0,0.0,0.0,0.0,0.0,0.0,0.0,0.0,0.0,0.0,0.0,0.0,0.0,0.0,0.0,0.0,0.0,0.0,0.0,0.0,0.0,0.0,0.0,0.0,-1.7811,-1.7658,-1.7425,-1.7104,-1.6911,-1.6738,0.0,0.0,0.0,0.0,0.0,0.0,0.0,0.0,0.0,0.0,0.0,0.0,0.0,0.0,0.0,0.0,0.0,0.0,0.0,0.0,0.0,0.0,0.0,0.0,0.0,0.0,0.0,0.0,0.0,0.0,0.0,0.0,0.0,0.0,0.0,0.0,0.0,0.0,0.0,0.0,0.0,0.0,0.0,0.0,0.0,0.0,0.0,0.0,0.0,0.0,0.0,0.0,0.0,0.0,0.0,0.0,0.0,0.0,0.0,0.0,0.0,0.0,0.0,0.0,0.0,0.0,0.0,0.0,0.0,0.0,0.0,0.0,0.0,0.0,0.0,0.0,0.0,0.0,0.0,0.0,0.0,0.0,0.0,0.0,0.0,0.0,0.0,0.0,0.0,0.0,0.0,0.0,0.0,0.0,0.0,0.0,0.0,0.0,0.0,0.0,0.0,0.0,0.0,0.0,0.0,0.0,0.0,0.0,0.0,-1.7994,-1.7743,-1.746,-1.7171,-1.705,-1.6898,0.0,0.0,0.0,0.0,0.0,0.0,0.0,0.0,0.0,0.0,0.0,0.0,0.0,0.0,0.0,0.0,0.0,0.0,0.0,0.0,0.0,0.0,0.0,0.0,0.0,0.0,0.0,0.0,0.0,0.0,0.0,0.0,0.0,0.0,0.0,0.0,0.0,0.0,0.0,0.0,0.0,0.0,0.0,0.0,0.0,0.0,0.0,0.0,0.0,0.0,0.0,0.0,0.0,0.0,0.0,0.0,0.0,0.0,0.0,0.0,0.0,0.0,0.0,0.0,0.0,0.0,0.0,0.0,0.0,0.0,0.0,0.0,0.0,0.0,0.0,0.0,0.0,0.0,0.0,0.0,0.0,0.0,0.0,0.0,0.0,0.0,0.0,0.0,0.0,0.0,0.0,0.0,0.0,0.0,0.0,0.0,0.0,0.0,0.0,0.0,0.0,0.0,0.0,0.0,0.0,0.0,0.0,0.0,0.0,-1.838,0.0,-1.7881,-1.7663,-1.7517,-1.7284,0.0,0.0,0.0,0.0,0.0,0.0,0.0,0.0,0.0,0.0,0.0,0.0,0.0,0.0,0.0,0.0,0.0,0.0,0.0,0.0,0.0,0.0,0.0,0.0,0.0,0.0,0.0,0.0,0.0,0.0,0.0,0.0,0.0,0.0,0.0,0.0,0.0,0.0,0.0,0.0,0.0,0.0,0.0,0.0,0.0,0.0,0.0,0.0,0.0,0.0,0.0,0.0,0.0,0.0,0.0,0.0,0.0,0.0,0.0,0.0,0.0,0.0,0.0,0.0,0.0,0.0,0.0,0.0,0.0,0.0,0.0,0.0,0.0,0.0,0.0,0.0,0.0,0.0,0.0,0.0,0.0,0.0,0.0,0.0,0.0,0.0,0.0,0.0,0.0,0.0,0.0,0.0,0.0,0.0,0.0,0.0,0.0,0.0,0.0,0.0,0.0,0.0,0.0,0.0,0.0,0.0,0.0,0.0,-1.8475,-1.8959,-1.8863,-1.8729,-1.8614,-1.8319,-1.7815,0.0,0.0,0.0,0.0,0.0,0.0,0.0,0.0,0.0,0.0,0.0,0.0,0.0,0.0,0.0,0.0,0.0,0.0,0.0,0.0,0.0,0.0,0.0,0.0,0.0,0.0,0.0,0.0,0.0,0.0,0.0,0.0,0.0,0.0,0.0,0.0,0.0,0.0,0.0,0.0,0.0,0.0,0.0,0.0,0.0,0.0,0.0,0.0,0.0,0.0,0.0,0.0,0.0,0.0,0.0,0.0,0.0,0.0,0.0,0.0,0.0,0.0,0.0,0.0,0.0,0.0,0.0,0.0,0.0,0.0,0.0,0.0,0.0,0.0,0.0,0.0,0.0,0.0,0.0,0.0,0.0,0.0,0.0,0.0,0.0,0.0,0.0,0.0,0.0,0.0,0.0,0.0,0.0,0.0,0.0,0.0,0.0,0.0,0.0,0.0,0.0,0.0,0.0,0.0,0.0,0.0,0.0,0.0,0.0,-1.9063,-1.9442,-1.9534,-1.9355,-1.8637,-1.8108,0.0,0.0,0.0,0.0,0.0,0.0,0.0,0.0,0.0,0.0,0.0,0.0,0.0,0.0,0.0,0.0,0.0,0.0,0.0,0.0,0.0,0.0,0.0,0.0,0.0,0.0,0.0,0.0,0.0,0.0,0.0,0.0,0.0,0.0,0.0,0.0,0.0,0.0,0.0,0.0,0.0,0.0,0.0,0.0,0.0,0.0,0.0,0.0,0.0,0.0,0.0,0.0,0.0,0.0,0.0,0.0,0.0,0.0,0.0,0.0,0.0,0.0,0.0,0.0,0.0,0.0,0.0,0.0,0.0,0.0,0.0,0.0,0.0,0.0,0.0,0.0,0.0,0.0,0.0,0.0,0.0,0.0,0.0,0.0,0.0,0.0,0.0,0.0,0.0,0.0,0.0,0.0,0.0,0.0,0.0,0.0,0.0,0.0,0.0,0.0,0.0,0.0,0.0,0.0,0.0,0.0,0.0,0.0,0.0,-2.0263,-2.0602,-2.0696,-2.0475,-1.9868,-1.908,-1.8132,0.0,0.0,0.0,0.0,0.0,0.0,0.0,0.0,0.0,0.0,0.0,0.0,0.0,0.0,0.0,0.0,0.0,0.0,0.0,0.0,0.0,0.0,0.0,0.0,0.0,0.0,0.0,0.0,0.0,0.0,0.0,0.0,0.0,0.0,0.0,0.0,0.0,0.0,0.0,0.0,0.0,0.0,0.0,0.0,0.0,0.0,0.0,0.0,0.0,0.0,0.0,0.0,0.0,0.0,0.0,0.0,0.0,0.0,0.0,0.0,0.0,0.0,0.0,0.0,0.0,0.0,0.0,0.0,0.0,0.0,0.0,0.0,0.0,0.0,0.0,0.0,0.0,0.0,0.0,0.0,0.0,0.0,0.0,0.0,0.0,0.0,0.0,0.0,0.0,0.0,0.0,0.0,0.0,0.0,0.0,0.0,0.0,0.0,0.0,0.0,0.0,0.0,0.0,0.0,0.0,0.0,0.0,0.0,-2.2355,-2.232,-2.222,-2.1928,-2.168,-2.0531,0.0,0.0,0.0,0.0,0.0,0.0,0.0,0.0,0.0,0.0,0.0,0.0,0.0,0.0,0.0,0.0,0.0,0.0,0.0,0.0,0.0,0.0,0.0,0.0,0.0,0.0,0.0,0.0,0.0,0.0,0.0,0.0,0.0,0.0,0.0,0.0,0.0,0.0,0.0,0.0,0.0,0.0,0.0,0.0,0.0,0.0,0.0,0.0,0.0,0.0,0.0,0.0,0.0,0.0,0.0,0.0,0.0,0.0,0.0,0.0,0.0,0.0,0.0,0.0,0.0,0.0,0.0,0.0,0.0,0.0,0.0,0.0,0.0,0.0,0.0,0.0,0.0,0.0,0.0,0.0,0.0,0.0,0.0,0.0,0.0,0.0,0.0,0.0,0.0,0.0,0.0,0.0,0.0,0.0,0.0,0.0,0.0,0.0,0.0,0.0,0.0,0.0,0.0,0.0,0.0,0.0,0.0,0.0,0.0,-2.4198,-2.478,-2.4531,-2.3437,-2.224,-2.1035,0.0,0.0,0.0,0.0,0.0,0.0,0.0,0.0,0.0,0.0,0.0,0.0,0.0,0.0,0.0,0.0,0.0,0.0,0.0,0.0,0.0,0.0,0.0,0.0,0.0,0.0,0.0,0.0,0.0,0.0,0.0,0.0,0.0,0.0,0.0,0.0,0.0,0.0,0.0,0.0,0.0,0.0,0.0,0.0,0.0,0.0,0.0,0.0,0.0,0.0,0.0,0.0,0.0,0.0,0.0,0.0,0.0,0.0,0.0,0.0,0.0,0.0,0.0,0.0,0.0,0.0,0.0,0.0,0.0,0.0,0.0,0.0,0.0,0.0,0.0,0.0,0.0,0.0,0.0,0.0,0.0,0.0,0.0,0.0,0.0,0.0,0.0,0.0,0.0,0.0,0.0,0.0,0.0,0.0,0.0,0.0,0.0,0.0,0.0,0.0,0.0,0.0,0.0,0.0,0.0,0.0,0.0,0.0,-2.3509,-2.5407,-2.6094,-2.6021,-2.5112,-2.3669,-2.21,0.0,0.0,0.0,0.0,0.0,0.0,0.0,0.0,0.0,0.0,0.0,0.0,0.0,0.0,0.0,0.0,0.0,0.0,0.0,0.0,0.0,0.0,0.0,0.0,0.0,0.0,0.0,0.0,0.0,0.0,0.0,0.0,0.0,0.0,0.0,0.0,0.0,0.0,0.0,0.0,0.0,0.0,0.0,0.0,0.0,0.0,0.0,0.0,0.0,0.0,0.0,0.0,0.0,0.0,0.0,0.0,0.0,0.0,0.0,0.0,0.0,0.0,0.0,0.0,0.0,0.0,0.0,0.0,0.0,0.0,0.0,0.0,0.0,0.0,0.0,0.0,0.0,0.0,0.0,0.0,0.0,0.0,0.0,0.0,0.0,0.0,0.0,0.0,0.0,0.0,0.0,0.0,0.0,0.0,0.0,0.0,0.0,0.0,0.0,0.0,0.0,0.0,0.0,0.0,0.0,0.0,0.0,0.0,-2.4231,-2.6096,-2.6749,-2.6968,-2.6642,-2.5382,-2.337,0.0,0.0,0.0,0.0,0.0,0.0,0.0,0.0,0.0,0.0,0.0,0.0,0.0,0.0,0.0,0.0,0.0,0.0,0.0,0.0,0.0,0.0,0.0,0.0,0.0,0.0,0.0,0.0,0.0,0.0,0.0,0.0,0.0,0.0,0.0,0.0,0.0,0.0,0.0,0.0,0.0,0.0,0.0,0.0,0.0,0.0,0.0,0.0,0.0,0.0,0.0,0.0,0.0,0.0,0.0,0.0,0.0,0.0,0.0,0.0,0.0,0.0,0.0,0.0,0.0,0.0,0.0,0.0,0.0,0.0,0.0,0.0,0.0,0.0,0.0,0.0,0.0,0.0,0.0,0.0,0.0,0.0,0.0,0.0,0.0,0.0,0.0,0.0,0.0,0.0,0.0,0.0,0.0,0.0,0.0,0.0,0.0,0.0,0.0,0.0,0.0,0.0,0.0,0.0,0.0,0.0,0.0,0.0,-2.5219,-2.6477,-2.7753,-2.802,-2.7244,-2.5432,-2.3599,0.0,0.0,0.0,0.0,0.0,0.0,0.0,0.0,0.0,0.0,0.0,0.0,0.0,0.0,0.0,0.0,0.0,0.0,0.0,0.0,0.0,0.0,0.0,0.0,0.0,0.0,0.0,0.0,0.0,0.0,0.0,0.0,0.0,0.0,0.0,0.0,0.0,0.0,0.0,0.0,0.0,0.0,0.0,0.0,0.0,0.0,0.0,0.0,-1.1574,0.0,0.0,0.0,0.0,0.0,0.0,0.0,0.0,0.0,0.0,0.0,0.0,0.0,0.0,0.0,0.0,0.0,0.0,0.0,0.0,0.0,0.0,0.0,0.0,0.0,0.0,0.0,0.0,0.0,0.0,0.0,0.0,0.0,0.0,0.0,0.0,0.0,0.0,0.0,0.0,0.0,0.0,0.0,0.0,0.0,0.0,0.0,0.0,0.0,0.0,0.0,0.0,0.0,0.0,0.0,0.0,0.0,0.0,0.0,-2.5524,-2.7089,-2.804,-2.8137,-2.7274,-2.5588,-2.3882,0.0,0.0,0.0,0.0,0.0,0.0,0.0,0.0,0.0,0.0,0.0,0.0,0.0,0.0,0.0,0.0,0.0,0.0,0.0,0.0,0.0,0.0,0.0,0.0,0.0,0.0,0.0,0.0,0.0,0.0,0.0,0.0,0.0,0.0,0.0,0.0,0.0,0.0,0.0,0.0,0.0,0.0,0.0,0.0,0.0,0.0,0.0,0.0,0.0,0.0,0.0,0.0,0.0,0.0,0.0,0.0,0.0,0.0,0.0,0.0,0.0,0.0,0.0,0.0,0.0,0.0,0.0,0.0,0.0,0.0,0.0,0.0,0.0,0.0,0.0,0.0,0.0,0.0,0.0,0.0,0.0,0.0,0.0,0.0,0.0,0.0,0.0,0.0,0.0,0.0,0.0,0.0,0.0,0.0,0.0,0.0,0.0,0.0,0.0,0.0,0.0,0.0,0.0,0.0,0.0,0.0,0.0,-2.4118,-2.5702,-2.7517,-2.8088,-2.7936,-2.7137,-2.5828,-2.4154,-2.2106,0.0,0.0,0.0,0.0,0.0,0.0,0.0,0.0,0.0,0.0,0.0,0.0,0.0,0.0,0.0,0.0,0.0,0.0,0.0,0.0,0.0,0.0,0.0,0.0,0.0,0.0,0.0,0.0,0.0,0.0,0.0,0.0,0.0,0.0,0.0,0.0,0.0,0.0,-1.2577,-1.2727,0.0,0.0,0.0,0.0,0.0,0.0,0.0,0.0,-1.2338,0.0,0.0,0.0,0.0,0.0,0.0,0.0,0.0,0.0,0.0,0.0,0.0,0.0,0.0,0.0,0.0,0.0,0.0,0.0,0.0,0.0,0.0,0.0,0.0,0.0,0.0,0.0,0.0,0.0,0.0,0.0,0.0,0.0,0.0,0.0,0.0,0.0,0.0,0.0,0.0,0.0,0.0,0.0,0.0,0.0,0.0,0.0,0.0,0.0,0.0,0.0,0.0,0.0,0.0,0.0,0.0,-2.241,-2.4823,-2.643,-2.7105,-2.8322,-2.8241,-2.6829,-2.6052,-2.4465,-2.1859,0.0,0.0,0.0,0.0,0.0,0.0,0.0,0.0,0.0,0.0,0.0,0.0,0.0,0.0,0.0,0.0,0.0,0.0,0.0,0.0,0.0,0.0,0.0,0.0,0.0,0.0,0.0,0.0,0.0,0.0,0.0,0.0,0.0,0.0,0.0,0.0,0.0,0.0,0.0,-1.357,-1.3432,0.0,0.0,0.0,0.0,0.0,0.0,0.0,0.0,-1.3306,0.0,0.0,0.0,0.0,0.0,0.0,0.0,0.0,0.0,0.0,0.0,0.0,0.0,0.0,0.0,0.0,0.0,0.0,0.0,0.0,0.0,0.0,0.0,0.0,0.0,0.0,0.0,0.0,0.0,0.0,0.0,0.0,0.0,0.0,0.0,0.0,0.0,0.0,0.0,0.0,0.0,0.0,0.0,0.0,0.0,0.0,0.0,0.0,0.0,0.0,0.0,0.0,0.0,0.0,0.0,-2.2875,-2.5048,-2.6444,-2.7008,-2.829,-2.8223,-2.6742,-2.5712,-2.4081,0.0,0.0,0.0,0.0,0.0,0.0,0.0,0.0,0.0,0.0,0.0,0.0,0.0,0.0,0.0,0.0,0.0,0.0,0.0,0.0,0.0,0.0,0.0,0.0,0.0,0.0,0.0,0.0,0.0,0.0,0.0,0.0,0.0,0.0,0.0,0.0,0.0,0.0,0.0,0.0,-1.4211,-1.406,-1.407,0.0,0.0,0.0,0.0,0.0,0.0,-1.3297,-1.3391,0.0,0.0,0.0,0.0,0.0,0.0,0.0,0.0,0.0,0.0,0.0,0.0,0.0,0.0,0.0,0.0,0.0,0.0,0.0,0.0,0.0,0.0,0.0,0.0,0.0,0.0,0.0,0.0,0.0,0.0,0.0,0.0,0.0,0.0,0.0,0.0,0.0,0.0,0.0,0.0,0.0,0.0,0.0,0.0,0.0,0.0,0.0,0.0,0.0,0.0,0.0,0.0,0.0,0.0,0.0,-2.3218,-2.5167,-2.6409,-2.6895,-2.7944,-2.7876,-2.6572,-2.5118,-2.3402,0.0,0.0,0.0,0.0,0.0,0.0,0.0,0.0,0.0,0.0,0.0,0.0,0.0,0.0,0.0,0.0,0.0,0.0,0.0,0.0,0.0,0.0,0.0,0.0,0.0,0.0,0.0,0.0,0.0,0.0,0.0,0.0,0.0,0.0,0.0,0.0,0.0,0.0,0.0,0.0,0.0,-1.4747,-1.5082,-1.4886,0.0,0.0,0.0,0.0,-1.3804,-1.3722,0.0,0.0,0.0,0.0,0.0,0.0,0.0,0.0,0.0,0.0,0.0,0.0,0.0,0.0,0.0,0.0,0.0,0.0,0.0,0.0,0.0,0.0,0.0,0.0,0.0,0.0,0.0,0.0,0.0,0.0,0.0,0.0,0.0,0.0,0.0,0.0,0.0,0.0,0.0,0.0,0.0,0.0,0.0,0.0,0.0,0.0,0.0,0.0,0.0,0.0,0.0,0.0,0.0,0.0,0.0,0.0,-2.2993,-2.548,-2.6648,-2.6416,-2.7157,-2.708,-2.6085,-2.4378,-2.2493,0.0,0.0,0.0,0.0,0.0,0.0,0.0,0.0,0.0,0.0,0.0,0.0,0.0,0.0,0.0,0.0,0.0,0.0,0.0,0.0,0.0,0.0,0.0,0.0,0.0,0.0,0.0,0.0,0.0,0.0,0.0,0.0,0.0,0.0,0.0,0.0,0.0,0.0,0.0,0.0,0.0,-1.5355,-1.559,-1.5427,-1.5349,0.0,0.0,-1.5142,-1.4708,-1.465,0.0,0.0,0.0,0.0,0.0,0.0,0.0,0.0,0.0,0.0,0.0,0.0,0.0,0.0,0.0,0.0,0.0,0.0,0.0,0.0,0.0,0.0,0.0,0.0,0.0,0.0,0.0,0.0,0.0,0.0,0.0,0.0,0.0,0.0,0.0,0.0,0.0,0.0,0.0,0.0,0.0,0.0,0.0,0.0,0.0,0.0,0.0,0.0,0.0,0.0,0.0,0.0,0.0,0.0,0.0,-2.2526,-2.2852,-2.4911,-2.6103,-2.6296,-2.6428,-2.6305,-2.5886,-2.4028,-2.2082,0.0,0.0,0.0,0.0,0.0,0.0,0.0,0.0,0.0,0.0,0.0,0.0,0.0,0.0,0.0,0.0,0.0,0.0,0.0,0.0,0.0,0.0,0.0,0.0,0.0,0.0,0.0,0.0,0.0,0.0,0.0,0.0,0.0,0.0,0.0,0.0,0.0,0.0,0.0,0.0,0.0,0.0,-1.6006,-1.5763,0.0,0.0,0.0,-1.5095,-1.4838,0.0,0.0,0.0,0.0,0.0,0.0,0.0,0.0,0.0,0.0,0.0,0.0,0.0,0.0,0.0,0.0,0.0,0.0,0.0,0.0,0.0,0.0,0.0,0.0,0.0,0.0,0.0,0.0,0.0,0.0,0.0,0.0,0.0,0.0,0.0,0.0,0.0,0.0,0.0,0.0,0.0,0.0,0.0,0.0,0.0,0.0,0.0,0.0,0.0,0.0,0.0,0.0,0.0,0.0,0.0,0.0,0.0,-2.266,-2.4225,-2.533,-2.59,-2.5667,-2.5484,-2.5347,-2.3473,0.0,0.0,0.0,0.0,0.0,0.0,0.0,0.0,0.0,0.0,0.0,0.0,0.0,0.0,0.0,0.0,0.0,0.0,0.0,0.0,0.0,0.0,0.0,0.0,0.0,0.0,0.0,-1.4757,0.0,0.0,0.0,0.0,0.0,0.0,0.0,0.0,0.0,0.0,0.0,0.0,0.0,0.0,-1.616,-1.6418,-1.6101,-1.5836,0.0,0.0,-1.5299,-1.5119,-1.5064,-1.4806,0.0,0.0,0.0,0.0,0.0,0.0,0.0,0.0,0.0,0.0,0.0,0.0,0.0,0.0,0.0,0.0,0.0,0.0,0.0,0.0,0.0,0.0,0.0,0.0,0.0,0.0,0.0,0.0,0.0,0.0,0.0,0.0,0.0,0.0,0.0,0.0,0.0,0.0,0.0,0.0,0.0,0.0,0.0,0.0,0.0,0.0,0.0,0.0,0.0,0.0,0.0,0.0,0.0,0.0,0.0,-2.244,-2.3681,-2.4548,-2.4874,-2.4815,-2.4588,-2.4191,-2.2384,-2.1054,0.0,0.0,0.0,0.0,0.0,0.0,0.0,0.0,0.0,0.0,0.0,0.0,0.0,0.0,0.0,0.0,0.0,0.0,0.0,0.0,0.0,0.0,0.0,0.0,0.0,0.0,0.0,0.0,0.0,0.0,0.0,0.0,0.0,0.0,0.0,0.0,0.0,0.0,0.0,0.0,0.0,-1.6611,-1.6829,-1.6506,-1.6347,0.0,0.0,-1.6216,-1.5956,-1.5901,-1.573,-1.5174,0.0,0.0,0.0,0.0,0.0,0.0,0.0,0.0,0.0,0.0,0.0,0.0,0.0,0.0,0.0,0.0,0.0,0.0,0.0,0.0,0.0,0.0,0.0,0.0,0.0,0.0,0.0,0.0,0.0,0.0,0.0,0.0,0.0,0.0,0.0,0.0,0.0,0.0,0.0,0.0,0.0,0.0,0.0,0.0,0.0,0.0,0.0,0.0,0.0,0.0,0.0,0.0,0.0,-2.1761,-2.2406,-2.313,-2.3912,-2.4739,-2.409,-2.3745,-2.3853,-2.1939,-2.0575,0.0,0.0,0.0,0.0,0.0,0.0,0.0,0.0,0.0,0.0,0.0,0.0,0.0,0.0,0.0,0.0,0.0,0.0,0.0,0.0,0.0,0.0,0.0,0.0,0.0,0.0,0.0,0.0,-1.5885,-1.6318,-1.6555,0.0,0.0,0.0,0.0,0.0,0.0,0.0,0.0,0.0,0.0,-1.681,-1.6936,-1.6736,0.0,0.0,-1.6383,-1.621,-1.6022,-1.6001,-1.5796,-1.519,-1.4966,0.0,0.0,0.0,0.0,0.0,0.0,0.0,0.0,0.0,0.0,0.0,0.0,0.0,0.0,0.0,0.0,0.0,0.0,0.0,0.0,0.0,0.0,0.0,0.0,0.0,0.0,0.0,0.0,0.0,0.0,0.0,0.0,0.0,0.0,0.0,0.0,0.0,0.0,0.0,0.0,0.0,0.0,0.0,0.0,0.0,0.0,0.0,0.0,0.0,0.0,0.0,0.0,-2.1432,-2.2296,-2.2493,-2.3143,-2.435,-2.3452,-2.3053,-2.314,-2.1622,-2.038,0.0,0.0,0.0,0.0,0.0,0.0,0.0,0.0,0.0,0.0,0.0,0.0,0.0,0.0,0.0,0.0,0.0,0.0,0.0,0.0,0.0,0.0,0.0,0.0,0.0,0.0,0.0,0.0,-1.6144,-1.6628,-1.6937,0.0,0.0,0.0,0.0,0.0,0.0,0.0,0.0,0.0,0.0,-1.6917,-1.6857,-1.6667,-1.6479,-1.6318,-1.6144,-1.6025,-1.5913,-1.5856,-1.5704,-1.5215,0.0,0.0,0.0,0.0,0.0,0.0,0.0,0.0,0.0,0.0,0.0,0.0,0.0,0.0,0.0,0.0,0.0,0.0,0.0,0.0,0.0,0.0,0.0,0.0,0.0,0.0,0.0,-2.2013,0.0,0.0,-2.1026,0.0,0.0,0.0,0.0,0.0,0.0,0.0,0.0,0.0,0.0,0.0,0.0,0.0,0.0,0.0,0.0,0.0,0.0,0.0,0.0,0.0,0.0,-2.0788,-2.2072,-2.1818,-2.2185,-2.3304,-2.2926,-2.2495,-2.2058,-2.1292,-2.0524,-1.9773,0.0,0.0,0.0,0.0,0.0,0.0,0.0,0.0,0.0,0.0,0.0,0.0,0.0,0.0,0.0,0.0,0.0,0.0,0.0,0.0,0.0,0.0,0.0,0.0,0.0,0.0,-1.5913,-1.6531,-1.7049,0.0,0.0,0.0,0.0,0.0,0.0,0.0,0.0,0.0,0.0,-1.6875,-1.6888,-1.6552,-1.634,-1.6178,-1.6044,-1.5836,-1.5715,-1.5715,-1.5592,-1.5513,0.0,0.0,0.0,0.0,0.0,0.0,0.0,0.0,0.0,0.0,0.0,0.0,0.0,0.0,0.0,0.0,0.0,0.0,0.0,0.0,0.0,0.0,0.0,0.0,0.0,0.0,0.0,-2.3471,-2.305,0.0,0.0,0.0,0.0,0.0,0.0,0.0,0.0,0.0,0.0,0.0,-2.1017,-2.112,0.0,0.0,0.0,0.0,0.0,0.0,0.0,0.0,0.0,0.0,0.0,0.0,-2.0555,-2.181,-2.157,-2.1928,-2.2995,-2.2595,-2.2109,-2.1626,-2.0708,-1.9628,-1.8371,0.0,0.0,0.0,0.0,0.0,0.0,0.0,0.0,0.0,0.0,0.0,0.0,0.0,0.0,0.0,0.0,0.0,0.0,0.0,0.0,0.0,0.0,0.0,0.0,0.0,-1.6232,0.0,0.0,0.0,0.0,0.0,0.0,0.0,0.0,0.0,0.0,0.0,-1.6803,-1.6831,-1.6735,-1.6509,-1.6088,-1.5991,-1.5881,0.0,0.0,0.0,0.0,0.0,0.0,0.0,0.0,0.0,0.0,0.0,0.0,0.0,0.0,-1.5313,-1.5668,-1.5736,-1.5736,-1.5736,0.0,0.0,0.0,0.0,0.0,0.0,0.0,0.0,0.0,0.0,0.0,0.0,0.0,0.0,-2.4435,0.0,-2.3563,0.0,0.0,0.0,0.0,0.0,0.0,0.0,0.0,-2.193,-2.1967,-2.1855,-2.1967,-2.1967,0.0,-2.1533,-2.1361,0.0,0.0,0.0,0.0,0.0,0.0,0.0,0.0,-2.0311,-2.1545,-2.1248,-2.157,-2.2583,-2.217,-2.1674,-2.1129,-2.0072,-1.9039,-1.8067,-1.7422,-1.6978,0.0,0.0,0.0,0.0,0.0,0.0,0.0,0.0,0.0,0.0,0.0,0.0,0.0,0.0,0.0,0.0,0.0,0.0,0.0,0.0,0.0,0.0,0.0,-1.6494,0.0,0.0,0.0,0.0,0.0,0.0,0.0,0.0,0.0,-1.701,-1.6731,-1.6584,-1.6578,-1.6383,-1.6088,-1.5681,0.0,0.0,0.0,0.0,0.0,0.0,0.0,-1.504,-1.496,-1.4891,-1.4857,-1.4857,-1.5116,-1.5262,-1.5116,0.0,0.0,-1.5279,-1.5277,-1.53,-1.5232,-1.5232,-1.5187,-1.5051,-1.504,-1.4983,0.0,0.0,0.0,0.0,0.0,0.0,0.0,0.0,-2.4862,-2.4877,0.0,-2.479,0.0,0.0,0.0,0.0,0.0,-2.2106,0.0,0.0,-2.3502,-2.3928,-2.3798,-2.3886,-2.3914,-2.3731,-2.2634,-2.2203,-2.2216,-2.0978,0.0,0.0,0.0,0.0,0.0,0.0,-2.0038,-2.1263,-2.0865,-2.1109,-2.2105,-2.1664,-2.1104,-2.0572,-1.9446,-1.8784,-1.871,-1.7707,-1.7184,-1.7245,-1.6481,0.0,0.0,0.0,0.0,0.0,0.0,0.0,0.0,0.0,0.0,0.0,0.0,0.0,0.0,0.0,0.0,0.0,0.0,0.0,0.0,-1.674,0.0,0.0,0.0,0.0,0.0,0.0,0.0,0.0,0.0,0.0,-1.6934,-1.6671,-1.6362,-1.6093,0.0,0.0,0.0,0.0,-1.529,-1.5177,-1.5017,-1.4948,-1.4948,-1.4776,-1.4636,-1.4624,0.0,0.0,-1.4428,-1.5107,-1.5502,-1.5165,-1.539,-1.5498,-1.5001,-1.4948,-1.4902,-1.4776,-1.4764,-1.4707,-1.4648,-1.4678,-1.4621,-2.9169,0.0,0.0,0.0,0.0,-2.6428,-2.6454,-2.6142,-2.6142,-2.6156,-2.61,-2.5236,0.0,0.0,0.0,0.0,0.0,0.0,-2.342,-2.3437,-2.3932,-2.4079,-2.4026,-2.4,-2.3946,-2.3771,-2.3129,-2.267,-2.2418,-2.1676,-2.1102,-2.0668,0.0,0.0,0.0,0.0,-2.0255,-2.1413,-2.1056,-2.1088,-2.1612,-2.1202,-2.0585,-1.9746,-1.9235,-1.8682,-1.8103,-1.7867,-1.7424,-1.6852,-1.6714,0.0,0.0,0.0,0.0,0.0,0.0,0.0,0.0,0.0,0.0,0.0,0.0,0.0,0.0,0.0,0.0,0.0,0.0,0.0,-1.6132,-1.61,-1.6122,0.0,0.0,0.0,0.0,0.0,0.0,0.0,0.0,0.0,-1.6434,-1.6423,-1.6487,0.0,0.0,-1.6236,-1.6112,-1.5968,-1.5834,-1.5771,-1.5598,0.0,-1.54,-1.535,-1.5225,-1.4999,-1.4847,-1.4761,-1.4761,-1.4955,-1.5081,-1.4981,-1.5065,-1.5039,-1.4845,-1.5089,-1.5228,-1.5064,-1.4988,-1.4952,-1.4837,-1.4812,-1.4812,-3.136,-2.9333,-2.8482,-2.7854,-2.7426,-2.7481,-2.7406,-2.7157,-2.6836,-2.671,-2.6668,-2.5936,-2.5494,-2.5232,-2.4638,0.0,0.0,0.0,-2.4504,-2.4532,-2.4869,-2.5012,-2.4981,-2.4924,-2.4733,-2.4421,-2.3902,-2.3434,-2.2973,-2.2247,-2.1674,-2.1298,0.0,0.0,-2.0684,-2.0083,-2.0274,-2.126,-2.0887,-2.0813,-2.1153,-2.061,-1.9978,-1.9289,-1.8987,-1.8593,-1.8061,-1.7913,-1.7482,-1.6717,-1.6762,-1.6514,0.0,0.0,0.0,0.0,0.0,0.0,0.0,0.0,0.0,0.0,0.0,-1.6805,-1.7094,0.0,0.0,0.0,-1.6362,-1.6104,-1.5888,-1.6054,0.0,0.0,0.0,0.0,0.0,0.0,0.0,-1.63,-1.6362,-1.6452,-1.6464,-1.6413,-1.6423,-1.6564,-1.6425,-1.6261,-1.6117,0.0,-1.5753,-1.565,-1.5496,-1.5367,-1.5325,-1.5273,-1.5143,-1.4829,-1.4867,-1.4844,-1.4602,-1.4854,-1.5026,-1.4905,-1.4975,-1.5052,-1.4917,-1.5171,-1.5262,-1.4928,-1.4856,-1.4829,-1.4688,-1.4661,-1.4661,-3.3138,-3.1503,-3.0563,-2.9827,-2.9218,-2.8536,-2.8173,-2.7993,-2.7294,-2.6945,-2.6962,-2.6837,-2.6445,-2.581,-2.5255,0.0,-2.5025,-2.5448,-2.563,-2.567,-2.6125,-2.633,-2.633,-2.633,-2.6007,-2.5422,-2.4821,-2.4253,-2.3643,-2.267,-2.2172,-2.2129,-2.0992,-2.041,-2.039,-2.0094,-2.0259,-2.0905,-2.0539,-2.0487,-2.0746,-1.9978,-1.9396,-1.8953,-1.8688,-1.8451,-1.8282,-1.7798,-1.7285,-1.6774,-1.6634,-1.6378,-1.6015,0.0,0.0,0.0,0.0,0.0,0.0,0.0,0.0,0.0,0.0,0.0,0.0,0.0,0.0,0.0,-1.6182,0.0,-1.6007,-1.6385,0.0,0.0,0.0,-1.6626,-1.6219,-1.6533,-1.6763,-1.6625,0.0,0.0,-1.6758,-1.6525,-1.624,-1.6096,-1.6067,-1.595,-1.5728,-1.5552,-1.5337,-1.5274,-1.5085,-1.4985,-1.5067,-1.4917,-1.474,-1.4525,-1.4718,-1.4808,-1.4404,-1.4816,-1.5128,-1.4798,-1.5079,-1.5313,-1.5196,-1.5187,-1.5061,-1.4641,-1.4556,-1.4519,-1.4442,-1.4424,-1.4407,-3.3754,-3.3004,-3.2073,-3.1027,-3.0018,-2.9693,-2.947,-2.9355,-2.914,-2.9039,-2.8999,-2.8078,-2.7117,-2.6172,-2.6039,-2.5972,-2.5985,-2.6089,-2.6155,-2.6165,-2.6569,-2.6752,-2.6752,-2.6656,-2.6304,-2.5695,-2.5148,-2.4392,-2.3489,-2.3212,-2.2936,-2.2591,-2.1889,-2.1402,-2.1121,-2.0532,-2.0506,-2.1134,-2.0884,-2.0617,-2.0346,-1.9746,-1.916,-1.8565,-1.8295,-1.7873,-1.7357,-1.7103,-1.6763,-1.6288,-1.6232,-1.6032,-1.5649,-1.5935,0.0,0.0,0.0,0.0,0.0,0.0,0.0,0.0,0.0,-1.6275,-1.6032,0.0,-1.6161,0.0,-1.6105,-1.6081,-1.6017,-1.5955,0.0,0.0,-1.6053,-1.6101,-1.5978,-1.5992,-1.592,-1.5793,-1.5859,-1.5951,-1.6067,-1.6192,-1.6202,-1.5983,-1.6234,-1.6439,-1.6356,-1.6106,-1.5899,-1.5805,-1.5598,-1.5497,-1.5467,-1.5251,-1.5041,-1.4993,-1.4984,-1.4926,-1.4802,-1.4935,-1.504,-1.4954,-1.5002,-1.5088,-1.5068,-1.5059,-1.5011,-1.4927,-1.4869,-1.4879,-1.485,-1.484,-1.484,-3.396,-3.3266,-3.2303,-3.1464,-3.0713,-3.0352,-3.014,-3.0055,-2.9733,-2.9579,-2.9539,-2.8858,-2.8211,-2.7637,-2.736,-2.7241,-2.7214,-2.6976,-2.6826,-2.6852,-2.7072,-2.7184,-2.717,-2.7085,-2.6752,-2.619,-2.5615,-2.4943,-2.4111,-2.3585,-2.3193,-2.2973,-2.2406,-2.1902,-2.1432,-2.086,-2.074,-2.1046,-2.075,-2.0436,-2.0105,-1.9655,-1.9059,-1.8344,-1.8115,-1.7674,-1.6945,-1.6846,-1.6553,-1.6054,-1.6079,-1.5893,-1.5471,-1.5691,-1.5903,0.0,0.0,0.0,0.0,0.0,0.0,0.0,0.0,0.0,0.0,0.0,-1.5826,-1.5834,-1.6041,-1.6157,-1.6053,-1.609,-1.6042,-1.5913,-1.602,-1.601,-1.5786,-1.5892,-1.5929,-1.5875,-1.586,-1.583,-1.5858,-1.5875,-1.5845,-1.57,-1.5845,-1.6009,-1.6046,-1.5826,-1.5701,-1.5691,-1.5527,-1.5381,-1.5391,-1.5235,-1.5059,-1.5,-1.4931,-1.4852,-1.4793,-1.4773,-1.4773,-1.4773,-1.4773,-1.4773,-1.4773,-1.4743,-1.4714,-1.4684,-1.4616,-1.4636,-1.4813,-1.4872,-1.4852,-3.396,-3.2965,-3.1974,-3.1485,-3.127,-3.0695,-3.0484,-3.0421,-2.9791,-2.9457,-2.9392,-2.9392,-2.9388,-2.9248,-2.8773,-2.8486,-2.8381,-2.7863,-2.7568,-2.7503,-2.7503,-2.7503,-2.7503,-2.7503,-2.7236,-2.6693,-2.6151,-2.5602,-2.4979,-2.3942,-2.3378,-2.3287,-2.2766,-2.2257,-2.1721,-2.1234,-2.0942,-2.0838,-2.0436,-2.0144,-2.0016,-1.9603,-1.8996,-1.8196,-1.7982,-1.7544,-1.6707,-1.6648,-1.6366,-1.5831,-1.5973,-1.5823,-1.5371,-1.5611,-1.5805,0.0,-1.5849,0.0,0.0,0.0,0.0,0.0,0.0,0.0,0.0,-1.5665,-1.554,-1.5734,-1.6047,-1.6228,-1.6109,-1.6367,-1.6339,-1.5956,-1.6087,-1.6074,-1.5676,-1.5936,-1.6181,-1.6153,-1.5941,-1.5787,-1.5748,-1.5536,-1.5362,-1.5323,-1.5225,-1.5225,-1.5274,-1.5225,-1.5205,-1.5176,-1.5068,-1.5,-1.495,-1.4941,-1.4882,-1.4715,-1.4686,-1.4636,-1.4506,-1.4476,-1.4476,-1.4446,-1.4455,-1.4446,-1.4417,-1.4357,-1.4267,-1.4267,-1.4169,-1.416,-1.4478,-1.4597,-1.4567,-3.3788,-3.315,-3.1883,-3.1347,-3.1259,-3.1018,-3.0891,-3.0891,-3.0749,-3.0398,-2.9944,-2.9944,-2.9683,-2.9323,-2.9205,-2.8878,-2.8373,-2.8268,-2.7968,-2.7503,-2.7503,-2.7503,-2.7503,-2.7503,-2.7223,-2.6719,-2.6601,-2.5999,-2.4992,-2.4769,-2.44,-2.39,-2.3354,-2.2973,-2.2844,0.0,0.0,0.0,-2.0322,-2.0144,-1.999,-1.9629,-1.8902,-1.791,-1.7641,0.0,-1.5982,-1.5797,-1.559,-1.528,-1.5588,0.0,0.0,0.0,0.0,0.0,0.0,0.0,0.0,0.0,0.0,0.0,-1.5484,-1.5484,-1.581,-1.582,-1.596,-1.6377,-1.6251,-1.6133,-1.6095,-1.6044,-1.5989,-1.5928,-1.595,-1.5902,-1.5707,-1.5613,-1.5536,-1.541,-1.5264,-1.5176,-1.5167,-1.5108,-1.502,-1.4863,-1.4804,-1.4754,-1.4704,-1.4882,-1.5039,-1.5029,-1.4882,-1.4725,-1.4595,-1.4595,-1.4595,-1.4526,-1.4536,-1.4476,-1.4357,-1.4336,-1.4267,-1.4169,-1.407,-1.4109,-1.41,-1.4079,-1.4079,-1.407,-1.401,-1.404,-1.413,-1.413,-1.413,-3.3586,-3.3025,-3.1823,-3.1235,0.0,-3.1061,-3.1024,-3.1024,-3.1024,-3.0817,-3.0555,-3.0555,-3.0398,-3.0147,-2.9823,-2.9536,-2.9222,-2.8647,-2.8229,-2.7941,-2.762,-2.7503,-2.7503,-2.7503,-2.7346,-2.7092,-2.6837,-2.6405,-2.5829,-2.5267,-2.4788,-2.4385,-2.3826,-2.3381,-2.2972,-2.1885,-2.103,-2.0524,-2.0182,-1.9965,-1.9901,-1.9499,-1.8885,-1.8043,-1.7532,0.0,0.0,0.0,0.0,0.0,0.0,0.0,0.0,-1.6037,0.0,-1.6081,-1.6033,-1.5971,-1.5804,-1.5676,-1.5618,-1.5643,-1.5698,-1.5675,-1.5605,-1.5852,-1.6048,-1.6247,-1.6105,-1.599,-1.5894,-1.5749,-1.5643,-1.5566,-1.5498,-1.541,-1.5352,-1.5284,-1.5167,-1.5088,-1.497,-1.4843,-1.4872,-1.4793,-1.4714,-1.4606,-1.4616,-1.4586,-1.4536,-1.4664,-1.4753,-1.4734,-1.4675,-1.4595,-1.4515,-1.4485,-1.4485,-1.4485,-1.4455,-1.4366,-1.4306,-1.4207,-1.4139,-1.401,-1.401,-1.401,-1.401,-1.395,-1.389,-1.389,-1.383,-1.3761,-1.3761,-1.3881,-1.401,-3.3421,-3.2856,-3.1815,-3.1253,-3.1024,-3.1024,-3.1024,-3.1024,0.0,0.0,0.0,-3.1024,-3.1024,-3.0947,-3.049,-3.0192,-3.0035,-2.9131,-2.8569,-2.8394,-2.7889,-2.7594,-2.7503,-2.7503,-2.7503,-2.7477,-2.702,-2.6733,-2.6602,-2.5657,-2.4992,-2.4589,-2.4163,-2.355,-2.2713,-2.175,-2.0986,-2.0451,-2.0016,-1.9773,-1.9669,-1.9342,-1.8837,-1.8192,-1.7598,-1.6927,-1.6218,-1.573,-1.5567,-1.5702,-1.5791,-1.588,-1.6005,-1.6063,-1.6029,-1.5873,-1.5742,-1.5584,-1.5447,-1.5331,-1.5353,-1.556,-1.5814,-1.5837,-1.55,-1.5786,-1.5941,-1.5817,-1.5769,-1.5721,-1.5585,-1.5459,-1.5284,-1.5186,-1.5059,-1.5,-1.497,-1.4941,-1.4931,-1.4891,-1.4725,-1.4597,-1.4567,-1.4488,-1.4417,-1.4417,-1.4387,-1.4446,-1.4455,-1.4515,-1.4515,-1.4545,-1.4515,-1.4485,-1.4485,-1.4485,-1.4485,-1.4446,-1.4357,-1.4297,-1.4207,-1.4079,-1.395,-1.389,-1.392,-1.3911,-1.3881,-1.3821,-1.3761,-1.3739,-1.3631,-1.348,-1.348,-1.367,-1.386,-3.3423,-3.2673,-3.1993,-3.1444,-3.1024,-3.1024,-3.1024,-3.1024,-3.1024,-3.1024,-3.1024,-3.1024,-3.1024,-3.1024,-3.0908,-3.0594,-3.01,-2.9931,-2.9353,-2.842,-2.8307,-2.7994,-2.7503,-2.7503,-2.7503,-2.749,-2.7291,-2.6926,-2.6453,-2.6116,-2.539,-2.4391,-2.4182,-2.355,-2.2443,-2.2113,-2.1384,-2.0269,-1.9945,-1.9618,-1.9291,-1.9119,-1.8694,-1.8074,-1.7711,-1.7227,-1.6543,-1.6339,-1.609,-1.5814,-1.6162,-1.6308,-1.6117,-1.6344,-1.6493,-1.6455,-1.6297,-1.6128,-1.6005,-1.5948,-1.5798,-1.5457,-1.5468,-1.5594,-1.5795,-1.5623,-1.5497,-1.5478,-1.5293,-1.5127,-1.5088,-1.5088,-1.5059,-1.5039,-1.5,-1.4941,-1.4745,-1.4745,-1.4666,-1.4446,-1.4396,-1.4288,-1.416,-1.41,-1.4109,-1.407,-1.413,-1.4139,-1.4297,-1.4417,-1.4485,-1.4485,-1.4485,-1.4485,-1.4485,-1.4485,-1.4455,-1.4327,-1.4297,-1.4207,-1.395,-1.386,-1.3761,-1.361,-1.361,-1.3601,-1.3571,-1.358,-1.3571,-1.3549,-1.3511,-1.3459,-1.3354,-1.3393,-1.3445,-3.3133,-3.2594,-3.1744,-3.1222,-3.1024,-3.1024,-3.1024,-3.0986,-3.0874,-3.0911,-3.0986,-3.1024,-3.1024,-3.0986,-3.0874,-3.0706,-3.0409,-2.9986,-2.951,-2.8993,-2.8669,-2.835,-2.8079,-2.7782,-2.7674,-2.7614,-2.7194,-2.6824,-2.6534,-2.6075,-2.5275,-2.4247,-2.3498,-2.2659,-2.1802,-2.1694,-2.1146,-2.0117,-1.9891,-1.9517,-1.8907,-1.8759,-1.8466,-1.7943,-1.7478,-1.7058,-1.6676,-1.6239,-1.6049,-1.6077,-1.6282,-1.6358,-1.6266,-1.6419,-1.642,-1.621,-1.6048,-1.5951,-1.5894,-1.572,-1.5488,-1.5196,-1.5196,-1.5225,-1.5391,-1.5264,-1.5196,-1.5186,-1.5059,-1.497,-1.4843,-1.4843,-1.4784,-1.4654,-1.4625,-1.4526,-1.4369,-1.4339,-1.4279,-1.4169,-1.4139,-1.41,-1.401,-1.401,-1.401,-1.401,-1.401,-1.401,-1.4139,-1.4198,-1.4288,-1.4446,-1.4485,-1.4485,-1.4485,-1.4485,-1.4455,-1.4336,-1.4198,-1.4079,-1.383,-1.3731,-1.361,-1.3511,-1.348,-1.348,-1.348,-1.348,-1.348,-1.3407,-1.3376,-1.3324,-1.318,-1.3141,-1.3172,-3.2962,-3.2581,-3.1601,-3.1104,-3.0924,-3.0949,-3.0898,-3.0861,-3.0685,-3.0723,-3.0874,-3.0874,-3.0874,-3.0836,-3.0685,-3.0622,-3.0558,-2.9995,-2.9651,-2.9447,-2.8988,-2.8671,-2.8492,-2.7933,-2.7678,-2.7567,-2.6889,-2.6521,-2.6436,-2.5843,-2.5089,-2.4176,-2.2839,-2.1901,-2.1424,-2.1324,-2.0853,-2.0058,-1.9893,-1.9427,-1.8635,-1.8503,-1.8253,-1.7804,-1.7292,-1.693,-1.6758,-1.6249,-1.6079,-1.6298,-1.633,-1.6318,-1.6296,-1.6259,-1.6116,-1.5856,-1.5701,-1.5614,-1.5595,-1.5332,-1.5098,-1.4941,-1.4931,-1.4921,-1.4852,-1.4862,-1.4882,-1.4911,-1.4862,-1.4764,-1.4636,-1.4567,-1.4449,-1.4267,-1.4237,-1.4207,-1.404,-1.401,-1.398,-1.398,-1.395,-1.395,-1.3911,-1.3881,-1.3851,-1.3851,-1.3881,-1.3881,-1.3941,-1.3941,-1.4079,-1.4297,-1.4417,-1.4485,-1.4485,-1.4485,-1.4396,-1.4267,-1.407,-1.392,-1.3761,-1.3571,-1.3511,-1.348,-1.345,-1.3459,-1.3459,-1.3398,-1.3346,-1.3233,-1.3211,-1.318,-1.2989,-1.2858,-1.2889,-3.3222,-3.2646,-3.1941,-3.1342,-3.0762,-3.0736,-3.0609,-3.0482,-3.0444,-3.0444,-3.047,-3.0444,-3.0444,-3.0444,-3.0444,-3.0406,-3.0406,-3.0342,-3.0022,-2.9512,-2.9236,-2.8857,-2.8304,-2.7603,-2.7243,-2.7157,-2.6379,-2.5957,-2.5933,-2.5486,-2.4881,-2.3975,-2.2619,-2.1889,-2.1786,-2.1415,-2.0836,-2.0098,-1.9968,-1.9441,-1.8646,-1.8589,-1.8222,-1.7562,-1.7363,-1.7163,-1.6942,-1.6802,-1.6588,-1.6425,-1.6386,-1.6236,-1.6,-1.5827,-1.574,-1.5701,-1.5517,-1.5371,-1.5235,-1.5127,-1.4941,-1.4745,-1.4715,-1.4606,-1.4417,-1.4357,-1.4467,-1.4627,-1.4497,-1.4387,-1.4327,-1.4189,-1.4091,-1.4049,-1.404,-1.401,-1.398,-1.401,-1.395,-1.383,-1.3761,-1.3739,-1.358,-1.3541,-1.3541,-1.3571,-1.3571,-1.3631,-1.3761,-1.3791,-1.386,-1.404,-1.4198,-1.4327,-1.4426,-1.4396,-1.4237,-1.4079,-1.392,-1.3761,-1.3601,-1.3541,-1.348,-1.348,-1.3407,-1.3354,-1.3302,-1.318,-1.308,-1.305,-1.3019,-1.2997,-1.2836,-1.2582,-1.2521,-3.2921,-3.2607,-3.1564,-3.0905,-3.0546,-3.0533,-3.0482,-3.0406,-3.0254,-3.0228,-3.019,-2.9934,-3.0011,-3.0368,-3.0152,-3.0037,-3.0049,-2.9754,-2.9525,-2.9262,-2.9057,-2.8805,-2.8532,-2.7838,-2.7347,-2.6968,-2.607,-2.5493,-2.5075,-2.4272,-2.3616,-2.3245,-2.2171,-2.1542,-2.1252,-2.1041,-2.0631,-2.0016,-1.993,-1.9558,-1.884,-1.8309,-1.7868,-1.751,-1.7098,-1.6835,-1.6768,-1.6513,-1.6324,-1.6249,-1.6144,-1.6,-1.5798,-1.573,-1.5585,-1.541,-1.5264,-1.5079,-1.4893,-1.4843,-1.4734,-1.4458,-1.4467,-1.4378,-1.4169,-1.4139,-1.4169,-1.4249,-1.4189,-1.4109,-1.4118,-1.4049,-1.3989,-1.389,-1.389,-1.3799,-1.3597,-1.3597,-1.3506,-1.3346,-1.3316,-1.3316,-1.3224,-1.3194,-1.3255,-1.3346,-1.3376,-1.3467,-1.361,-1.3631,-1.37,-1.386,-1.3959,-1.4049,-1.4169,-1.4169,-1.4049,-1.392,-1.3821,-1.3731,-1.3541,-1.348,-1.348,-1.348,-1.3376,-1.3302,-1.3302,-1.315,-1.2989,-1.2897,-1.2674,-1.256,-1.2529,-1.2344,-1.2274,-3.2619,-3.241,-3.1164,-3.0495,-3.0292,-3.0292,-3.0292,-3.0216,-2.9998,-2.9908,-2.987,-2.947,-2.9535,-2.9896,-2.9702,-2.9585,-2.9507,-2.917,-2.8973,-2.8934,-2.8633,-2.8502,-2.8454,-2.771,-2.7082,-2.651,-2.5653,-2.4918,-2.4263,-2.3295,-2.2781,-2.2631,-2.195,-2.1396,-2.106,-2.0832,-2.044,-2.0017,-1.9822,-1.9435,-1.8902,-1.8173,-1.7656,-1.7432,-1.6977,-1.6649,-1.6467,-1.6181,-1.6038,-1.6009,-1.5904,-1.5769,-1.5556,-1.5556,-1.5449,-1.5156,-1.5,-1.4843,-1.4656,-1.4597,-1.4488,-1.4246,-1.4288,-1.4309,-1.4166,-1.4175,-1.4197,-1.414,-1.4114,-1.4088,-1.3959,-1.386,-1.3748,-1.3657,-1.3619,-1.3476,-1.3272,-1.3211,-1.3172,-1.3011,-1.3042,-1.3011,-1.3011,-1.3011,-1.308,-1.3172,-1.3272,-1.3333,-1.3428,-1.348,-1.3571,-1.37,-1.3731,-1.3821,-1.395,-1.398,-1.389,-1.383,-1.3769,-1.3631,-1.3502,-1.3511,-1.348,-1.348,-1.3346,-1.3233,-1.3141,-1.3019,-1.2836,-1.2652,-1.2428,-1.2243,-1.2282,-1.212,-1.2027,-3.2433,-3.2212,-3.0958,-3.0305,-3.0113,-3.0126,-3.0011,-2.9818,-2.9548,-2.9457,-2.9431,-2.9209,-2.9,-2.8922,-2.9013,-2.9013,-2.8831,-2.8803,-2.8645,-2.8471,-2.8023,-2.7851,-2.7775,-2.6896,-2.6226,-2.58,-2.5028,-2.4232,-2.3383,-2.2931,-2.2708,-2.2654,-2.1991,-2.1647,-2.1456,-2.0708,-2.0318,-2.0143,-1.9528,-1.9121,-1.9015,-1.8308,-1.7738,-1.7381,-1.7064,-1.67,-1.6224,-1.6,-1.5856,-1.573,-1.5701,-1.5566,-1.5274,-1.5244,-1.5147,-1.5,-1.4823,-1.4666,-1.4536,-1.4462,-1.4291,-1.4159,-1.4409,-1.4492,-1.4304,-1.4548,-1.4584,-1.4385,-1.4317,-1.4177,-1.3887,-1.3643,-1.3456,-1.3417,-1.3214,-1.313,-1.3052,-1.3135,-1.3036,-1.3038,-1.3057,-1.3081,-1.3038,-1.3011,-1.3038,-1.3099,-1.3197,-1.3319,-1.3324,-1.3407,-1.348,-1.3511,-1.3541,-1.3631,-1.3881,-1.386,-1.3799,-1.3731,-1.364,-1.3502,-1.3511,-1.348,-1.348,-1.342,-1.3224,-1.3072,-1.2981,-1.2797,-1.2582,-1.2406,-1.2243,-1.212,-1.2089,-1.1926,-1.1864,-3.1729,-3.088,-3.0394,-3.0088,-2.9895,-2.9895,-2.9779,-2.956,-2.9419,-2.9263,-2.8988,-2.8816,-2.8526,-2.8131,-2.8063,-2.8115,-2.8143,-2.8035,-2.7834,-2.7644,-2.736,-2.7133,-2.6905,-2.649,-2.592,-2.5281,-2.4624,-2.3755,-2.2805,-2.244,-2.2327,-2.2241,-2.183,-2.1462,-2.1062,-2.0416,-1.9903,-1.9585,-1.9009,-1.8707,-1.8707,-1.8432,-1.8082,-1.7685,-1.7033,-1.6577,-1.6356,-1.5996,-1.574,-1.5682,-1.5508,-1.5332,-1.5186,-1.499,-1.4804,-1.4714,-1.4756,-1.472,-1.4603,-1.4715,-1.4755,-1.4596,-1.4719,-1.4646,-1.4446,-1.4475,-1.4453,-1.4263,-1.4197,-1.4129,-1.4036,-1.3863,-1.3808,-1.3808,-1.3727,-1.3606,-1.3534,-1.3502,-1.351,-1.3405,-1.3373,-1.3381,-1.3365,-1.3373,-1.3316,-1.3226,-1.324,-1.3298,-1.33,-1.3354,-1.3407,-1.345,-1.3511,-1.3549,-1.364,-1.364,-1.361,-1.3601,-1.3541,-1.3511,-1.348,-1.348,-1.348,-1.345,-1.3216,-1.2981,-1.2889,-1.2613,-1.2398,-1.2274,-1.212,-1.1934,-1.1903,-1.1802,-1.1709,-3.1323,-3.0314,-3.0074,-2.9895,-2.9689,-2.9663,-2.9509,-2.9314,-2.9157,-2.8922,-2.8605,-2.8287,-2.7914,-2.7499,-2.7267,-2.7144,-2.7214,-2.7185,-2.7051,-2.6857,-2.658,-2.6332,-2.6155,-2.5988,-2.5529,-2.4865,-2.4049,-2.3211,-2.2488,-2.207,-2.1883,-2.1769,-2.1512,-2.1245,-2.0862,-2.0262,-1.9716,-1.9384,-1.8793,-1.8448,-1.8405,-1.8313,-1.814,-1.7751,-1.7034,-1.6633,-1.6626,-1.6059,-1.5733,-1.5694,-1.5341,-1.5145,-1.513,-1.4891,-1.4726,-1.4689,-1.4849,-1.4836,-1.4721,-1.4845,-1.487,-1.4756,-1.4811,-1.4705,-1.4522,-1.458,-1.4537,-1.441,-1.4342,-1.4342,-1.4274,-1.424,-1.4143,-1.4023,-1.3991,-1.3891,-1.3751,-1.3734,-1.366,-1.3611,-1.3562,-1.3594,-1.3618,-1.3602,-1.3523,-1.3429,-1.3365,-1.3321,-1.3298,-1.3308,-1.3333,-1.3428,-1.3459,-1.348,-1.3541,-1.3541,-1.3541,-1.3541,-1.3541,-1.3511,-1.348,-1.348,-1.348,-1.3411,-1.3268,-1.3003,-1.2736,-1.2451,-1.2297,-1.2182,-1.1965,-1.174,-1.1709,-1.1677,-1.1615,-3.1312,-3.0532,-3.003,-2.9636,-2.9431,-2.938,-2.9275,-2.904,-2.8657,-2.8379,-2.8087,-2.7684,-2.7278,-2.688,-2.6622,-2.629,-2.6093,-2.6279,-2.6362,-2.6155,-2.5779,-2.558,-2.5527,-2.5369,-2.5008,-2.4416,-2.3387,-2.2749,-2.2418,-2.1873,-2.1486,-2.1292,-2.1244,-2.1185,-2.1175,-2.0343,-1.9881,-1.9605,-1.8815,-1.8309,-1.8269,-1.7954,-1.7731,-1.7629,-1.713,-1.6879,-1.6957,-1.6226,-1.584,-1.5762,-1.5335,-1.5048,-1.5078,-1.4929,-1.4894,-1.498,-1.508,-1.5041,-1.4878,-1.4751,-1.4696,-1.4597,-1.4638,-1.4753,-1.4726,-1.494,-1.4991,-1.4806,-1.4759,-1.4764,-1.4554,-1.4395,-1.421,-1.3878,-1.3812,-1.3719,-1.3672,-1.3624,-1.3608,-1.363,-1.367,-1.3616,-1.3616,-1.3703,-1.3696,-1.3618,-1.3477,-1.334,-1.3314,-1.3287,-1.3297,-1.3333,-1.3407,-1.348,-1.348,-1.348,-1.348,-1.348,-1.3511,-1.348,-1.348,-1.348,-1.348,-1.345,-1.3216,-1.295,-1.2644,-1.2367,-1.2151,-1.1996,-1.1778,-1.1646,-1.1615,-1.1615,-1.1622,-3.1026,-3.0128,-2.993,-2.9621,-2.9182,-2.9028,-2.8882,-2.8657,-2.8235,-2.7822,-2.747,-2.7021,-2.658,-2.6218,-2.5915,-2.5664,-2.5422,-2.5411,-2.5443,-2.5454,-2.5359,-2.52,-2.5073,-2.5031,-2.4587,-2.3846,-2.334,-2.2686,-2.2098,-2.1836,-2.1556,-2.1227,-2.1071,-2.1012,-2.0954,-2.0284,-1.9794,-1.9403,-1.875,-1.8216,-1.7925,-1.7647,-1.7564,-1.7554,-1.7372,-1.7263,-1.7111,-1.6465,-1.6113,-1.6053,-1.571,-1.5377,-1.5159,-1.5049,-1.4918,-1.4798,-1.504,-1.5043,-1.4849,-1.4932,-1.498,-1.4952,-1.5016,-1.4969,-1.4844,-1.4898,-1.4856,-1.4613,-1.4569,-1.4497,-1.431,-1.4238,-1.4193,-1.4226,-1.4061,-1.3917,-1.3894,-1.3925,-1.3921,-1.3921,-1.3956,-1.3991,-1.4081,-1.4108,-1.406,-1.3916,-1.3681,-1.3476,-1.3332,-1.3206,-1.3158,-1.3272,-1.3376,-1.348,-1.348,-1.348,-1.348,-1.348,-1.348,-1.348,-1.348,-1.348,-1.348,-1.3359,-1.3155,-1.2889,-1.2552,-1.2313,-1.2096,-1.1934,-1.1809,-1.1685,-1.1622,-1.1591,-1.1591,-3.099,-3.0355,-2.9845,-2.9423,-2.8963,-2.861,-2.8327,-2.8047,-2.7539,-2.7133,-2.6775,-2.6321,-2.5957,-2.5633,-2.538,-2.52,-2.5073,-2.4786,-2.469,-2.4828,-2.4914,-2.4828,-2.4658,-2.4519,-2.4224,-2.3651,-2.3309,-2.2874,-2.2199,-2.185,-2.1531,-2.1213,-2.0937,-2.078,-2.0741,-2.0146,-1.9605,-1.9187,-1.8591,-1.8027,-1.7571,-1.7348,-1.7254,-1.7151,-1.7116,-1.7003,-1.6819,-1.6438,-1.6215,-1.6067,-1.5725,-1.5355,-1.516,-1.512,-1.5057,-1.4926,-1.5026,-1.5109,-1.4899,-1.4993,-1.5026,-1.4991,-1.4919,-1.4812,-1.4641,-1.4605,-1.4497,-1.4353,-1.4317,-1.4245,-1.4129,-1.4029,-1.4065,-1.4173,-1.4106,-1.4101,-1.4101,-1.4101,-1.4086,-1.4091,-1.407,-1.4173,-1.4238,-1.4266,-1.4275,-1.4159,-1.3894,-1.3614,-1.3412,-1.3235,-1.3235,-1.3255,-1.3294,-1.3376,-1.348,-1.348,-1.348,-1.348,-1.348,-1.348,-1.348,-1.348,-1.348,-1.3277,-1.3072,-1.2828,-1.249,-1.2274,-1.2065,-1.1934,-1.1809,-1.1685,-1.1591,-1.1591,-1.1591,-3.1131,-3.0973,-2.9707,-2.9058,-2.8722,-2.8034,-2.762,-2.7348,-2.6734,-2.6362,-2.6113,-2.5706,-2.5359,-2.5158,-2.4946,-2.4828,-2.4743,-2.4411,-2.4196,-2.4282,-2.4368,-2.4368,-2.4196,-2.398,-2.381,-2.3687,-2.3353,-2.3048,-2.2671,-2.2035,-2.142,-2.1162,-2.083,-2.0586,-2.045,-1.9927,-1.9429,-1.899,-1.8406,-1.7802,-1.7234,-1.6943,-1.6795,-1.6612,-1.6438,-1.6307,-1.6254,-1.6149,-1.6102,-1.5927,-1.5499,-1.5225,-1.5214,-1.5215,-1.5187,-1.5089,-1.5152,-1.51,-1.5081,-1.4867,-1.4756,-1.4597,-1.4497,-1.4317,-1.4201,-1.4209,-1.4165,-1.4093,-1.4101,-1.4057,-1.3985,-1.3848,-1.3754,-1.379,-1.3884,-1.3992,-1.4057,-1.4029,-1.3992,-1.4029,-1.4057,-1.4065,-1.4057,-1.4093,-1.4158,-1.4216,-1.3995,-1.3747,-1.3607,-1.3421,-1.3242,-1.3219,-1.328,-1.3324,-1.3437,-1.348,-1.348,-1.348,-1.348,-1.348,-1.348,-1.345,-1.3398,-1.3194,-1.2981,-1.2736,-1.2521,-1.2282,-1.2096,-1.1965,-1.1809,-1.1654,-1.1591,-1.1591,-1.156,-3.0514,-3.0059,-2.9188,-2.8584,-2.8064,-2.7238,-2.6816,-2.6693,-2.6071,-2.5748,-2.5569,-2.5242,-2.4903,-2.4658,-2.4497,-2.4272,-2.4143,-2.397,-2.3937,-2.3927,-2.397,-2.398,-2.3894,-2.3677,-2.359,-2.3507,-2.3258,-2.2942,-2.2605,-2.232,-2.1765,-2.0989,-2.0854,-2.0543,-2.0117,-1.975,-1.9409,-1.8929,-1.8258,-1.7679,-1.7188,-1.6607,-1.6307,-1.6228,-1.607,-1.5859,-1.5709,-1.5568,-1.5604,-1.5835,-1.5592,-1.534,-1.5207,-1.518,-1.5053,-1.4816,-1.474,-1.4633,-1.4453,-1.4382,-1.4281,-1.4238,-1.4165,-1.4165,-1.4093,-1.4101,-1.4029,-1.392,-1.3855,-1.3819,-1.3666,-1.3484,-1.3302,-1.3193,-1.3448,-1.3666,-1.3674,-1.363,-1.3674,-1.3637,-1.3666,-1.3746,-1.3819,-1.3891,-1.3964,-1.4083,-1.3982,-1.38,-1.3677,-1.3513,-1.334,-1.3297,-1.3306,-1.3325,-1.3385,-1.3459,-1.348,-1.348,-1.348,-1.348,-1.3459,-1.3437,-1.3255,-1.305,-1.2928,-1.2705,-1.256,-1.2375,-1.2212,-1.2027,-1.1864,-1.174,-1.1622,-1.1591,-1.1498,-2.9953,-2.96,-2.8744,-2.824,-2.7805,-2.6794,-2.6337,-2.6082,-2.5444,-2.5041,-2.4871,-2.4605,-2.4358,-2.4186,-2.411,-2.398,-2.3797,-2.3711,-2.3677,-2.3677,-2.358,-2.358,-2.358,-2.346,-2.3319,-2.3319,-2.3178,-2.2911,-2.2644,-2.2436,-2.1836,-2.105,-2.0683,-2.0269,-1.9645,-1.9332,-1.903,-1.8579,-1.7955,-1.7406,-1.6909,-1.6508,-1.6165,-1.599,-1.5832,-1.5688,-1.5463,-1.5072,-1.507,-1.539,-1.5355,-1.5141,-1.4955,-1.4892,-1.474,-1.4418,-1.4389,-1.4274,-1.4165,-1.4101,-1.4021,-1.3884,-1.3848,-1.3739,-1.363,-1.3593,-1.3521,-1.3411,-1.3419,-1.3382,-1.3273,-1.3156,-1.301,-1.2973,-1.3119,-1.3229,-1.3236,-1.3273,-1.3236,-1.3273,-1.3302,-1.3382,-1.3564,-1.3601,-1.3746,-1.3897,-1.3871,-1.3792,-1.3758,-1.3595,-1.3435,-1.3405,-1.3313,-1.3329,-1.3308,-1.3371,-1.3428,-1.3428,-1.3398,-1.3398,-1.3398,-1.3346,-1.3202,-1.3019,-1.2897,-1.2744,-1.259,-1.2467,-1.2313,-1.212,-1.1957,-1.1802,-1.1716,-1.1622,-1.1522,-2.9347,-2.9257,-2.8278,-2.7854,-2.7625,-2.6635,-2.602,-2.5717,-2.4959,-2.4481,-2.4288,-2.3957,-2.3884,-2.3754,-2.3807,-2.3754,-2.3711,-2.3493,-2.346,-2.3406,-2.3276,-2.3276,-2.3329,-2.3232,-2.3144,-2.3101,-2.3101,-2.2916,-2.2625,-2.2323,-2.1703,-2.0932,-2.0366,-1.9828,-1.9245,-1.8789,-1.84,-1.8013,-1.7488,-1.6973,-1.6551,-1.6287,-1.603,-1.57,-1.5577,-1.5502,-1.5253,-1.4864,-1.4699,-1.5157,-1.494,-1.4713,-1.4533,-1.4425,-1.4245,-1.4057,-1.3985,-1.3956,-1.3949,-1.384,-1.3804,-1.3521,-1.3455,-1.3309,-1.3083,-1.3046,-1.3046,-1.301,-1.2936,-1.2936,-1.29,-1.29,-1.2826,-1.279,-1.2826,-1.2826,-1.2863,-1.2863,-1.29,-1.29,-1.309,-1.3127,-1.32,-1.3309,-1.3499,-1.3637,-1.3664,-1.3761,-1.3757,-1.3704,-1.3587,-1.3475,-1.3381,-1.3305,-1.3281,-1.3291,-1.331,-1.3338,-1.3255,-1.3263,-1.3285,-1.3224,-1.3141,-1.2989,-1.2805,-1.2713,-1.2621,-1.2498,-1.2375,-1.2243,-1.2081,-1.1926,-1.1778,-1.1716,-1.1615,-2.8513,-2.8236,-2.7441,-2.702,-2.6731,-2.5978,-2.5616,-2.554,-2.4822,-2.4462,-2.4337,-2.3968,-2.3741,-2.361,-2.3557,-2.345,-2.3319,-2.3222,-2.3188,-2.3188,-2.3144,-2.3013,-2.3023,-2.3013,-2.3013,-2.2882,-2.2882,-2.2618,-2.2315,-2.2054,-2.1567,-2.0539,-2.0059,-1.9558,-1.8783,-1.8072,-1.7651,-1.7436,-1.6844,-1.6428,-1.6228,-1.5848,-1.5574,-1.5387,-1.5241,-1.5134,-1.5057,-1.4789,-1.4721,-1.4706,-1.4467,-1.425,-1.4206,-1.4061,-1.3871,-1.3667,-1.3506,-1.3353,-1.3229,-1.3222,-1.3149,-1.3046,-1.3046,-1.301,-1.2936,-1.2863,-1.2863,-1.29,-1.29,-1.2753,-1.2636,-1.268,-1.2562,-1.2489,-1.2452,-1.2452,-1.2489,-1.2709,-1.2863,-1.29,-1.2936,-1.2973,-1.2973,-1.301,-1.3163,-1.3309,-1.3484,-1.3637,-1.3711,-1.3784,-1.3704,-1.3569,-1.3506,-1.3445,-1.3418,-1.3354,-1.3264,-1.3219,-1.3141,-1.308,-1.3111,-1.308,-1.2958,-1.2836,-1.2752,-1.266,-1.259,-1.259,-1.2467,-1.2367,-1.2243,-1.2058,-1.1934,-1.1833,-1.1615,-2.762,-2.7447,-2.6888,-2.6644,-2.6431,-2.5904,-2.5573,-2.54,-2.4917,-2.4545,-2.4356,-2.3989,-2.3757,-2.3605,-2.3418,-2.3232,-2.3101,-2.3003,-2.2969,-2.2935,-2.2838,-2.2662,-2.2539,-2.2574,-2.2574,-2.2495,-2.2495,-2.2176,-2.1731,-2.1472,-2.0918,-1.9841,-1.9548,-1.9015,-1.8218,-1.7445,-1.7084,-1.6864,-1.6259,-1.5838,-1.5751,-1.5637,-1.5376,-1.52,-1.4937,-1.4736,-1.4766,-1.4469,-1.4388,-1.4352,-1.4048,-1.3886,-1.4043,-1.3886,-1.3685,-1.3436,-1.334,-1.3137,-1.2993,-1.29,-1.2863,-1.2599,-1.2599,-1.2482,-1.2409,-1.2335,-1.2335,-1.2335,-1.2298,-1.2261,-1.2194,-1.2157,-1.2114,-1.2077,-1.204,-1.2003,-1.2077,-1.2372,-1.2599,-1.2636,-1.2673,-1.2746,-1.2783,-1.2746,-1.29,-1.309,-1.3273,-1.3397,-1.3622,-1.3667,-1.3792,-1.3711,-1.3614,-1.3586,-1.355,-1.3451,-1.3265,-1.3141,-1.2981,-1.2928,-1.292,-1.2867,-1.2744,-1.2721,-1.2691,-1.266,-1.259,-1.259,-1.256,-1.249,-1.2367,-1.2182,-1.2019,-1.1895,-1.1646,-2.6812,-2.6764,-2.6544,-2.64,-2.6292,-2.5952,-2.5697,-2.5496,-2.5043,-2.4763,-2.448,-2.4072,-2.3932,-2.3799,-2.3447,-2.3188,-2.2998,-2.2865,-2.277,-2.2627,-2.2397,-2.2132,-2.1954,-2.1909,-2.1776,-2.1776,-2.1865,-2.1499,-2.0952,-2.0709,-2.0084,-1.9044,-1.8795,-1.8342,-1.7564,-1.6914,-1.6516,-1.6428,-1.5811,-1.5433,-1.5396,-1.5421,-1.5312,-1.5039,-1.4776,-1.4594,-1.4555,-1.4261,-1.403,-1.4192,-1.3729,-1.3659,-1.3817,-1.3738,-1.3531,-1.3202,-1.3157,-1.2951,-1.2753,-1.2702,-1.257,-1.222,-1.2187,-1.2077,-1.1855,-1.1818,-1.1818,-1.1781,-1.1818,-1.1818,-1.1706,-1.1781,-1.1744,-1.1744,-1.1706,-1.1706,-1.1744,-1.2003,-1.2157,-1.2231,-1.2261,-1.2335,-1.2415,-1.2489,-1.2673,-1.2826,-1.301,-1.3193,-1.3375,-1.3571,-1.3667,-1.3694,-1.3604,-1.3507,-1.3464,-1.3397,-1.3226,-1.3096,-1.2888,-1.2815,-1.2768,-1.2713,-1.2683,-1.2691,-1.2691,-1.2629,-1.259,-1.259,-1.259,-1.2552,-1.2459,-1.2336,-1.2151,-1.1957,-1.1677,-2.6438,-2.6245,-2.6197,-2.6062,-2.582,-2.5741,-2.5692,-2.5595,-2.5232,-2.5055,-2.494,-2.4521,-2.427,-2.4163,-2.3877,-2.3382,-2.299,-2.2728,-2.2485,-2.2225,-2.1937,-2.1553,-2.1186,-2.1141,-2.0772,-2.0411,-2.0591,-2.0546,-2.0002,-1.9766,-1.9214,-1.8394,-1.8009,-1.7545,-1.7026,-1.6425,-1.6118,-1.6067,-1.5547,-1.5262,-1.5205,-1.5064,-1.4943,-1.4788,-1.4633,-1.4586,-1.4525,-1.4289,-1.4094,-1.4085,-1.3655,-1.349,-1.3409,-1.3178,-1.2995,-1.2943,-1.2837,-1.2681,-1.2439,-1.2247,-1.2086,-1.1895,-1.1781,-1.1781,-1.1669,-1.1632,-1.1558,-1.1589,-1.1595,-1.1669,-1.1669,-1.1558,-1.1669,-1.1669,-1.1595,-1.1595,-1.1632,-1.1669,-1.1744,-1.1706,-1.1781,-1.1922,-1.2077,-1.2157,-1.2268,-1.2415,-1.2599,-1.2783,-1.2966,-1.3229,-1.3484,-1.3524,-1.3552,-1.3443,-1.3372,-1.3264,-1.3164,-1.3068,-1.2893,-1.2703,-1.2671,-1.2645,-1.2629,-1.2567,-1.2598,-1.2629,-1.259,-1.259,-1.259,-1.259,-1.2529,-1.2436,-1.2212,-1.1965,-1.1677,-2.6014,-2.5927,-2.5927,-2.583,-2.5732,-2.5684,-2.5684,-2.5654,-2.5508,-2.541,-2.5235,-2.4839,-2.4531,-2.4425,-2.3958,-2.3458,-2.3034,-2.2327,-2.2044,-2.1762,-2.1266,-2.0736,-2.032,-2.0275,-1.9683,-1.9188,-1.9271,-1.9363,-1.8866,-1.8819,-1.8357,-1.7731,-1.7357,-1.706,-1.6657,-1.6207,-1.5938,-1.5756,-1.54,-1.5096,-1.5106,-1.4881,-1.4731,-1.4565,-1.4419,-1.4328,-1.4153,-1.3906,-1.3695,-1.3525,-1.3222,-1.3009,-1.2838,-1.2661,-1.2552,-1.2772,-1.2775,-1.2614,-1.2308,-1.213,-1.1839,-1.1613,-1.1402,-1.1192,-1.1111,-1.1074,-1.1111,-1.1105,-1.1074,-1.1074,-1.1037,-1.1111,-1.1074,-1.1074,-1.1111,-1.1105,-1.1105,-1.1111,-1.1149,-1.1223,-1.1484,-1.1669,-1.1781,-1.1855,-1.1892,-1.2003,-1.2187,-1.2372,-1.2556,-1.282,-1.3127,-1.3361,-1.3409,-1.3472,-1.3351,-1.3243,-1.3121,-1.302,-1.2872,-1.2686,-1.2585,-1.2562,-1.2438,-1.2328,-1.2421,-1.2554,-1.259,-1.259,-1.259,-1.256,-1.2467,-1.2344,-1.2151,-1.1934,-1.1691,-2.5684,-2.5684,-2.5684,-2.5684,-2.5693,-2.5645,-2.5645,-2.5645,-2.5538,-2.547,-2.5441,-2.4958,-2.4641,-2.4469,-2.3937,-2.3409,-2.2978,-2.1948,-2.1506,-2.1096,-2.0482,-1.9845,-1.9425,-1.9188,-1.8819,-1.8087,-1.7994,-1.79,-1.7947,-1.79,-1.7481,-1.7059,-1.6838,-1.669,-1.6364,-1.6004,-1.5836,-1.5635,-1.5347,-1.5095,-1.4917,-1.4869,-1.4642,-1.4309,-1.4119,-1.3907,-1.3616,-1.3392,-1.3179,-1.2966,-1.2711,-1.2491,-1.2332,-1.2123,-1.2238,-1.2696,-1.2777,-1.2622,-1.2311,-1.2007,-1.1657,-1.1349,-1.1056,-1.075,-1.0588,-1.0625,-1.055,-1.0513,-1.055,-1.0594,-1.0625,-1.055,-1.055,-1.055,-1.055,-1.0513,-1.0588,-1.0625,-1.0663,-1.085,-1.1223,-1.1298,-1.1298,-1.1409,-1.1409,-1.1595,-1.1737,-1.1966,-1.215,-1.2342,-1.2636,-1.3046,-1.3273,-1.3403,-1.3396,-1.3294,-1.3138,-1.3021,-1.2814,-1.2626,-1.2543,-1.2458,-1.2332,-1.2243,-1.2369,-1.2526,-1.2555,-1.2506,-1.2436,-1.2344,-1.2313,-1.2189,-1.1965,-1.1883,-1.1726,-2.5684,-2.5684,-2.5684,-2.5684,-2.5635,-2.544,-2.5333,-2.5284,-2.5079,-2.4981,-2.4981,-2.463,-2.4475,-2.4242,-2.3633,-2.2934,-2.2219,-2.1514,-2.0853,-2.0367,-1.9682,-1.8996,-1.8365,-1.8272,-1.79,-1.7301,-1.716,-1.7113,-1.7113,-1.712,-1.6885,-1.6414,-1.6319,-1.617,-1.6008,-1.5893,-1.5832,-1.5718,-1.5484,-1.5094,-1.474,-1.4655,-1.4382,-1.4056,-1.3835,-1.3684,-1.3304,-1.3004,-1.2747,-1.2484,-1.2215,-1.208,-1.2037,-1.2037,-1.1995,-1.2089,-1.2097,-1.201,-1.181,-1.1671,-1.1451,-1.1151,-1.0884,-1.0747,-1.0517,-1.0443,-1.0443,-1.0513,-1.0475,-1.0438,-1.04,-1.0443,-1.0475,-1.04,-1.0325,-1.0368,-1.0406,-1.018,-1.0218,-1.0325,-1.0625,-1.0663,-1.0663,-1.0812,-1.0962,-1.1149,-1.1329,-1.1521,-1.175,-1.1929,-1.2224,-1.2599,-1.2856,-1.3005,-1.31,-1.3056,-1.2998,-1.288,-1.2742,-1.2511,-1.2369,-1.2277,-1.2308,-1.2254,-1.2332,-1.2276,-1.2183,-1.213,-1.215,-1.2196,-1.2246,-1.1998,-1.1692,-1.1658,-1.1678,-2.543,-2.5693,-2.5538,-2.5489,-2.544,-2.5039,-2.4833,-2.4784,-2.4578,-2.443,-2.4381,-2.3976,-2.3678,-2.3279,-2.2677,-2.2214,-2.1677,-2.0808,-2.0142,-1.9642,-1.8933,-1.8236,-1.7793,-1.749,-1.7113,-1.6737,-1.6501,-1.6407,-1.6407,-1.6461,-1.6319,-1.6076,-1.5981,-1.5974,-1.5778,-1.5825,-1.573,-1.5596,-1.5355,-1.5032,-1.4687,-1.4591,-1.443,-1.4034,-1.3792,-1.3527,-1.324,-1.2776,-1.238,-1.2084,-1.1744,-1.151,-1.1338,-1.1251,-1.1257,-1.1251,-1.1251,-1.1455,-1.1745,-1.1567,-1.1323,-1.1035,-1.0767,-1.0446,-1.0209,-1.0159,-1.0165,-1.0143,-1.0143,-1.0154,-1.0127,-1.003,-0.9997,-1.0008,-1.0068,-0.9954,-0.9954,-0.9852,-0.9771,-0.9916,-1.003,-1.0105,-1.018,-1.0363,-1.055,-1.0738,-1.0887,-1.0999,-1.1223,-1.1484,-1.1818,-1.2187,-1.2372,-1.2469,-1.2558,-1.2599,-1.2542,-1.2489,-1.2489,-1.2267,-1.2081,-1.2033,-1.2006,-1.1881,-1.1743,-1.1678,-1.1694,-1.1927,-1.2115,-1.217,-1.2199,-1.1884,-1.1592,-1.1577,-1.1512,-2.499,-2.5284,-2.5186,-2.5137,-2.503,-2.448,-2.4183,-2.4134,-2.3827,-2.3687,-2.3587,-2.3129,-2.2577,-2.208,-2.1564,-2.1269,-2.1175,-1.9956,-1.9456,-1.8964,-1.837,-1.7721,-1.7319,-1.701,-1.6686,-1.613,-1.6123,-1.6028,-1.5974,-1.5927,-1.5974,-1.5778,-1.5832,-1.5778,-1.573,-1.5689,-1.5594,-1.5404,-1.5207,-1.4943,-1.4703,-1.4625,-1.4368,-1.4022,-1.3695,-1.3397,-1.3081,-1.2614,-1.2104,-1.1657,-1.1388,-1.1156,-1.0927,-1.0865,-1.0824,-1.0814,-1.0862,-1.103,-1.1273,-1.1309,-1.1147,-1.0921,-1.0624,-1.0145,-0.9997,-0.9907,-0.9874,-0.9927,-0.9921,-0.9906,-0.9874,-0.9779,-0.9816,-0.9754,-0.9694,-0.9512,-0.9384,-0.952,-0.9545,-0.9582,-0.9657,-0.9657,-0.9809,-0.9992,-1.018,-1.0363,-1.0481,-1.0519,-1.0738,-1.0999,-1.126,-1.1626,-1.1737,-1.1818,-1.1885,-1.1953,-1.2003,-1.2003,-1.2009,-1.1951,-1.1657,-1.1579,-1.1559,-1.141,-1.1207,-1.1316,-1.1421,-1.1799,-1.2125,-1.191,-1.1739,-1.1688,-1.1526,-1.147,-1.1277,-2.439,-2.4223,-2.443,-2.4529,-2.448,-2.3737,-2.3379,-2.3279,-2.2828,-2.2577,-2.2476,-2.2072,-2.1522,-2.096,-2.0542,-2.0233,-2.0181,-1.9272,-1.8846,-1.8519,-1.8086,-1.7511,-1.7085,-1.6759,-1.6436,-1.5994,-1.5845,-1.5832,-1.573,-1.5594,-1.5689,-1.5784,-1.5689,-1.5635,-1.554,-1.5452,-1.5356,-1.5172,-1.4981,-1.4838,-1.4632,-1.4506,-1.4212,-1.3702,-1.3432,-1.3066,-1.2202,-1.2038,-1.1793,-1.1324,-1.1076,-1.0879,-1.0662,-1.0558,-1.0493,-1.0477,-1.0472,-1.0603,-1.0702,-1.0816,-1.0675,-1.0401,-1.0197,-1.0019,-0.9912,-0.9893,-0.9883,-0.9903,-0.9887,-0.9887,-0.9883,-0.9893,-0.9797,-0.9727,-0.9632,-0.9513,-0.9468,-0.9473,-0.9481,-0.9349,-0.9357,-0.9369,-0.9394,-0.9602,-0.9797,-0.9976,-1.0067,-1.011,-1.0331,-1.055,-1.07,-1.0925,-1.1031,-1.1105,-1.1149,-1.1186,-1.1186,-1.1186,-1.1186,-1.1186,-1.1125,-1.1058,-1.0991,-1.0985,-1.084,-1.0985,-1.1089,-1.1211,-1.1272,-1.1311,-1.1278,-1.1296,-1.1086,-1.0859,-1.0695,-2.337,-2.307,-2.2878,-2.3129,-2.3687,-2.2719,-2.2325,-2.2224,-2.1776,-2.131,-2.1054,-2.0798,-2.0447,-1.9931,-1.9509,-1.9294,-1.9198,-1.8624,-1.8286,-1.8019,-1.7678,-1.7327,-1.6948,-1.6614,-1.6303,-1.6079,-1.5802,-1.5635,-1.5588,-1.5363,-1.5315,-1.5363,-1.5363,-1.5315,-1.522,-1.5118,-1.4927,-1.479,-1.455,-1.4262,-1.4214,-1.4022,-1.3728,-1.3312,-1.3098,-1.2826,-1.2294,-1.1722,-1.1395,-1.1039,-1.0699,-1.0433,-1.0265,-1.0107,-0.9995,-0.9936,-0.9965,-0.9956,-1.0043,-1.0332,-1.0583,-1.0368,-1.0185,-1.0058,-0.9855,-0.9882,-0.9867,-0.9897,-0.9851,-0.984,-0.9872,-0.9785,-0.9679,-0.9699,-0.9617,-0.9512,-0.9459,-0.942,-0.9352,-0.9212,-0.9169,-0.9179,-0.9183,-0.9188,-0.9401,-0.9542,-0.9635,-0.9749,-0.9943,-1.0073,-1.0177,-1.0264,-1.0378,-1.0426,-1.0432,-1.0387,-1.0348,-1.0359,-1.0376,-1.0408,-1.0425,-1.0363,-1.0323,-1.0363,-1.0368,-1.0335,-1.0347,-1.0404,-1.0549,-1.0838,-1.0947,-1.1022,-1.0693,-1.0279,-1.0101,-2.2325,-2.1971,-2.1463,-2.1869,-2.2627,-2.1666,-2.1216,-2.1113,-2.0652,-2.0138,-1.9717,-1.9717,-1.9465,-1.9056,-1.8736,-1.8572,-1.8475,-1.8108,-1.7964,-1.7771,-1.7544,-1.7293,-1.7034,-1.675,-1.6404,-1.6226,-1.5787,-1.5499,-1.5505,-1.5175,-1.4939,-1.4838,-1.4796,-1.4796,-1.4892,-1.4646,-1.4454,-1.4262,-1.4022,-1.3732,-1.3684,-1.3491,-1.3201,-1.2937,-1.2684,-1.2339,-1.19,-1.1371,-1.1034,-1.0724,-1.0367,-1.0008,-0.9787,-0.9572,-0.9445,-0.938,-0.9341,-0.931,-0.948,-0.9763,-1.0187,-0.9947,-0.9923,-0.9827,-0.9773,-0.9724,-0.9666,-0.9689,-0.967,-0.9719,-0.9715,-0.9573,-0.9508,-0.9498,-0.9452,-0.9377,-0.9229,-0.9165,-0.9105,-0.9022,-0.8981,-0.8917,-0.8876,-0.8921,-0.9084,-0.9252,-0.9404,-0.9439,-0.9512,-0.9596,-0.9615,-0.9688,-0.9756,-0.972,-0.9679,-0.9725,-0.9766,-0.9751,-0.9774,-0.9671,-0.9684,-0.9621,-0.9554,-0.9533,-0.9533,-0.9533,-0.9573,-0.9585,-1.0028,-1.0548,-1.0504,-1.0384,-1.0049,-0.9627,-0.9544,-2.1412,-2.0865,-2.0344,-2.0747,-2.1522,-2.0593,-2.0138,-2.0078,-1.9628,-1.9205,-1.8885,-1.8885,-1.8729,-1.8422,-1.8167,-1.8115,-1.801,-1.7799,-1.7641,-1.7555,-1.7522,-1.7388,-1.708,-1.6747,-1.6456,-1.6229,-1.5791,-1.5471,-1.5433,-1.4964,-1.4611,-1.431,-1.4118,-1.4166,-1.4598,-1.4166,-1.3786,-1.3539,-1.3491,-1.3298,-1.3147,-1.3001,-1.271,-1.237,-1.2073,-1.1731,-1.1224,-1.0867,-1.0538,-1.0267,-1.0013,-0.9801,-0.9737,-0.9486,-0.9382,-0.9296,-0.923,-0.92,-0.9262,-0.9301,-0.9323,-0.9474,-0.9577,-0.9477,-0.9383,-0.9344,-0.9386,-0.9447,-0.9411,-0.9404,-0.9348,-0.9344,-0.9352,-0.9334,-0.9316,-0.9284,-0.913,-0.9081,-0.907,-0.8849,-0.8711,-0.8595,-0.8595,-0.8641,-0.8786,-0.8964,-0.915,-0.9203,-0.9157,-0.9114,-0.9112,-0.9058,-0.9084,-0.9044,-0.9035,-0.9133,-0.9171,-0.9147,-0.9082,-0.9018,-0.8949,-0.8912,-0.8846,-0.8775,-0.8818,-0.8932,-0.8856,-0.877,-0.9236,-0.9652,-0.969,-0.9556,-0.9226,-0.9042,-0.8986,-2.0135,-1.9791,-1.9406,-1.945,-1.9702,-1.9406,-1.925,-1.9198,-1.884,-1.8534,-1.8318,-1.8265,-1.8108,-1.7898,-1.7793,-1.7747,-1.7694,-1.7694,-1.7529,-1.7325,-1.7331,-1.7121,-1.6885,-1.6626,-1.6394,-1.619,-1.5809,-1.5245,-1.4924,-1.457,-1.4152,-1.3833,-1.3491,-1.3588,-1.3732,-1.3539,-1.3292,-1.3195,-1.2953,-1.271,-1.2608,-1.2316,-1.1975,-1.1585,-1.134,-1.0953,-1.0462,-1.0216,-0.992,-0.9673,-0.9474,-0.9328,-0.9252,-0.8981,-0.8877,-0.8685,-0.8518,-0.8455,-0.8384,-0.8424,-0.8692,-0.8999,-0.9218,-0.9218,-0.9305,-0.9305,-0.9305,-0.9262,-0.917,-0.917,-0.9292,-0.9288,-0.9314,-0.9318,-0.9309,-0.93,-0.9204,-0.9204,-0.913,-0.8772,-0.8526,-0.8227,-0.811,-0.8231,-0.8425,-0.851,-0.8648,-0.8761,-0.8781,-0.8623,-0.8588,-0.8461,-0.8457,-0.8352,-0.8349,-0.8554,-0.8562,-0.8524,-0.8427,-0.8269,-0.8248,-0.8277,-0.8234,-0.8225,-0.8292,-0.8327,-0.825,-0.8208,-0.8365,-0.8599,-0.8694,-0.8837,-0.8665,-0.8567,-0.8513,-1.9111,-1.8945,-1.8632,-1.852,-1.852,-1.8527,-1.8475,-1.8363,-1.8206,-1.8003,-1.7905,-1.7852,-1.7799,-1.7641,-1.7589,-1.7477,-1.7483,-1.743,-1.7265,-1.706,-1.7014,-1.6882,-1.6654,-1.6407,-1.6252,-1.6075,-1.5612,-1.5101,-1.4448,-1.4149,-1.362,-1.3008,-1.271,-1.2559,-1.2657,-1.2613,-1.2608,-1.2462,-1.2175,-1.1883,-1.1731,-1.1438,-1.1096,-1.0752,-1.0413,-1.0068,-0.9772,-0.9476,-0.9229,-0.9031,-0.8863,-0.8727,-0.8642,-0.859,-0.8493,-0.8329,-0.8139,-0.8084,-0.7989,-0.7944,-0.8296,-0.8644,-0.878,-0.8823,-0.8819,-0.8688,-0.8732,-0.8732,-0.8863,-0.8819,-0.8867,-0.8863,-0.8907,-0.8911,-0.8863,-0.8855,-0.8811,-0.8759,-0.8707,-0.8404,-0.821,-0.7931,-0.7767,-0.7878,-0.8043,-0.8119,-0.8189,-0.826,-0.8342,-0.825,-0.8158,-0.8078,-0.8014,-0.8012,-0.7989,-0.8055,-0.8048,-0.7912,-0.7823,-0.7731,-0.7755,-0.7841,-0.7785,-0.7684,-0.7722,-0.7715,-0.7662,-0.7676,-0.7786,-0.7812,-0.7837,-0.7966,-0.8072,-0.813,-0.8112,-1.8379,-1.8335,-1.8062,-1.8023,-1.8016,-1.801,-1.7852,-1.7635,-1.7635,-1.7635,-1.7641,-1.7641,-1.7589,-1.7582,-1.7589,-1.743,-1.7219,-1.7166,-1.6955,-1.6789,-1.669,-1.663,-1.6471,-1.6287,-1.5978,-1.5659,-1.5293,-1.466,-1.3953,-1.3391,-1.2773,-1.2124,-1.1736,-1.1585,-1.1536,-1.1487,-1.1634,-1.1487,-1.1345,-1.1051,-1.085,-1.056,-1.0265,-0.9969,-0.9575,-0.9278,-0.9031,-0.8878,-0.8726,-0.8627,-0.8623,-0.8669,-0.8621,-0.8631,-0.8579,-0.8409,-0.8084,-0.7873,-0.7701,-0.7675,-0.7676,-0.7804,-0.7852,-0.7852,-0.8032,-0.8164,-0.8208,-0.8208,-0.8208,-0.812,-0.8032,-0.8076,-0.812,-0.812,-0.8076,-0.8072,-0.8072,-0.8028,-0.8025,-0.7929,-0.7881,-0.7724,-0.7625,-0.7676,-0.7588,-0.7511,-0.7548,-0.7541,-0.7656,-0.7942,-0.7848,-0.7769,-0.7708,-0.7753,-0.7709,-0.7556,-0.7462,-0.7329,-0.7476,-0.7432,-0.7466,-0.7441,-0.7465,-0.7405,-0.7218,-0.7219,-0.7375,-0.7313,-0.7145,-0.718,-0.743,-0.7454,-0.7661,-0.7812,-0.7809,-1.7465,-1.7547,-1.7652,-1.7694,-1.7687,-1.7694,-1.7687,-1.7589,-1.7589,-1.7589,-1.7589,-1.7589,-1.743,-1.7331,-1.7338,-1.7113,-1.6948,-1.6789,-1.6636,-1.6537,-1.6377,-1.6158,-1.5951,-1.5743,-1.5416,-1.506,-1.468,-1.4182,-1.3284,-1.2649,-1.188,-1.1203,-1.0855,-1.0605,-1.0359,-1.0117,-1.0364,-1.0507,-1.0364,-1.0216,-0.992,-0.9673,-0.9476,-0.9229,-0.8832,-0.8584,-0.8382,-0.8131,-0.7982,-0.7783,-0.7683,-0.768,-0.7624,-0.7638,-0.755,-0.7411,-0.7185,-0.6976,-0.6976,-0.6892,-0.6884,-0.6982,-0.6931,-0.7363,-0.7632,-0.7812,-0.7768,-0.772,-0.7676,-0.7632,-0.7632,-0.7632,-0.7632,-0.7632,-0.7632,-0.7632,-0.7632,-0.7632,-0.7588,-0.7455,-0.7411,-0.7323,-0.7234,-0.719,-0.7054,-0.6918,-0.6874,-0.6962,-0.7051,-0.7319,-0.7455,-0.7363,-0.7275,-0.7231,-0.7007,-0.6832,-0.6804,-0.6807,-0.6943,-0.7088,-0.7107,-0.7125,-0.7162,-0.7181,-0.711,-0.7152,-0.7263,-0.7152,-0.6991,-0.7112,-0.7308,-0.7262,-0.7264,-0.7449,-0.7522,-1.6857,-1.7045,-1.7347,-1.7423,-1.7477,-1.743,-1.7378,-1.7265,-1.7378,-1.743,-1.743,-1.7265,-1.7166,-1.7008,-1.7008,-1.6849,-1.6583,-1.6524,-1.6371,-1.601,-1.5957,-1.563,-1.5315,-1.5101,-1.4773,-1.4369,-1.3923,-1.3425,-1.2546,-1.1535,-1.0703,-1.0167,-0.9969,-0.9719,-0.9422,-0.9179,-0.9027,-0.9225,-0.9274,-0.9229,-0.908,-0.8783,-0.8634,-0.8535,-0.8134,-0.7885,-0.7736,-0.7484,-0.7335,-0.7235,-0.7185,-0.7185,-0.7235,-0.7229,-0.7174,-0.7097,-0.698,-0.6836,-0.6771,-0.6703,-0.6578,-0.6481,-0.6463,-0.6745,-0.6979,-0.7143,-0.7187,-0.7143,-0.7231,-0.7275,-0.7275,-0.7316,-0.7275,-0.7275,-0.7275,-0.7279,-0.7279,-0.7275,-0.7146,-0.7058,-0.6925,-0.6789,-0.6745,-0.6656,-0.6656,-0.6609,-0.6605,-0.6605,-0.665,-0.6786,-0.6877,-0.683,-0.6741,-0.6697,-0.6428,-0.634,-0.6432,-0.652,-0.6593,-0.6709,-0.6773,-0.6866,-0.7026,-0.7048,-0.7028,-0.7079,-0.7089,-0.7064,-0.6983,-0.7096,-0.715,-0.7117,-0.713,-0.723,-0.7239,-1.6433,-1.6693,-1.6994,-1.7126,-1.7114,-1.7121,-1.6956,-1.6711,-1.6995,-1.7126,-1.7113,-1.6842,-1.6736,-1.6683,-1.663,-1.6424,-1.6217,-1.6111,-1.5785,-1.5428,-1.5422,-1.5095,-1.4659,-1.4444,-1.403,-1.359,-1.3024,-1.2393,-1.1536,-1.0619,-0.9821,-0.9187,-0.9084,-0.8882,-0.8531,-0.8333,-0.8184,-0.8031,-0.818,-0.8233,-0.8184,-0.7882,-0.758,-0.758,-0.7385,-0.7188,-0.7188,-0.7138,-0.7138,-0.7135,-0.7135,-0.7086,-0.7086,-0.7033,-0.7014,-0.6954,-0.6831,-0.6711,-0.6629,-0.6564,-0.6554,-0.6547,-0.6557,-0.6515,-0.6569,-0.6678,-0.6745,-0.6802,-0.6863,-0.6905,-0.6921,-0.6979,-0.694,-0.6937,-0.6937,-0.695,-0.6866,-0.6837,-0.6786,-0.6697,-0.6653,-0.652,-0.6438,-0.6393,-0.6349,-0.6343,-0.6254,-0.6254,-0.6299,-0.639,-0.6432,-0.6432,-0.639,-0.6346,-0.6213,-0.6169,-0.6254,-0.6299,-0.6343,-0.6473,-0.6602,-0.6719,-0.6879,-0.696,-0.7044,-0.6922,-0.6881,-0.6894,-0.6961,-0.6964,-0.697,-0.6972,-0.6989,-0.7114,-0.7139,-1.6313,-1.6406,-1.65,-1.6535,-1.6516,-1.6529,-1.647,-1.6385,-1.6501,-1.6558,-1.6783,-1.667,-1.6524,-1.6311,-1.6099,-1.5891,-1.5684,-1.547,-1.5143,-1.4874,-1.4821,-1.4444,-1.3948,-1.3604,-1.3214,-1.2603,-1.1928,-1.1168,-1.0212,-0.9542,-0.908,-0.8584,-0.8435,-0.8134,-0.7832,-0.7637,-0.7437,-0.7235,-0.7238,-0.7437,-0.7484,-0.7434,-0.7285,-0.7235,-0.7039,-0.6892,-0.6842,-0.6689,-0.6639,-0.6587,-0.6587,-0.6587,-0.6587,-0.6587,-0.6573,-0.6537,-0.6568,-0.6511,-0.6466,-0.6404,-0.6384,-0.6305,-0.6227,-0.6213,-0.6233,-0.6304,-0.6385,-0.6457,-0.6515,-0.6563,-0.6596,-0.6614,-0.6626,-0.6669,-0.6669,-0.6563,-0.6503,-0.6436,-0.6411,-0.6393,-0.6393,-0.6305,-0.6222,-0.6127,-0.6038,-0.5949,-0.5863,-0.5863,-0.5908,-0.5952,-0.6127,-0.6127,-0.6171,-0.6127,-0.5994,-0.5949,-0.6038,-0.6083,-0.6127,-0.6302,-0.6476,-0.6732,-0.6983,-0.7031,-0.7021,-0.694,-0.6916,-0.7031,-0.7041,-0.695,-0.6947,-0.6984,-0.7011,-0.7101,-0.7119,-1.5934,-1.5919,-1.5963,-1.5934,-1.5947,-1.5928,-1.5825,-1.5599,-1.5585,-1.5535,-1.5584,-1.5917,-1.5998,-1.5731,-1.5464,-1.525,-1.5041,-1.4767,-1.4498,-1.4283,-1.3959,-1.3635,-1.3181,-1.268,-1.214,-1.1536,-1.0688,-0.9812,-0.8942,-0.8553,-0.8233,-0.7935,-0.769,-0.7537,-0.7285,-0.7089,-0.6989,-0.6836,-0.6692,-0.6739,-0.6886,-0.6886,-0.6836,-0.6786,-0.6739,-0.6642,-0.6592,-0.6439,-0.6437,-0.6387,-0.6437,-0.6437,-0.6437,-0.6437,-0.6437,-0.642,-0.6382,-0.6344,-0.6317,-0.6274,-0.6203,-0.6184,-0.6168,-0.625,-0.6153,-0.6207,-0.625,-0.6308,-0.6308,-0.6348,-0.6307,-0.6368,-0.6368,-0.6368,-0.6368,-0.6336,-0.6311,-0.6282,-0.6205,-0.6139,-0.6124,-0.6054,-0.5953,-0.5908,-0.5819,-0.5863,-0.5733,-0.5688,-0.5688,-0.5688,-0.5819,-0.5863,-0.5952,-0.5952,-0.5822,-0.5777,-0.5777,-0.5866,-0.5952,-0.626,-0.6567,-0.6874,-0.7092,-0.7088,-0.7088,-0.7075,-0.7078,-0.7095,-0.7095,-0.7041,-0.7051,-0.7078,-0.7095,-0.7095,-0.7088,-1.5419,-1.5389,-1.5386,-1.5406,-1.5375,-1.5343,-1.5097,-1.471,-1.4638,-1.4321,-1.4049,-1.478,-1.4933,-1.4883,-1.4615,-1.4476,-1.4331,-1.4067,-1.3802,-1.3423,-1.3152,-1.2713,-1.2144,-1.1545,-1.099,-1.0273,-0.9444,-0.8726,-0.8015,-0.7786,-0.7587,-0.7238,-0.7089,-0.7042,-0.6842,-0.6742,-0.6692,-0.6589,-0.6489,-0.6437,-0.6437,-0.6387,-0.6437,-0.6437,-0.6387,-0.6387,-0.6387,-0.6387,-0.6387,-0.6387,-0.6387,-0.6387,-0.6387,-0.6387,-0.6387,-0.6379,-0.6376,-0.6415,-0.6415,-0.6401,-0.635,-0.6317,-0.6347,-0.6295,-0.6154,-0.6177,-0.6174,-0.6169,-0.6172,-0.6169,-0.6177,-0.6188,-0.6191,-0.618,-0.6177,-0.6166,-0.6155,-0.6136,-0.6054,-0.5969,-0.5931,-0.59,-0.5809,-0.5763,-0.5688,-0.5688,-0.5688,-0.5688,-0.5688,-0.5688,-0.5733,-0.5777,-0.5822,-0.5777,-0.5688,-0.5688,-0.5688,-0.5863,-0.6041,-0.6349,-0.6659,-0.6922,-0.7098,-0.7095,-0.7095,-0.7095,-0.7095,-0.7095,-0.7095,-0.7095,-0.7095,-0.7095,-0.7098,-0.7054,-0.7054,-1.4854,-1.4838,-1.4846,-1.4832,-1.4812,-1.4632,-1.4433,-1.4375,-1.4134,-1.3763,-1.3321,-1.3182,-1.3471,-1.4101,-1.3784,-1.3582,-1.3416,-1.3181,-1.2767,-1.2332,-1.2077,-1.1714,-1.12,-1.0461,-0.9704,-0.8984,-0.8292,-0.7785,-0.7437,-0.7338,-0.7138,-0.6892,-0.6892,-0.6742,-0.6539,-0.6489,-0.6489,-0.6387,-0.6387,-0.6387,-0.6387,-0.6387,-0.6387,-0.6387,-0.6387,-0.6387,-0.6387,-0.6387,-0.6387,-0.6387,-0.6387,-0.6387,-0.6387,-0.6387,-0.6387,-0.6387,-0.6387,-0.6387,-0.6387,-0.6387,-0.6391,-0.6393,-0.638,-0.6377,-0.6325,-0.6328,-0.632,-0.6309,-0.6306,-0.629,-0.6295,-0.6325,-0.6331,-0.6306,-0.6293,-0.6257,-0.6281,-0.6216,-0.6139,-0.6021,-0.5964,-0.592,-0.5871,-0.5809,-0.5688,-0.5688,-0.5688,-0.5688,-0.5688,-0.5688,-0.5688,-0.5688,-0.5688,-0.5688,-0.5688,-0.5688,-0.5733,-0.5908,-0.6127,-0.6438,-0.67,-0.6922,-0.7054,-0.7095,-0.7095,-0.7095,-0.7095,-0.7095,-0.7095,-0.7095,-0.7095,-0.7095,-0.7054,-0.6966,-0.6877]},{"header":{"parameterUnit":"m.s-1","parameterCategory":1,"la1":31.0,"la2":29.5877,"lo1":-88.7671,"lo2":-86.6584,"dy":0.0162,"dx":0.0185,"nx":115,"ny":88,"refTime":"2023-09-17T12:00:00:Z","depth":0,"parameterNumber":3,"parameterNumberName":"V-component_of_WINDS"},"data":[0.0,0.0,0.0,0.0,0.0,0.0,0.0,0.0,0.0,0.0,0.0,0.0,0.0,0.0,0.0,0.0,0.0,0.0,0.0,0.0,0.0,0.0,0.0,0.0,0.0,0.0,0.0,0.0,0.0,0.0,0.0,0.0,0.0,0.0,0.0,0.0,0.0,0.0,0.0,0.0,0.0,0.0,0.0,0.0,0.0,0.0,0.0,0.0,0.0,0.0,0.0,0.0,0.0,0.0,0.0,0.0,0.0,0.0,0.0,0.0,0.0,0.0,0.0,0.0,0.0,0.0,0.0,0.0,0.0,0.0,0.0,0.0,0.0,0.0,0.0,0.0,0.0,0.0,0.0,0.0,0.0,0.0,0.0,0.0,0.0,0.0,0.0,0.0,0.0,0.0,0.0,0.0,0.0,0.0,0.0,0.0,0.0,0.0,0.0,0.0,0.0,0.0,0.0,0.0,0.0,0.0,0.0,0.0,0.0,0.0,0.0,0.0,0.0,0.0,0.0,0.0,0.0,0.0,0.0,0.0,0.0,0.0,0.0,0.0,0.0,0.0,0.0,0.0,0.0,0.0,0.0,0.0,0.0,0.0,0.0,0.0,0.0,0.0,0.0,0.0,0.0,0.0,0.0,0.0,0.0,0.0,0.0,0.0,0.0,0.0,0.0,0.0,0.0,0.0,0.0,0.0,0.0,0.0,0.0,0.0,0.0,0.0,0.0,0.0,0.0,0.0,0.0,0.0,0.0,0.0,0.0,0.0,0.0,0.0,0.0,0.0,0.0,0.0,0.0,0.0,0.0,0.0,0.0,0.0,0.0,0.0,0.0,0.0,0.0,0.0,0.0,0.0,0.0,0.0,0.0,0.0,0.0,0.0,0.0,0.0,0.0,0.0,0.0,0.0,0.0,0.0,0.0,0.0,0.0,0.0,0.0,0.0,0.0,0.0,0.0,0.0,0.0,0.0,0.0,0.0,0.0,0.0,0.0,0.0,0.0,0.0,0.0,0.0,0.0,0.0,0.0,0.0,0.0,0.0,0.0,0.0,0.0,0.0,0.0,0.0,0.0,0.0,0.0,0.0,0.0,0.0,0.0,0.0,0.0,0.0,0.0,0.0,0.0,0.0,0.0,0.0,0.0,0.0,0.0,0.0,0.0,0.0,0.0,0.0,0.0,0.0,0.0,0.0,0.0,0.0,0.0,0.0,0.0,0.0,0.0,0.0,0.0,0.0,0.0,0.0,0.0,0.0,0.0,0.0,0.0,0.0,0.0,0.0,0.0,0.0,0.0,0.0,0.0,0.0,0.0,0.0,0.0,0.0,0.0,0.0,0.0,0.0,0.0,0.0,0.0,0.0,0.0,0.0,0.0,0.0,0.0,0.0,0.0,0.0,0.0,0.0,0.0,0.0,0.0,0.0,0.0,0.0,0.0,0.0,0.0,0.0,0.0,0.0,0.0,0.0,0.0,0.0,0.0,0.0,0.0,0.0,0.0,0.0,0.0,0.0,0.0,0.0,0.0,0.0,0.0,0.0,0.0,0.0,0.0,0.0,0.0,0.0,0.0,0.0,0.0,0.0,0.0,0.0,0.0,0.0,0.0,0.0,0.0,0.0,0.0,0.0,0.0,0.0,0.0,0.0,0.0,0.0,0.0,0.0,0.0,0.0,0.0,0.0,0.0,0.0,0.0,0.0,0.0,0.0,0.0,0.0,0.0,0.0,0.0,0.0,0.0,0.0,0.0,0.0,0.0,0.0,0.0,0.0,0.0,0.0,0.0,0.0,0.0,0.0,0.0,0.0,0.0,0.0,0.0,0.0,0.0,0.0,0.0,0.0,0.0,0.0,0.0,0.0,0.0,0.0,0.0,0.0,0.0,0.0,0.0,0.0,0.0,0.0,0.0,0.0,0.0,0.0,0.0,0.0,0.0,0.0,0.0,0.0,0.0,0.0,0.0,0.0,0.0,0.0,0.0,0.0,0.0,0.0,0.0,0.0,0.0,0.0,0.0,0.0,0.0,0.0,0.0,0.0,0.0,0.0,0.0,0.0,0.0,0.0,0.0,0.0,0.0,0.0,0.0,0.0,0.0,0.0,0.0,0.0,0.0,0.0,0.0,0.0,0.0,0.0,0.0,0.0,0.0,0.0,0.0,0.0,0.0,0.0,0.0,0.0,0.0,0.0,0.0,0.0,0.0,0.0,0.0,0.0,0.0,0.0,0.0,0.0,0.0,0.0,0.0,0.0,0.0,0.0,0.0,0.0,0.0,0.0,0.0,0.0,0.0,0.0,0.0,0.0,0.0,0.0,0.0,0.0,0.0,0.0,0.0,0.0,0.0,0.0,0.0,0.0,0.0,0.0,0.0,0.0,0.0,0.0,0.0,0.0,0.0,0.0,0.0,0.0,0.0,0.0,0.0,0.0,0.0,0.0,0.0,0.0,0.0,0.0,0.0,0.0,0.0,0.0,0.0,0.0,0.0,0.0,0.0,0.0,0.0,0.0,0.0,0.0,0.0,0.0,0.0,0.0,0.0,0.0,0.0,0.0,0.0,0.0,0.0,0.0,0.0,0.0,0.0,0.0,0.0,0.0,0.0,0.0,0.0,0.0,0.0,0.0,0.0,0.0,0.0,0.0,0.0,0.0,0.0,0.0,0.0,0.0,0.0,0.0,0.0,0.0,0.0,0.0,0.0,0.0,0.0,0.0,0.0,0.0,0.0,0.0,0.0,0.0,0.0,0.0,0.0,0.0,0.0,0.0,0.0,0.0,0.0,0.0,0.0,0.0,0.0,0.0,0.0,0.0,0.0,0.0,0.0,0.0,0.0,0.0,0.0,0.0,0.0,0.0,0.0,0.0,0.0,0.0,0.0,0.0,0.0,0.0,0.0,0.0,0.0,0.0,0.0,0.0,0.0,0.0,0.0,0.0,0.0,0.0,0.0,0.0,0.0,0.0,0.0,0.0,0.0,0.0,0.0,0.0,0.0,0.0,0.0,0.0,0.0,0.0,0.0,0.0,0.0,0.0,0.0,0.0,0.0,0.0,0.0,0.0,0.0,0.0,0.0,0.0,0.0,0.0,0.0,0.0,0.0,0.0,0.0,0.0,0.0,0.0,0.0,0.0,0.0,0.0,0.0,0.0,0.0,0.0,0.0,0.0,0.0,0.0,0.0,0.0,0.0,0.0,0.0,0.0,0.0,0.0,0.0,0.0,0.0,0.0,0.0,0.0,0.0,0.0,0.0,0.0,0.0,0.0,0.0,0.0,0.0,0.0,0.0,0.0,0.0,0.0,0.0,0.0,0.0,0.0,0.0,0.0,0.0,0.0,0.0,0.0,0.0,0.0,0.0,0.0,0.0,0.0,0.0,0.0,0.0,0.0,0.0,0.0,0.0,0.0,0.0,0.0,0.0,0.0,0.0,0.0,0.0,0.0,0.0,0.0,0.0,0.0,0.0,0.0,0.0,0.0,0.0,0.0,0.0,0.0,0.0,0.0,0.0,0.0,0.0,0.0,0.0,0.0,0.0,0.0,0.0,0.0,0.0,0.0,0.0,0.0,0.0,0.0,0.0,0.0,0.0,0.0,0.0,0.0,0.0,0.0,0.0,0.0,0.0,0.0,0.0,0.0,0.0,0.0,0.0,0.0,0.0,0.0,0.0,0.0,0.0,0.0,0.0,0.0,0.0,0.0,0.0,0.0,0.0,0.0,0.0,0.0,0.0,0.0,0.0,0.0,0.0,0.0,0.0,0.0,0.0,0.0,0.0,0.0,0.0,0.0,0.0,0.0,0.0,0.0,0.0,0.0,0.0,0.0,0.0,0.0,0.0,0.0,0.0,0.0,0.0,0.0,0.0,0.0,0.0,0.0,0.0,0.0,0.0,0.0,0.0,0.0,0.0,0.0,0.0,0.0,0.0,0.0,0.0,0.0,0.0,0.0,0.0,0.0,0.0,0.0,0.0,0.0,0.0,0.0,0.0,0.0,0.0,0.0,0.0,0.0,0.0,0.0,0.0,0.0,0.0,0.0,0.0,0.0,0.0,0.0,0.0,0.0,0.0,0.0,0.0,0.0,0.0,0.0,0.0,0.0,0.0,0.0,0.0,0.0,0.0,0.0,0.0,0.0,0.0,0.0,0.0,0.0,0.0,0.0,0.0,0.0,0.0,0.0,0.0,0.0,0.0,0.0,0.0,0.0,0.0,0.0,0.0,0.0,0.0,0.0,0.0,0.0,0.0,0.0,0.0,0.0,0.0,0.0,0.0,0.0,0.0,0.0,0.0,0.0,1.067,0.0,0.0,0.0,0.0,0.0,0.0,0.0,0.0,0.0,0.0,0.0,0.0,0.0,0.0,0.0,0.0,0.0,0.0,0.0,0.0,0.0,0.0,0.0,0.0,0.0,0.0,0.0,0.0,0.0,0.0,0.0,0.0,0.0,0.0,0.0,0.0,0.0,0.0,0.0,0.0,0.0,0.0,0.0,0.0,0.0,0.0,0.0,0.0,0.0,0.0,0.0,0.0,0.0,0.0,0.0,0.0,0.0,0.0,0.0,0.0,0.0,0.0,0.0,0.0,0.0,0.0,0.0,0.0,0.0,0.0,0.0,0.0,0.0,0.0,0.0,0.0,0.0,0.0,0.0,0.0,0.0,0.0,0.0,0.0,0.0,0.0,0.0,0.0,0.0,0.0,0.0,0.0,0.0,0.0,0.0,0.0,0.0,0.0,0.0,0.0,0.0,0.0,0.0,0.0,0.0,0.0,0.0,0.0,0.0,0.0,1.0237,1.0271,1.0332,1.0529,1.088,0.0,0.0,0.0,0.0,0.0,0.0,0.0,0.0,0.0,0.0,0.0,0.0,0.0,0.0,0.0,0.0,0.0,0.0,0.0,0.0,0.0,0.0,0.0,0.0,0.0,0.0,0.0,0.0,0.0,0.0,0.0,0.0,0.0,0.0,0.0,0.0,0.0,0.0,0.0,0.0,0.0,0.0,0.0,0.0,0.0,0.0,0.0,0.0,0.0,0.0,0.0,0.0,0.0,0.0,0.0,0.0,0.0,0.0,0.0,0.0,0.0,0.0,0.0,0.0,0.0,0.0,0.0,0.0,0.0,0.0,0.0,0.0,0.0,0.0,0.0,0.0,0.0,0.0,0.0,0.0,0.0,0.0,0.0,0.0,0.0,0.0,0.0,0.0,0.0,0.0,0.0,0.0,0.0,0.0,0.0,0.0,0.0,0.0,0.0,0.0,0.0,0.0,0.0,0.0,0.0,0.0,0.0,0.0,0.0,0.0,0.0,0.0,1.0637,1.0798,1.107,0.0,0.0,0.0,0.0,0.0,0.0,0.0,0.0,0.0,0.0,0.0,0.0,0.0,0.0,0.0,0.0,0.0,0.0,0.0,0.0,0.0,0.0,0.0,0.0,0.0,0.0,0.0,0.0,0.0,0.0,0.0,0.0,0.0,0.0,0.0,0.0,0.0,0.0,0.0,0.0,0.0,0.0,0.0,0.0,0.0,0.0,0.0,0.0,0.0,0.0,0.0,0.0,0.0,0.0,0.0,0.0,0.0,0.0,0.0,0.0,0.0,0.0,0.0,0.0,0.0,0.0,0.0,0.0,0.0,0.0,0.0,0.0,0.0,0.0,0.0,0.0,0.0,0.0,0.0,0.0,0.0,0.0,0.0,0.0,0.0,0.0,0.0,0.0,0.0,0.0,0.0,0.0,0.0,0.0,0.0,0.0,0.0,0.0,0.0,0.0,0.0,0.0,0.0,0.0,0.0,0.0,0.0,0.0,0.0,0.0,1.1086,1.0881,1.1098,0.0,1.1602,0.0,0.0,0.0,0.0,0.0,0.0,0.0,0.0,0.0,0.0,0.0,0.0,0.0,0.0,0.0,0.0,0.0,0.0,0.0,0.0,0.0,0.0,0.0,0.0,0.0,0.0,0.0,0.0,0.0,0.0,0.0,0.0,0.0,0.0,0.0,0.0,0.0,0.0,0.0,0.0,0.0,0.0,0.0,0.0,0.0,0.0,0.0,0.0,0.0,0.0,0.0,0.0,0.0,0.0,0.0,0.0,0.0,0.0,0.0,0.0,0.0,0.0,0.0,0.0,0.0,0.0,0.0,0.0,0.0,0.0,0.0,0.0,0.0,0.0,0.0,0.0,0.0,0.0,0.0,0.0,0.0,0.0,0.0,0.0,0.0,0.0,0.0,0.0,0.0,0.0,0.0,0.0,0.0,0.0,0.0,0.0,0.0,0.0,0.0,0.0,0.0,0.0,0.0,0.0,0.0,0.0,0.0,0.0,0.0,0.0,1.0999,1.114,1.1561,1.1826,0.0,0.0,0.0,0.0,0.0,0.0,0.0,0.0,0.0,0.0,0.0,0.0,0.0,0.0,0.0,0.0,0.0,0.0,0.0,0.0,0.0,0.0,0.0,0.0,0.0,0.0,0.0,0.0,0.0,0.0,0.0,0.0,0.0,0.0,0.0,0.0,0.0,0.0,0.0,0.0,0.0,0.0,0.0,0.0,0.0,0.0,0.0,0.0,0.0,0.0,0.0,0.0,0.0,0.0,0.0,0.0,0.0,0.0,0.0,0.0,0.0,0.0,0.0,0.0,0.0,0.0,0.0,0.0,0.0,0.0,0.0,0.0,0.0,0.0,0.0,0.0,0.0,0.0,0.0,0.0,0.0,0.0,0.0,0.0,0.0,0.0,0.0,0.0,0.0,0.0,0.0,0.0,0.0,0.0,0.0,0.0,0.0,0.0,0.0,0.0,0.0,0.0,0.0,0.0,0.0,0.0,0.0,0.0,0.0,0.0,1.0572,1.0897,1.1348,1.1774,1.2077,1.2162,0.0,0.0,0.0,0.0,0.0,0.0,0.0,0.0,0.0,0.0,0.0,0.0,0.0,0.0,0.0,0.0,0.0,0.0,0.0,0.0,0.0,0.0,0.0,0.0,0.0,0.0,0.0,0.0,0.0,0.0,0.0,0.0,0.0,0.0,0.0,0.0,0.0,0.0,0.0,0.0,0.0,0.0,0.0,0.0,0.0,0.0,0.0,0.0,0.0,0.0,0.0,0.0,0.0,0.0,0.0,0.0,0.0,0.0,0.0,0.0,0.0,0.0,0.0,0.0,0.0,0.0,0.0,0.0,0.0,0.0,0.0,0.0,0.0,0.0,0.0,0.0,0.0,0.0,0.0,0.0,0.0,0.0,0.0,0.0,0.0,0.0,0.0,0.0,0.0,0.0,0.0,0.0,0.0,0.0,0.0,0.0,0.0,0.0,0.0,0.0,0.0,0.0,0.0,0.0,0.0,0.0,0.0,0.0,1.0283,1.0505,1.0888,1.1456,1.1704,1.1884,0.0,0.0,0.0,0.0,0.0,0.0,0.0,0.0,0.0,0.0,0.0,0.0,0.0,0.0,0.0,0.0,0.0,0.0,0.0,0.0,0.0,0.0,0.0,0.0,0.0,0.0,0.0,0.0,0.0,0.0,0.0,0.0,0.0,0.0,0.0,0.0,0.0,0.0,0.0,0.0,0.0,0.0,0.0,0.0,0.0,0.0,0.0,0.0,0.0,0.0,0.0,0.0,0.0,0.0,0.0,0.0,0.0,0.0,0.0,0.0,0.0,0.0,0.0,0.0,0.0,0.0,0.0,0.0,0.0,0.0,0.0,0.0,0.0,0.0,0.0,0.0,0.0,0.0,0.0,0.0,0.0,0.0,0.0,0.0,0.0,0.0,0.0,0.0,0.0,0.0,0.0,0.0,0.0,0.0,0.0,0.0,0.0,0.0,0.0,0.0,0.0,0.0,0.0,0.0,0.0,0.0,0.0,0.0,0.0,1.0,1.04,1.0831,1.1284,1.1501,1.1723,0.0,0.0,0.0,0.0,0.0,0.0,0.0,0.0,0.0,0.0,0.0,0.0,0.0,0.0,0.0,0.0,0.0,0.0,0.0,0.0,0.0,0.0,0.0,0.0,0.0,0.0,0.0,0.0,0.0,0.0,0.0,0.0,0.0,0.0,0.0,0.0,0.0,0.0,0.0,0.0,0.0,0.0,0.0,0.0,0.0,0.0,0.0,0.0,0.0,0.0,0.0,0.0,0.0,0.0,0.0,0.0,0.0,0.0,0.0,0.0,0.0,0.0,0.0,0.0,0.0,0.0,0.0,0.0,0.0,0.0,0.0,0.0,0.0,0.0,0.0,0.0,0.0,0.0,0.0,0.0,0.0,0.0,0.0,0.0,0.0,0.0,0.0,0.0,0.0,0.0,0.0,0.0,0.0,0.0,0.0,0.0,0.0,0.0,0.0,0.0,0.0,0.0,0.0,0.0,0.0,0.0,0.0,0.0,0.0,1.011,0.0,1.093,1.1279,1.154,1.1713,0.0,0.0,0.0,0.0,0.0,0.0,0.0,0.0,0.0,0.0,0.0,0.0,0.0,0.0,0.0,0.0,0.0,0.0,0.0,0.0,0.0,0.0,0.0,0.0,0.0,0.0,0.0,0.0,0.0,0.0,0.0,0.0,0.0,0.0,0.0,0.0,0.0,0.0,0.0,0.0,0.0,0.0,0.0,0.0,0.0,0.0,0.0,0.0,0.0,0.0,0.0,0.0,0.0,0.0,0.0,0.0,0.0,0.0,0.0,0.0,0.0,0.0,0.0,0.0,0.0,0.0,0.0,0.0,0.0,0.0,0.0,0.0,0.0,0.0,0.0,0.0,0.0,0.0,0.0,0.0,0.0,0.0,0.0,0.0,0.0,0.0,0.0,0.0,0.0,0.0,0.0,0.0,0.0,0.0,0.0,0.0,0.0,0.0,0.0,0.0,0.0,0.0,0.0,0.0,0.0,0.0,0.0,0.0,1.0057,1.0754,1.1,1.1226,1.1491,1.1812,1.1903,0.0,0.0,0.0,0.0,0.0,0.0,0.0,0.0,0.0,0.0,0.0,0.0,0.0,0.0,0.0,0.0,0.0,0.0,0.0,0.0,0.0,0.0,0.0,0.0,0.0,0.0,0.0,0.0,0.0,0.0,0.0,0.0,0.0,0.0,0.0,0.0,0.0,0.0,0.0,0.0,0.0,0.0,0.0,0.0,0.0,0.0,0.0,0.0,0.0,0.0,0.0,0.0,0.0,0.0,0.0,0.0,0.0,0.0,0.0,0.0,0.0,0.0,0.0,0.0,0.0,0.0,0.0,0.0,0.0,0.0,0.0,0.0,0.0,0.0,0.0,0.0,0.0,0.0,0.0,0.0,0.0,0.0,0.0,0.0,0.0,0.0,0.0,0.0,0.0,0.0,0.0,0.0,0.0,0.0,0.0,0.0,0.0,0.0,0.0,0.0,0.0,0.0,0.0,0.0,0.0,0.0,0.0,0.0,0.0,1.0649,1.1169,1.1593,1.189,1.1931,1.1957,0.0,0.0,0.0,0.0,0.0,0.0,0.0,0.0,0.0,0.0,0.0,0.0,0.0,0.0,0.0,0.0,0.0,0.0,0.0,0.0,0.0,0.0,0.0,0.0,0.0,0.0,0.0,0.0,0.0,0.0,0.0,0.0,0.0,0.0,0.0,0.0,0.0,0.0,0.0,0.0,0.0,0.0,0.0,0.0,0.0,0.0,0.0,0.0,0.0,0.0,0.0,0.0,0.0,0.0,0.0,0.0,0.0,0.0,0.0,0.0,0.0,0.0,0.0,0.0,0.0,0.0,0.0,0.0,0.0,0.0,0.0,0.0,0.0,0.0,0.0,0.0,0.0,0.0,0.0,0.0,0.0,0.0,0.0,0.0,0.0,0.0,0.0,0.0,0.0,0.0,0.0,0.0,0.0,0.0,0.0,0.0,0.0,0.0,0.0,0.0,0.0,0.0,0.0,0.0,0.0,0.0,0.0,0.0,0.0,1.1464,1.1895,1.2313,1.264,1.2688,1.2539,1.2202,0.0,0.0,0.0,0.0,0.0,0.0,0.0,0.0,0.0,0.0,0.0,0.0,0.0,0.0,0.0,0.0,0.0,0.0,0.0,0.0,0.0,0.0,0.0,0.0,0.0,0.0,0.0,0.0,0.0,0.0,0.0,0.0,0.0,0.0,0.0,0.0,0.0,0.0,0.0,0.0,0.0,0.0,0.0,0.0,0.0,0.0,0.0,0.0,0.0,0.0,0.0,0.0,0.0,0.0,0.0,0.0,0.0,0.0,0.0,0.0,0.0,0.0,0.0,0.0,0.0,0.0,0.0,0.0,0.0,0.0,0.0,0.0,0.0,0.0,0.0,0.0,0.0,0.0,0.0,0.0,0.0,0.0,0.0,0.0,0.0,0.0,0.0,0.0,0.0,0.0,0.0,0.0,0.0,0.0,0.0,0.0,0.0,0.0,0.0,0.0,0.0,0.0,0.0,0.0,0.0,0.0,0.0,0.0,1.3037,1.3213,1.3417,1.3669,1.3879,1.3461,0.0,0.0,0.0,0.0,0.0,0.0,0.0,0.0,0.0,0.0,0.0,0.0,0.0,0.0,0.0,0.0,0.0,0.0,0.0,0.0,0.0,0.0,0.0,0.0,0.0,0.0,0.0,0.0,0.0,0.0,0.0,0.0,0.0,0.0,0.0,0.0,0.0,0.0,0.0,0.0,0.0,0.0,0.0,0.0,0.0,0.0,0.0,0.0,0.0,0.0,0.0,0.0,0.0,0.0,0.0,0.0,0.0,0.0,0.0,0.0,0.0,0.0,0.0,0.0,0.0,0.0,0.0,0.0,0.0,0.0,0.0,0.0,0.0,0.0,0.0,0.0,0.0,0.0,0.0,0.0,0.0,0.0,0.0,0.0,0.0,0.0,0.0,0.0,0.0,0.0,0.0,0.0,0.0,0.0,0.0,0.0,0.0,0.0,0.0,0.0,0.0,0.0,0.0,0.0,0.0,0.0,0.0,0.0,0.0,1.4901,1.5334,1.5254,1.4645,1.4237,1.3726,0.0,0.0,0.0,0.0,0.0,0.0,0.0,0.0,0.0,0.0,0.0,0.0,0.0,0.0,0.0,0.0,0.0,0.0,0.0,0.0,0.0,0.0,0.0,0.0,0.0,0.0,0.0,0.0,0.0,0.0,0.0,0.0,0.0,0.0,0.0,0.0,0.0,0.0,0.0,0.0,0.0,0.0,0.0,0.0,0.0,0.0,0.0,0.0,0.0,0.0,0.0,0.0,0.0,0.0,0.0,0.0,0.0,0.0,0.0,0.0,0.0,0.0,0.0,0.0,0.0,0.0,0.0,0.0,0.0,0.0,0.0,0.0,0.0,0.0,0.0,0.0,0.0,0.0,0.0,0.0,0.0,0.0,0.0,0.0,0.0,0.0,0.0,0.0,0.0,0.0,0.0,0.0,0.0,0.0,0.0,0.0,0.0,0.0,0.0,0.0,0.0,0.0,0.0,0.0,0.0,0.0,0.0,0.0,1.423,1.5953,1.6584,1.6697,1.6269,1.5408,1.4524,0.0,0.0,0.0,0.0,0.0,0.0,0.0,0.0,0.0,0.0,0.0,0.0,0.0,0.0,0.0,0.0,0.0,0.0,0.0,0.0,0.0,0.0,0.0,0.0,0.0,0.0,0.0,0.0,0.0,0.0,0.0,0.0,0.0,0.0,0.0,0.0,0.0,0.0,0.0,0.0,0.0,0.0,0.0,0.0,0.0,0.0,0.0,0.0,0.0,0.0,0.0,0.0,0.0,0.0,0.0,0.0,0.0,0.0,0.0,0.0,0.0,0.0,0.0,0.0,0.0,0.0,0.0,0.0,0.0,0.0,0.0,0.0,0.0,0.0,0.0,0.0,0.0,0.0,0.0,0.0,0.0,0.0,0.0,0.0,0.0,0.0,0.0,0.0,0.0,0.0,0.0,0.0,0.0,0.0,0.0,0.0,0.0,0.0,0.0,0.0,0.0,0.0,0.0,0.0,0.0,0.0,0.0,0.0,1.4958,1.6545,1.7371,1.7892,1.8097,1.696,1.5578,0.0,0.0,0.0,0.0,0.0,0.0,0.0,0.0,0.0,0.0,0.0,0.0,0.0,0.0,0.0,0.0,0.0,0.0,0.0,0.0,0.0,0.0,0.0,0.0,0.0,0.0,0.0,0.0,0.0,0.0,0.0,0.0,0.0,0.0,0.0,0.0,0.0,0.0,0.0,0.0,0.0,0.0,0.0,0.0,0.0,0.0,0.0,0.0,0.0,0.0,0.0,0.0,0.0,0.0,0.0,0.0,0.0,0.0,0.0,0.0,0.0,0.0,0.0,0.0,0.0,0.0,0.0,0.0,0.0,0.0,0.0,0.0,0.0,0.0,0.0,0.0,0.0,0.0,0.0,0.0,0.0,0.0,0.0,0.0,0.0,0.0,0.0,0.0,0.0,0.0,0.0,0.0,0.0,0.0,0.0,0.0,0.0,0.0,0.0,0.0,0.0,0.0,0.0,0.0,0.0,0.0,0.0,0.0,1.6066,1.7608,1.8544,1.8988,1.8944,1.7479,1.6181,0.0,0.0,0.0,0.0,0.0,0.0,0.0,0.0,0.0,0.0,0.0,0.0,0.0,0.0,0.0,0.0,0.0,0.0,0.0,0.0,0.0,0.0,0.0,0.0,0.0,0.0,0.0,0.0,0.0,0.0,0.0,0.0,0.0,0.0,0.0,0.0,0.0,0.0,0.0,0.0,0.0,0.0,0.0,0.0,0.0,0.0,0.0,0.0,1.3256,0.0,0.0,0.0,0.0,0.0,0.0,0.0,0.0,0.0,0.0,0.0,0.0,0.0,0.0,0.0,0.0,0.0,0.0,0.0,0.0,0.0,0.0,0.0,0.0,0.0,0.0,0.0,0.0,0.0,0.0,0.0,0.0,0.0,0.0,0.0,0.0,0.0,0.0,0.0,0.0,0.0,0.0,0.0,0.0,0.0,0.0,0.0,0.0,0.0,0.0,0.0,0.0,0.0,0.0,0.0,0.0,0.0,0.0,0.0,1.6854,1.8272,1.9271,1.961,1.9276,1.8042,1.68,0.0,0.0,0.0,0.0,0.0,0.0,0.0,0.0,0.0,0.0,0.0,0.0,0.0,0.0,0.0,0.0,0.0,0.0,0.0,0.0,0.0,0.0,0.0,0.0,0.0,0.0,0.0,0.0,0.0,0.0,0.0,0.0,0.0,0.0,0.0,0.0,0.0,0.0,0.0,0.0,0.0,0.0,0.0,0.0,0.0,0.0,0.0,0.0,0.0,0.0,0.0,0.0,0.0,0.0,0.0,0.0,0.0,0.0,0.0,0.0,0.0,0.0,0.0,0.0,0.0,0.0,0.0,0.0,0.0,0.0,0.0,0.0,0.0,0.0,0.0,0.0,0.0,0.0,0.0,0.0,0.0,0.0,0.0,0.0,0.0,0.0,0.0,0.0,0.0,0.0,0.0,0.0,0.0,0.0,0.0,0.0,0.0,0.0,0.0,0.0,0.0,0.0,0.0,0.0,0.0,0.0,0.0,1.6039,1.75,1.8824,1.9851,2.0064,1.9536,1.8679,1.7428,1.5659,0.0,0.0,0.0,0.0,0.0,0.0,0.0,0.0,0.0,0.0,0.0,0.0,0.0,0.0,0.0,0.0,0.0,0.0,0.0,0.0,0.0,0.0,0.0,0.0,0.0,0.0,0.0,0.0,0.0,0.0,0.0,0.0,0.0,0.0,0.0,0.0,0.0,0.0,0.9629,1.0445,0.0,0.0,0.0,0.0,0.0,0.0,0.0,0.0,1.4351,0.0,0.0,0.0,0.0,0.0,0.0,0.0,0.0,0.0,0.0,0.0,0.0,0.0,0.0,0.0,0.0,0.0,0.0,0.0,0.0,0.0,0.0,0.0,0.0,0.0,0.0,0.0,0.0,0.0,0.0,0.0,0.0,0.0,0.0,0.0,0.0,0.0,0.0,0.0,0.0,0.0,0.0,0.0,0.0,0.0,0.0,0.0,0.0,0.0,0.0,0.0,0.0,0.0,0.0,0.0,0.0,1.508,1.702,1.8507,1.9513,2.053,2.0707,1.9989,1.9365,1.8062,1.6101,0.0,0.0,0.0,0.0,0.0,0.0,0.0,0.0,0.0,0.0,0.0,0.0,0.0,0.0,0.0,0.0,0.0,0.0,0.0,0.0,0.0,0.0,0.0,0.0,0.0,0.0,0.0,0.0,0.0,0.0,0.0,0.0,0.0,0.0,0.0,0.0,0.0,0.0,0.0,1.1387,1.1728,0.0,0.0,0.0,0.0,0.0,0.0,0.0,0.0,1.5477,0.0,0.0,0.0,0.0,0.0,0.0,0.0,0.0,0.0,0.0,0.0,0.0,0.0,0.0,0.0,0.0,0.0,0.0,0.0,0.0,0.0,0.0,0.0,0.0,0.0,0.0,0.0,0.0,0.0,0.0,0.0,0.0,0.0,0.0,0.0,0.0,0.0,0.0,0.0,0.0,0.0,0.0,0.0,0.0,0.0,0.0,0.0,0.0,0.0,0.0,0.0,0.0,0.0,0.0,0.0,1.5648,1.762,1.8993,1.9713,2.0838,2.1027,2.0106,1.9331,1.8023,0.0,0.0,0.0,0.0,0.0,0.0,0.0,0.0,0.0,0.0,0.0,0.0,0.0,0.0,0.0,0.0,0.0,0.0,0.0,0.0,0.0,0.0,0.0,0.0,0.0,0.0,0.0,0.0,0.0,0.0,0.0,0.0,0.0,0.0,0.0,0.0,0.0,0.0,0.0,0.0,1.2111,1.2494,1.312,0.0,0.0,0.0,0.0,0.0,0.0,1.533,1.561,0.0,0.0,0.0,0.0,0.0,0.0,0.0,0.0,0.0,0.0,0.0,0.0,0.0,0.0,0.0,0.0,0.0,0.0,0.0,0.0,0.0,0.0,0.0,0.0,0.0,0.0,0.0,0.0,0.0,0.0,0.0,0.0,0.0,0.0,0.0,0.0,0.0,0.0,0.0,0.0,0.0,0.0,0.0,0.0,0.0,0.0,0.0,0.0,0.0,0.0,0.0,0.0,0.0,0.0,0.0,1.6182,1.816,1.9408,1.9901,2.1009,2.1197,2.0297,1.9144,1.7755,0.0,0.0,0.0,0.0,0.0,0.0,0.0,0.0,0.0,0.0,0.0,0.0,0.0,0.0,0.0,0.0,0.0,0.0,0.0,0.0,0.0,0.0,0.0,0.0,0.0,0.0,0.0,0.0,0.0,0.0,0.0,0.0,0.0,0.0,0.0,0.0,0.0,0.0,0.0,0.0,0.0,1.3278,1.4126,1.4501,0.0,0.0,0.0,0.0,1.595,1.5995,0.0,0.0,0.0,0.0,0.0,0.0,0.0,0.0,0.0,0.0,0.0,0.0,0.0,0.0,0.0,0.0,0.0,0.0,0.0,0.0,0.0,0.0,0.0,0.0,0.0,0.0,0.0,0.0,0.0,0.0,0.0,0.0,0.0,0.0,0.0,0.0,0.0,0.0,0.0,0.0,0.0,0.0,0.0,0.0,0.0,0.0,0.0,0.0,0.0,0.0,0.0,0.0,0.0,0.0,0.0,0.0,1.6667,1.8726,2.0035,2.05,2.1075,2.1205,2.0889,1.9175,1.7495,0.0,0.0,0.0,0.0,0.0,0.0,0.0,0.0,0.0,0.0,0.0,0.0,0.0,0.0,0.0,0.0,0.0,0.0,0.0,0.0,0.0,0.0,0.0,0.0,0.0,0.0,0.0,0.0,0.0,0.0,0.0,0.0,0.0,0.0,0.0,0.0,0.0,0.0,0.0,0.0,0.0,1.3887,1.4924,1.526,1.5722,0.0,0.0,1.7115,1.7489,1.7537,0.0,0.0,0.0,0.0,0.0,0.0,0.0,0.0,0.0,0.0,0.0,0.0,0.0,0.0,0.0,0.0,0.0,0.0,0.0,0.0,0.0,0.0,0.0,0.0,0.0,0.0,0.0,0.0,0.0,0.0,0.0,0.0,0.0,0.0,0.0,0.0,0.0,0.0,0.0,0.0,0.0,0.0,0.0,0.0,0.0,0.0,0.0,0.0,0.0,0.0,0.0,0.0,0.0,0.0,0.0,1.6479,1.6794,1.8771,2.0075,2.0591,2.1022,2.1207,2.1103,1.9457,1.7763,0.0,0.0,0.0,0.0,0.0,0.0,0.0,0.0,0.0,0.0,0.0,0.0,0.0,0.0,0.0,0.0,0.0,0.0,0.0,0.0,0.0,0.0,0.0,0.0,0.0,0.0,0.0,0.0,0.0,0.0,0.0,0.0,0.0,0.0,0.0,0.0,0.0,0.0,0.0,0.0,0.0,0.0,1.5729,1.611,0.0,0.0,0.0,1.7519,1.7762,0.0,0.0,0.0,0.0,0.0,0.0,0.0,0.0,0.0,0.0,0.0,0.0,0.0,0.0,0.0,0.0,0.0,0.0,0.0,0.0,0.0,0.0,0.0,0.0,0.0,0.0,0.0,0.0,0.0,0.0,0.0,0.0,0.0,0.0,0.0,0.0,0.0,0.0,0.0,0.0,0.0,0.0,0.0,0.0,0.0,0.0,0.0,0.0,0.0,0.0,0.0,0.0,0.0,0.0,0.0,0.0,0.0,1.6921,1.8672,1.9924,2.0556,2.0878,2.1101,2.1174,1.9609,0.0,0.0,0.0,0.0,0.0,0.0,0.0,0.0,0.0,0.0,0.0,0.0,0.0,0.0,0.0,0.0,0.0,0.0,0.0,0.0,0.0,0.0,0.0,0.0,0.0,0.0,0.0,1.2884,0.0,0.0,0.0,0.0,0.0,0.0,0.0,0.0,0.0,0.0,0.0,0.0,0.0,0.0,1.5571,1.6562,1.7004,1.7358,0.0,0.0,1.8192,1.8341,1.8437,1.8244,0.0,0.0,0.0,0.0,0.0,0.0,0.0,0.0,0.0,0.0,0.0,0.0,0.0,0.0,0.0,0.0,0.0,0.0,0.0,0.0,0.0,0.0,0.0,0.0,0.0,0.0,0.0,0.0,0.0,0.0,0.0,0.0,0.0,0.0,0.0,0.0,0.0,0.0,0.0,0.0,0.0,0.0,0.0,0.0,0.0,0.0,0.0,0.0,0.0,0.0,0.0,0.0,0.0,0.0,0.0,1.718,1.8418,1.9526,2.0459,2.0592,2.0862,2.1262,1.9501,1.8262,0.0,0.0,0.0,0.0,0.0,0.0,0.0,0.0,0.0,0.0,0.0,0.0,0.0,0.0,0.0,0.0,0.0,0.0,0.0,0.0,0.0,0.0,0.0,0.0,0.0,0.0,0.0,0.0,0.0,0.0,0.0,0.0,0.0,0.0,0.0,0.0,0.0,0.0,0.0,0.0,0.0,1.6395,1.7389,1.7856,1.8396,0.0,0.0,1.9715,1.9926,1.9945,1.9731,1.9076,0.0,0.0,0.0,0.0,0.0,0.0,0.0,0.0,0.0,0.0,0.0,0.0,0.0,0.0,0.0,0.0,0.0,0.0,0.0,0.0,0.0,0.0,0.0,0.0,0.0,0.0,0.0,0.0,0.0,0.0,0.0,0.0,0.0,0.0,0.0,0.0,0.0,0.0,0.0,0.0,0.0,0.0,0.0,0.0,0.0,0.0,0.0,0.0,0.0,0.0,0.0,0.0,0.0,1.6622,1.7193,1.8234,1.9321,2.0439,2.0484,2.0823,2.1524,1.9884,1.8771,0.0,0.0,0.0,0.0,0.0,0.0,0.0,0.0,0.0,0.0,0.0,0.0,0.0,0.0,0.0,0.0,0.0,0.0,0.0,0.0,0.0,0.0,0.0,0.0,0.0,0.0,0.0,0.0,1.5407,1.5689,1.5438,0.0,0.0,0.0,0.0,0.0,0.0,0.0,0.0,0.0,0.0,1.7407,1.8442,1.8834,0.0,0.0,1.983,1.9973,2.0098,2.0115,1.9903,1.9312,1.8942,0.0,0.0,0.0,0.0,0.0,0.0,0.0,0.0,0.0,0.0,0.0,0.0,0.0,0.0,0.0,0.0,0.0,0.0,0.0,0.0,0.0,0.0,0.0,0.0,0.0,0.0,0.0,0.0,0.0,0.0,0.0,0.0,0.0,0.0,0.0,0.0,0.0,0.0,0.0,0.0,0.0,0.0,0.0,0.0,0.0,0.0,0.0,0.0,0.0,0.0,0.0,0.0,1.6632,1.7303,1.8093,1.912,2.0387,2.0476,2.0894,2.1579,2.0429,1.9552,0.0,0.0,0.0,0.0,0.0,0.0,0.0,0.0,0.0,0.0,0.0,0.0,0.0,0.0,0.0,0.0,0.0,0.0,0.0,0.0,0.0,0.0,0.0,0.0,0.0,0.0,0.0,0.0,1.6393,1.6628,1.6285,0.0,0.0,0.0,0.0,0.0,0.0,0.0,0.0,0.0,0.0,1.8381,1.9222,1.9515,1.9726,1.9884,2.0025,2.0146,2.0185,2.0204,2.01,1.9739,0.0,0.0,0.0,0.0,0.0,0.0,0.0,0.0,0.0,0.0,0.0,0.0,0.0,0.0,0.0,0.0,0.0,0.0,0.0,0.0,0.0,0.0,0.0,0.0,0.0,0.0,0.0,1.7786,0.0,0.0,1.6988,0.0,0.0,0.0,0.0,0.0,0.0,0.0,0.0,0.0,0.0,0.0,0.0,0.0,0.0,0.0,0.0,0.0,0.0,0.0,0.0,0.0,0.0,1.6536,1.7557,1.8025,1.8864,2.0169,2.0598,2.1068,2.1582,2.1107,2.0659,2.0165,0.0,0.0,0.0,0.0,0.0,0.0,0.0,0.0,0.0,0.0,0.0,0.0,0.0,0.0,0.0,0.0,0.0,0.0,0.0,0.0,0.0,0.0,0.0,0.0,0.0,0.0,1.6806,1.7269,1.7502,0.0,0.0,0.0,0.0,0.0,0.0,0.0,0.0,0.0,0.0,1.8578,1.9299,1.9639,1.9866,2.0023,2.008,2.027,2.0388,2.0388,2.0458,2.0494,0.0,0.0,0.0,0.0,0.0,0.0,0.0,0.0,0.0,0.0,0.0,0.0,0.0,0.0,0.0,0.0,0.0,0.0,0.0,0.0,0.0,0.0,0.0,0.0,0.0,0.0,0.0,1.952,1.9171,0.0,0.0,0.0,0.0,0.0,0.0,0.0,0.0,0.0,0.0,0.0,1.8924,1.8809,0.0,0.0,0.0,0.0,0.0,0.0,0.0,0.0,0.0,0.0,0.0,0.0,1.6794,1.782,1.8261,1.9103,2.0434,2.0932,2.1444,2.1959,2.1679,2.1141,2.0358,0.0,0.0,0.0,0.0,0.0,0.0,0.0,0.0,0.0,0.0,0.0,0.0,0.0,0.0,0.0,0.0,0.0,0.0,0.0,0.0,0.0,0.0,0.0,0.0,0.0,1.7948,0.0,0.0,0.0,0.0,0.0,0.0,0.0,0.0,0.0,0.0,0.0,1.798,1.8775,1.9251,1.9675,2.0045,2.0148,2.0235,0.0,0.0,0.0,0.0,0.0,0.0,0.0,0.0,0.0,0.0,0.0,0.0,0.0,0.0,2.0229,2.0326,2.0323,2.0323,2.0323,0.0,0.0,0.0,0.0,0.0,0.0,0.0,0.0,0.0,0.0,0.0,0.0,0.0,0.0,2.1101,0.0,2.0348,0.0,0.0,0.0,0.0,0.0,0.0,0.0,0.0,2.0184,2.0574,2.0694,2.0574,2.0574,0.0,2.0124,1.9446,0.0,0.0,0.0,0.0,0.0,0.0,0.0,0.0,1.7118,1.8199,1.8634,1.9507,2.083,2.141,2.1912,2.2411,2.2243,2.1854,2.1248,2.0309,1.9531,0.0,0.0,0.0,0.0,0.0,0.0,0.0,0.0,0.0,0.0,0.0,0.0,0.0,0.0,0.0,0.0,0.0,0.0,0.0,0.0,0.0,0.0,0.0,1.8891,0.0,0.0,0.0,0.0,0.0,0.0,0.0,0.0,0.0,1.8161,1.8339,1.8786,1.954,1.983,2.0045,2.039,0.0,0.0,0.0,0.0,0.0,0.0,0.0,2.0892,2.0925,2.0974,2.0974,2.0974,2.1389,2.1645,2.1389,0.0,0.0,2.079,2.0646,2.0629,2.0679,2.0679,2.0712,2.0859,2.0892,2.0909,0.0,0.0,0.0,0.0,0.0,0.0,0.0,0.0,2.2534,2.2547,0.0,2.2468,0.0,0.0,0.0,0.0,0.0,2.0569,0.0,0.0,2.2646,2.3412,2.3489,2.3371,2.3398,2.3473,2.2194,2.1488,2.1221,1.9055,0.0,0.0,0.0,0.0,0.0,0.0,1.7496,1.8647,1.912,2.0032,2.1393,2.1949,2.2434,2.2897,2.2869,2.2838,2.2798,2.1624,2.0892,2.0689,1.934,0.0,0.0,0.0,0.0,0.0,0.0,0.0,0.0,0.0,0.0,0.0,0.0,0.0,0.0,0.0,0.0,0.0,0.0,0.0,0.0,1.9556,0.0,0.0,0.0,0.0,0.0,0.0,0.0,0.0,0.0,0.0,1.931,1.9563,1.9848,2.0142,0.0,0.0,0.0,0.0,2.0806,2.0889,2.0956,2.1005,2.1005,2.1151,2.1295,2.1327,0.0,0.0,2.139,2.2557,2.3256,2.2589,2.2979,2.2977,2.1374,2.1101,2.1086,2.1151,2.1183,2.1151,2.1263,2.1456,2.1424,2.5301,0.0,0.0,0.0,0.0,2.4323,2.4669,2.4971,2.4971,2.4985,2.4931,2.4053,0.0,0.0,0.0,0.0,0.0,0.0,2.2814,2.2881,2.388,2.445,2.4556,2.4583,2.4635,2.4669,2.3795,2.3069,2.2467,2.1301,2.0069,1.8815,0.0,0.0,0.0,0.0,1.8601,1.9707,2.0201,2.0951,2.1945,2.2342,2.2912,2.3689,2.3806,2.3697,2.3381,2.2971,2.2251,2.1185,2.0594,0.0,0.0,0.0,0.0,0.0,0.0,0.0,0.0,0.0,0.0,0.0,0.0,0.0,0.0,0.0,0.0,0.0,0.0,0.0,2.001,2.0061,2.0043,0.0,0.0,0.0,0.0,0.0,0.0,0.0,0.0,0.0,2.0893,2.0926,2.115,0.0,0.0,2.2244,2.2382,2.2437,2.2508,2.2576,2.2696,0.0,2.2831,2.2864,2.2948,2.3096,2.3194,2.3226,2.3226,2.3588,2.3786,2.3572,2.3704,2.372,2.3358,2.3014,2.2899,2.3031,2.308,2.308,2.3177,2.3194,2.3194,2.8423,2.6762,2.5985,2.5917,2.637,2.6538,2.6756,2.698,2.6777,2.671,2.6668,2.5936,2.5494,2.5232,2.4638,0.0,0.0,0.0,2.4936,2.4964,2.5753,2.6185,2.6268,2.6322,2.6234,2.6017,2.5353,2.464,2.3946,2.2937,2.1912,2.0793,0.0,0.0,1.9288,1.9184,1.9578,2.0441,2.0932,2.1552,2.2388,2.2889,2.3443,2.4088,2.4302,2.4286,2.4076,2.3772,2.3094,2.1934,2.1406,2.053,0.0,0.0,0.0,0.0,0.0,0.0,0.0,0.0,0.0,0.0,0.0,1.8746,1.9195,0.0,0.0,0.0,2.0251,2.0705,2.0847,2.1113,0.0,0.0,0.0,0.0,0.0,0.0,0.0,2.1146,2.1664,2.2182,2.2609,2.2695,2.276,2.2851,2.2974,2.3115,2.3287,0.0,2.3464,2.3533,2.3635,2.3719,2.3769,2.3802,2.3885,2.4081,2.4379,2.4462,2.4243,2.4661,2.4945,2.4744,2.4862,2.5112,2.526,2.5063,2.4663,2.4182,2.4065,2.4081,2.4145,2.4161,2.4161,3.1105,3.0555,2.9194,2.8804,2.9091,2.8723,2.8669,2.8736,2.8326,2.8147,2.8103,2.8034,2.7625,2.6962,2.6439,0.0,2.6199,2.6875,2.7186,2.7229,2.7954,2.8297,2.8297,2.8297,2.8011,2.7381,2.6793,2.6122,2.5354,2.4099,2.3467,2.332,2.113,1.997,1.9907,2.0094,2.0482,2.0996,2.1409,2.1969,2.274,2.3443,2.3952,2.4204,2.441,2.4541,2.4594,2.4053,2.3412,2.2721,2.1825,2.0962,2.0179,0.0,0.0,0.0,0.0,0.0,0.0,0.0,0.0,0.0,0.0,0.0,0.0,0.0,0.0,0.0,2.1089,0.0,2.1831,2.2449,0.0,0.0,0.0,2.2418,2.1819,2.2292,2.2705,2.283,0.0,0.0,2.4269,2.4616,2.4478,2.3585,2.3487,2.3591,2.3762,2.3948,2.4017,2.4149,2.4199,2.4215,2.4348,2.4463,2.4593,2.472,2.5173,2.5392,2.4949,2.5726,2.6335,2.5826,2.625,2.6724,2.6859,2.6774,2.6418,2.4856,2.4589,2.4588,2.4701,2.4734,2.4767,3.2667,3.2789,3.2284,3.1642,3.0881,3.095,3.1055,3.1137,3.1044,3.1005,3.0962,2.9979,2.8952,2.7883,2.7741,2.7669,2.7684,2.7855,2.7926,2.7997,2.8742,2.9131,2.9131,2.9218,2.8958,2.835,2.7686,2.6736,2.5577,2.5221,2.4758,2.4173,2.3117,2.2259,2.1634,2.1308,2.1468,2.2029,2.2346,2.2698,2.315,2.3689,2.3766,2.3391,2.3628,2.3557,2.3139,2.3061,2.2705,2.2012,2.1737,2.1227,2.044,2.0168,0.0,0.0,0.0,0.0,0.0,0.0,0.0,0.0,0.0,1.9919,2.0065,0.0,2.1253,0.0,2.2218,2.286,2.2928,2.3161,0.0,0.0,2.3141,2.3155,2.2979,2.316,2.3327,2.3414,2.4074,2.4621,2.4801,2.5417,2.5804,2.5641,2.5483,2.5375,2.5428,2.5588,2.5693,2.5728,2.5832,2.5983,2.5933,2.6151,2.625,2.63,2.6485,2.6585,2.643,2.6669,2.6856,2.6703,2.6788,2.6942,2.6975,2.6958,2.6873,2.645,2.6348,2.6365,2.6381,2.6364,2.6364,3.3739,3.3851,3.367,3.3229,3.2649,3.2478,3.2462,3.2514,3.2306,3.2209,3.2166,3.1493,3.0787,3.0094,2.9792,2.9663,2.9634,2.9375,2.9275,2.9304,2.9738,2.9927,2.9912,3.0016,2.9711,2.9087,2.8448,2.7581,2.6544,2.5965,2.5477,2.507,2.4398,2.3693,2.2983,2.2369,2.2241,2.2569,2.2894,2.3149,2.3385,2.379,2.3747,2.3217,2.3396,2.3243,2.2692,2.2765,2.2472,2.1845,2.1729,2.1381,2.0624,2.0357,2.0218,0.0,0.0,0.0,0.0,0.0,0.0,0.0,0.0,0.0,0.0,0.0,2.2034,2.2508,2.3339,2.3898,2.3968,2.4366,2.4468,2.4156,2.4435,2.4536,2.4192,2.4472,2.4705,2.4739,2.5258,2.5644,2.5627,2.6098,2.6435,2.6521,2.6435,2.6382,2.6314,2.6469,2.6589,2.6572,2.6691,2.6775,2.6792,2.6859,2.6958,2.6991,2.7006,2.7072,2.7105,2.7138,2.7138,2.7138,2.7138,2.7138,2.7138,2.7154,2.717,2.7186,2.7201,2.7168,2.7071,2.7039,2.7072,3.4483,3.4361,3.4063,3.3985,3.4051,3.3571,3.334,3.3345,3.2941,3.2716,3.2643,3.2643,3.2568,3.2483,3.1886,3.1567,3.1451,3.0945,3.0685,3.0612,3.0612,3.0612,3.0612,3.0612,3.0248,2.9581,2.9044,2.8434,2.7681,2.6591,2.6021,2.5919,2.5284,2.4665,2.4123,2.3325,2.2904,2.2841,2.3149,2.3378,2.3487,2.3833,2.3722,2.3185,2.3277,2.3072,2.2527,2.2499,2.227,2.179,2.1734,2.1481,2.0916,2.0811,2.0738,0.0,2.0655,0.0,0.0,0.0,0.0,0.0,0.0,0.0,0.0,2.2269,2.2877,2.3828,2.4534,2.4929,2.4984,2.563,2.5833,2.5289,2.5807,2.5976,2.5395,2.5878,2.6277,2.6294,2.64,2.647,2.647,2.664,2.6742,2.6741,2.6842,2.6842,2.6792,2.6842,2.6876,2.6892,2.6975,2.6991,2.7041,2.7024,2.7056,2.7103,2.7119,2.7168,2.7282,2.7297,2.7297,2.7313,2.733,2.7313,2.7329,2.736,2.7407,2.7407,2.7436,2.7419,2.723,2.7166,2.7182,3.5142,3.5317,3.4415,3.4059,3.4113,3.4148,3.4158,3.4158,3.4076,3.3761,3.3329,3.3329,3.3038,3.2495,3.2365,3.2002,3.1511,3.1395,3.1061,3.0612,3.0612,3.0612,3.0612,3.0612,3.0234,2.961,2.9479,2.8812,2.7695,2.7449,2.7099,2.6602,2.5937,2.5571,2.5371,0.0,0.0,0.0,2.3223,2.3378,2.3509,2.3812,2.3447,2.2315,2.2428,0.0,2.0922,2.0916,2.0973,2.1031,2.1604,0.0,0.0,0.0,0.0,0.0,0.0,0.0,0.0,0.0,0.0,0.0,2.3174,2.3174,2.3166,2.3959,2.4754,2.5461,2.5819,2.6008,2.6009,2.6246,2.6349,2.6248,2.6349,2.6401,2.6336,2.6505,2.664,2.6759,2.6842,2.6892,2.6875,2.6908,2.6957,2.7022,2.7054,2.7104,2.7153,2.7056,2.6992,2.6975,2.7056,2.712,2.7234,2.7234,2.7234,2.7249,2.7266,2.7297,2.736,2.7393,2.7407,2.7436,2.7465,2.7467,2.745,2.7483,2.7483,2.7465,2.7496,2.7481,2.7434,2.7434,2.7434,3.5469,3.5726,3.4577,3.4162,0.0,3.4346,3.438,3.438,3.438,3.4225,3.3935,3.3935,3.3761,3.3409,3.3122,3.2803,3.2454,3.1816,3.1351,3.1032,3.0743,3.0612,3.0612,3.0612,3.0438,3.0089,2.974,2.9262,2.8623,2.8,2.759,2.7321,2.6695,2.6254,2.5965,2.4736,2.3771,2.3097,2.3319,2.348,2.356,2.3919,2.3636,2.2683,2.244,0.0,0.0,0.0,0.0,0.0,0.0,0.0,0.0,2.301,0.0,2.3288,2.3274,2.3293,2.343,2.3516,2.3765,2.4261,2.4759,2.4843,2.4378,2.5124,2.5808,2.619,2.6346,2.6416,2.6452,2.6538,2.6623,2.6691,2.6708,2.6759,2.6792,2.6809,2.6875,2.6942,2.7007,2.7055,2.7039,2.7105,2.717,2.7184,2.7201,2.7217,2.7266,2.7219,2.7171,2.7137,2.7169,2.7234,2.7299,2.7315,2.7315,2.7315,2.733,2.7378,2.7409,2.7438,2.7452,2.7496,2.7496,2.7496,2.7496,2.7526,2.7557,2.7557,2.7587,2.76,2.76,2.7539,2.7496,3.5839,3.5935,3.4796,3.4331,3.438,3.438,3.438,3.438,0.0,0.0,0.0,3.438,3.438,3.437,3.3862,3.3605,3.3431,3.2353,3.1729,3.1466,3.0974,3.0714,3.0612,3.0612,3.0612,3.0583,3.0075,2.9755,2.961,2.8621,2.8063,2.7976,2.7492,2.6913,2.6243,2.5242,2.4302,2.3474,2.3539,2.3616,2.3702,2.4046,2.3948,2.3337,2.2883,2.2412,2.1918,2.1404,2.1475,2.2218,2.2395,2.2785,2.3506,2.3703,2.382,2.3924,2.4011,2.4113,2.4247,2.4298,2.463,2.5329,2.5997,2.6098,2.548,2.6015,2.64,2.652,2.6571,2.6623,2.6657,2.6708,2.6809,2.6909,2.6958,2.6991,2.7007,2.7024,2.7006,2.7073,2.712,2.7166,2.7182,2.7247,2.7329,2.7329,2.7345,2.7313,2.733,2.7299,2.7299,2.7283,2.7299,2.7315,2.7315,2.7315,2.7315,2.7313,2.736,2.7392,2.7438,2.7483,2.7526,2.7557,2.7542,2.7524,2.7539,2.7569,2.76,2.7632,2.7642,2.7716,2.7716,2.7644,2.7572,3.6555,3.6207,3.5532,3.4922,3.438,3.438,3.438,3.438,3.438,3.438,3.438,3.438,3.438,3.438,3.4327,3.3978,3.3503,3.3314,3.26,3.1495,3.1438,3.109,3.0612,3.0612,3.0612,3.0598,3.0644,3.0368,2.99,2.978,2.9273,2.8432,2.8251,2.7635,2.6628,2.6471,2.5883,2.4752,2.3981,2.3745,2.4036,2.4198,2.4035,2.3502,2.3557,2.3334,2.2769,2.2748,2.2925,2.3281,2.3848,2.4291,2.4582,2.5227,2.5642,2.5643,2.5767,2.5873,2.5927,2.5961,2.6099,2.6438,2.659,2.6539,2.6352,2.6522,2.6641,2.6674,2.6826,2.6942,2.6942,2.6942,2.6958,2.6992,2.6991,2.7024,2.7086,2.7086,2.7152,2.7313,2.7362,2.7374,2.7419,2.745,2.7467,2.7465,2.7434,2.7452,2.7392,2.7329,2.7315,2.7315,2.7315,2.7315,2.7315,2.7315,2.733,2.7376,2.7392,2.7438,2.7526,2.7572,2.76,2.7674,2.7674,2.7657,2.7672,2.7689,2.7672,2.7704,2.7701,2.7748,2.7842,2.7845,2.7798,3.6396,3.6199,3.5256,3.4675,3.438,3.438,3.438,3.4414,3.4515,3.4481,3.4414,3.438,3.438,3.4414,3.4515,3.4403,3.4145,3.3893,3.3428,3.2842,3.2476,3.2185,3.1877,3.154,3.1349,3.135,3.1146,3.0925,3.0659,3.0462,2.9988,2.9218,2.8696,2.7919,2.7105,2.7091,2.6704,2.5923,2.5007,2.4481,2.4364,2.4503,2.4505,2.4359,2.4166,2.3915,2.3706,2.3463,2.3571,2.4117,2.4426,2.4891,2.5532,2.5898,2.6151,2.6259,2.6381,2.6417,2.6452,2.6555,2.6691,2.6859,2.6859,2.6842,2.6792,2.6842,2.6859,2.6842,2.6958,2.7007,2.7055,2.7055,2.7087,2.7202,2.7218,2.7249,2.731,2.7326,2.7357,2.7436,2.7452,2.745,2.7496,2.7496,2.7496,2.7496,2.7496,2.7496,2.7452,2.7421,2.7374,2.7313,2.7315,2.7315,2.7315,2.7315,2.733,2.7393,2.7421,2.7483,2.7587,2.7615,2.7674,2.7701,2.7716,2.7716,2.7716,2.7716,2.7716,2.7795,2.781,2.7856,2.7946,2.7943,2.7929,3.6288,3.6185,3.5096,3.4545,3.4496,3.4448,3.4467,3.4501,3.4683,3.465,3.4515,3.4515,3.4515,3.4549,3.4683,3.4765,3.4691,3.4353,3.4109,3.395,3.3495,3.3201,3.2994,3.2418,3.2122,3.2064,3.1692,3.1467,3.1436,3.1142,3.0776,3.0258,2.9298,2.8542,2.8047,2.7853,2.7548,2.7045,2.6339,2.5664,2.5013,2.5062,2.5124,2.5134,2.4753,2.4577,2.4671,2.426,2.435,2.4977,2.5026,2.543,2.6206,2.6274,2.6363,2.652,2.6589,2.664,2.6674,2.6826,2.6959,2.7024,2.7006,2.7057,2.7072,2.7089,2.7056,2.704,2.7089,2.7121,2.7168,2.7182,2.7246,2.7407,2.7423,2.7438,2.7481,2.7496,2.7511,2.7511,2.7526,2.7526,2.7524,2.7539,2.7554,2.7554,2.7539,2.7539,2.7509,2.7509,2.7483,2.7392,2.7329,2.7315,2.7315,2.7315,2.7362,2.7407,2.7465,2.7542,2.76,2.7672,2.7701,2.7716,2.773,2.7748,2.7748,2.7777,2.7824,2.79,2.7932,2.7946,2.8014,2.8053,2.8039,3.6816,3.6257,3.5552,3.5039,3.4693,3.4664,3.475,3.4835,3.4868,3.4868,3.482,3.4868,3.4868,3.4868,3.4868,3.4902,3.4902,3.4828,3.4537,3.41,3.408,3.3787,3.336,3.2751,3.2467,3.2437,3.2143,3.1983,3.1953,3.2112,3.199,3.1529,3.0568,2.999,2.9848,2.9273,2.8679,2.8176,2.8124,2.7445,2.6141,2.6061,2.5843,2.5375,2.5441,2.5505,2.5536,2.5628,2.579,2.6033,2.6034,2.6174,2.6433,2.6537,2.6589,2.6589,2.6674,2.6759,2.6859,2.6942,2.7024,2.7086,2.7103,2.7184,2.7329,2.736,2.728,2.7151,2.7264,2.7345,2.7376,2.7404,2.7432,2.7498,2.7481,2.7496,2.7511,2.7496,2.7526,2.7587,2.76,2.7632,2.7689,2.7686,2.7686,2.7672,2.7672,2.7642,2.76,2.7585,2.7572,2.7481,2.7421,2.7376,2.7346,2.7362,2.7423,2.7483,2.7542,2.76,2.7657,2.7686,2.7716,2.7716,2.7795,2.7842,2.7888,2.7946,2.7971,2.7986,2.8,2.8032,2.8085,2.8178,2.8205,3.6562,3.6214,3.5365,3.4932,3.4831,3.4817,3.4835,3.4902,3.5034,3.5082,3.5115,3.5282,3.5216,3.4935,3.5148,3.5246,3.5261,3.5459,3.5422,3.5183,3.5327,3.5256,3.5,3.4531,3.4074,3.3602,3.3293,3.2925,3.2532,3.2504,3.243,3.2216,3.159,3.1052,3.0635,3.033,2.9878,2.9329,2.934,2.886,2.7931,2.7017,2.649,2.633,2.6017,2.5862,2.5883,2.6046,2.6188,2.6258,2.6345,2.6433,2.6554,2.6572,2.6657,2.6759,2.6842,2.6925,2.7006,2.7055,2.7137,2.7263,2.728,2.7327,2.7436,2.7452,2.7436,2.7373,2.7404,2.7467,2.7485,2.7498,2.7529,2.7557,2.7557,2.7602,2.7724,2.7724,2.7768,2.7824,2.7839,2.7839,2.7882,2.7896,2.7868,2.7824,2.781,2.7766,2.7674,2.7642,2.763,2.7572,2.7544,2.7498,2.7436,2.7436,2.7498,2.7542,2.7569,2.7615,2.7686,2.7716,2.7716,2.7716,2.781,2.7888,2.7888,2.7961,2.8014,2.8056,2.8136,2.8209,2.8223,2.8304,2.8313,3.6387,3.6233,3.5224,3.485,3.5001,3.5001,3.5001,3.5067,3.5279,3.5329,3.5362,3.5671,3.5591,3.5314,3.5554,3.5651,3.5716,3.5941,3.61,3.6132,3.6321,3.6399,3.6337,3.595,3.5374,3.4705,3.4276,3.3751,3.3166,3.3115,3.3069,3.3006,3.2619,3.2097,3.1593,3.1252,3.0809,3.0386,3.0234,2.9927,2.9387,2.8254,2.7449,2.7035,2.6585,2.6261,2.6099,2.6277,2.6365,2.6382,2.6468,2.6571,2.6674,2.6674,2.6759,2.6926,2.6991,2.7055,2.7135,2.7166,2.7247,2.744,2.7594,2.7782,2.7877,2.8047,2.8167,2.8283,2.8231,2.8179,2.7544,2.7572,2.765,2.7694,2.7692,2.7783,2.7903,2.7932,2.7929,2.7982,2.7968,2.7982,2.7982,2.7982,2.7971,2.7929,2.7903,2.7874,2.7763,2.7716,2.7672,2.763,2.7615,2.7569,2.7526,2.7511,2.7557,2.7587,2.7617,2.7642,2.7683,2.7701,2.7716,2.7716,2.7824,2.79,2.7943,2.8,2.8085,2.8168,2.8246,2.8327,2.8331,2.838,2.8419,3.6579,3.6409,3.5379,3.5016,3.518,3.5195,3.5294,3.5457,3.5606,3.5655,3.5703,3.591,3.6053,3.6116,3.6068,3.6068,3.6164,3.6211,3.6336,3.6523,3.6769,3.6875,3.6859,3.6515,3.6014,3.5429,3.4927,3.4367,3.3864,3.4077,3.4226,3.4145,3.3622,3.3334,3.3039,3.1964,3.1286,3.1166,3.0726,3.0452,3.0357,2.9876,2.8805,2.7415,2.7177,2.6921,2.6411,2.6433,2.652,2.6572,2.6589,2.6691,2.6859,2.6876,2.6909,2.6991,2.7088,2.7152,2.7266,2.7415,2.7527,2.7639,2.8279,2.8675,2.8769,2.9259,2.9655,2.999,2.9849,2.931,2.8082,2.8049,2.8053,2.805,2.8017,2.8078,2.8071,2.8248,2.8035,2.812,2.8241,2.8294,2.812,2.7982,2.812,2.8092,2.7982,2.7924,2.7856,2.7795,2.7716,2.7701,2.7686,2.7642,2.7539,2.7572,2.7602,2.7615,2.7659,2.7683,2.7701,2.7716,2.7716,2.7745,2.7882,2.7954,2.7996,2.8081,2.8178,2.8277,2.8327,2.838,2.8393,2.844,2.8466,3.634,3.568,3.5274,3.5228,3.5392,3.5392,3.5489,3.5621,3.5688,3.5816,3.6038,3.6226,3.643,3.6662,3.6738,3.6723,3.6677,3.6784,3.6937,3.7104,3.7314,3.7431,3.7546,3.7482,3.719,3.6612,3.5997,3.5218,3.4373,3.4472,3.4546,3.4578,3.4516,3.4263,3.3707,3.2912,3.2242,3.1727,3.1095,3.0753,3.0753,3.06,2.9945,2.886,2.7931,2.7385,2.7154,2.6754,2.6589,2.6623,2.6725,2.6826,2.6909,2.6974,2.7054,2.717,2.7679,2.8052,2.8201,2.8649,2.8958,2.9038,2.9282,2.9537,2.97,2.9925,3.0131,3.0243,3.0274,2.9874,2.9594,2.9395,2.9443,2.9443,2.9437,2.9429,2.9526,2.9541,2.9559,2.9585,2.96,2.9618,2.9496,2.96,2.939,2.8937,2.8802,2.8517,2.8041,2.7842,2.7795,2.773,2.7701,2.7704,2.7659,2.7659,2.7674,2.7657,2.7686,2.7701,2.7716,2.7716,2.7716,2.773,2.7864,2.7996,2.8039,2.8164,2.8259,2.8313,2.838,2.8458,2.8471,2.8492,2.8531,3.6433,3.5651,3.5368,3.5392,3.5539,3.5587,3.5638,3.5799,3.5926,3.6116,3.6367,3.6616,3.6876,3.7163,3.7358,3.7447,3.7371,3.7417,3.749,3.7653,3.7873,3.8046,3.8144,3.8258,3.8026,3.7389,3.6594,3.5742,3.5046,3.4895,3.4851,3.4923,3.5105,3.4925,3.438,3.3556,3.2813,3.2261,3.1431,3.0932,3.0935,3.1012,3.0796,3.021,2.9136,2.8307,2.8016,2.7398,2.7046,2.7046,2.6978,2.7044,2.7365,2.7496,2.7696,2.8068,2.8601,2.896,2.9128,2.9612,2.9906,3.0005,3.0283,3.0486,3.0617,3.0827,3.0999,3.108,3.1111,3.1111,3.1142,3.1158,3.0945,3.0505,3.0348,3.0394,3.0436,3.0401,3.0413,3.0392,3.0371,3.0443,3.0496,3.046,3.0196,2.9724,2.9496,2.8979,2.8517,2.8059,2.7874,2.7763,2.7748,2.7716,2.7686,2.7686,2.7686,2.7686,2.7686,2.7701,2.7716,2.7716,2.7716,2.7728,2.7818,2.7965,2.8109,2.8214,2.8282,2.8353,2.8445,2.8518,2.8531,2.8543,2.8569,3.6905,3.6387,3.5789,3.5634,3.5703,3.572,3.5831,3.6022,3.6352,3.6569,3.6769,3.7074,3.7373,3.7685,3.7844,3.8075,3.8234,3.8059,3.8001,3.8144,3.8399,3.8556,3.8567,3.8694,3.8417,3.7777,3.6534,3.5968,3.5876,3.5433,3.5235,3.5261,3.5268,3.5258,3.5241,3.3941,3.317,3.2789,3.1782,3.1083,3.1015,3.1176,3.1259,3.1159,3.0588,2.9833,2.8932,2.8317,2.7998,2.793,2.7453,2.75,2.8283,2.845,2.8842,2.9479,2.9756,2.9841,2.9923,3.016,3.0382,3.0517,3.1038,3.1458,3.1579,3.2039,3.2425,3.2488,3.2574,3.2679,3.2688,3.2715,3.2199,3.0808,3.0751,3.0814,3.0707,3.06,3.0564,3.0704,3.0793,3.0582,3.0582,3.0779,3.0761,3.0496,2.9917,2.9357,2.9047,2.8414,2.7956,2.7874,2.7795,2.7716,2.7716,2.7716,2.7716,2.7716,2.7701,2.7716,2.7716,2.7716,2.7716,2.773,2.7864,2.8011,2.815,2.8273,2.8367,2.8432,2.8523,2.8556,2.8569,2.8569,2.8587,3.7805,3.6874,3.6632,3.6254,3.5957,3.6006,3.6148,3.6352,3.6631,3.6921,3.7208,3.7535,3.7873,3.8148,3.8331,3.85,3.8683,3.8667,3.8623,3.8639,3.8678,3.8805,3.8887,3.8914,3.8688,3.8254,3.7902,3.7203,3.6417,3.6074,3.5787,3.5415,3.5417,3.5406,3.5396,3.4521,3.3857,3.3271,3.2476,3.1791,3.1283,3.1351,3.1443,3.1426,3.1259,3.0984,3.0711,2.9551,2.892,2.8886,2.8785,2.892,2.9277,2.9377,2.9597,3.0007,3.0497,3.0843,3.1045,3.1482,3.1762,3.1883,3.2111,3.2284,3.2385,3.2597,3.2787,3.2918,3.2916,3.2948,3.3008,3.3039,3.2739,3.2235,3.2243,3.2199,3.2145,3.2217,3.2304,3.2304,3.2289,3.2274,3.2192,3.2159,3.186,3.1347,3.0639,3.0003,2.9339,2.8645,2.7978,2.7903,2.781,2.7716,2.7716,2.7716,2.7716,2.7716,2.7716,2.7716,2.7716,2.7716,2.7716,2.7774,2.7893,2.8039,2.8191,2.8318,2.8411,2.8458,2.851,2.8562,2.8587,2.86,2.86,3.8613,3.7821,3.7353,3.699,3.6657,3.6537,3.6585,3.68,3.7133,3.7431,3.7711,3.803,3.8303,3.8544,3.8711,3.8805,3.8887,3.9094,3.9131,3.9067,3.9013,3.9067,3.9175,3.9239,3.9146,3.8879,3.8698,3.8162,3.7314,3.6726,3.628,3.5923,3.5632,3.5543,3.5476,3.4895,3.4215,3.3486,3.2859,3.219,3.1617,3.154,3.1614,3.167,3.1688,3.1727,3.1715,3.0833,3.0177,2.9902,2.973,2.9813,3.0241,3.0326,3.0532,3.1031,3.1415,3.1766,3.1951,3.2338,3.2688,3.2705,3.2737,3.2786,3.2884,3.29,3.2948,3.3011,3.3026,3.3057,3.3086,3.315,3.3135,3.3088,3.3032,3.3119,3.3119,3.3119,3.3083,3.2996,3.3047,3.3088,3.3039,3.3006,3.2831,3.2179,3.1484,3.0669,2.9861,2.904,2.8546,2.8105,2.7871,2.781,2.7716,2.7716,2.7716,2.7716,2.7716,2.7716,2.7716,2.7716,2.7716,2.7836,2.7954,2.8067,2.8219,2.8313,2.8424,2.8458,2.851,2.8562,2.86,2.86,2.86,3.9401,3.9201,3.8109,3.7698,3.7685,3.7202,3.7072,3.7298,3.774,3.8001,3.8173,3.8472,3.8678,3.8832,3.8969,3.9067,3.9121,3.9352,3.9484,3.9432,3.9379,3.9379,3.9484,3.9616,3.9627,3.9519,3.9059,3.874,3.8487,3.7501,3.673,3.6654,3.6079,3.5656,3.5599,3.5043,3.4517,3.3823,3.312,3.2449,3.1824,3.1781,3.1838,3.1912,3.2002,3.209,3.2073,3.1952,3.1603,3.0925,3.0419,3.0536,3.1108,3.1281,3.1663,3.2358,3.2587,3.2568,3.262,3.2718,3.2854,3.2882,3.2948,3.3026,3.3055,3.3073,3.307,3.3101,3.3119,3.3117,3.3147,3.3226,3.3307,3.3292,3.3211,3.3165,3.3117,3.315,3.3165,3.315,3.3117,3.3135,3.3117,3.3101,3.3052,3.2793,3.2187,3.1336,3.0651,2.9792,2.8973,2.851,2.8158,2.7856,2.778,2.7716,2.7716,2.7716,2.7716,2.7716,2.7716,2.773,2.7777,2.7896,2.7996,2.8109,2.8205,2.8331,2.8411,2.8445,2.851,2.8574,2.86,2.86,2.8612,4.0493,3.998,3.9266,3.8717,3.8275,3.7836,3.7682,3.777,3.8201,3.8444,3.8539,3.8777,3.8996,3.9175,3.9299,3.9415,3.9494,3.9599,3.9642,3.9625,3.9599,3.9616,3.9668,3.9798,3.9849,3.9808,3.9682,3.9437,3.8956,3.8466,3.7794,3.691,3.6673,3.631,3.5922,3.5814,3.5377,3.4682,3.4068,3.3425,3.2756,3.2332,3.209,3.2109,3.2232,3.2336,3.2387,3.2456,3.2351,3.2021,3.188,3.1893,3.2152,3.2186,3.2374,3.2699,3.2818,3.2866,3.2945,3.2977,3.3042,3.3039,3.307,3.307,3.3101,3.3119,3.315,3.3196,3.3244,3.3259,3.3301,3.3375,3.3448,3.3491,3.339,3.3301,3.3319,3.3316,3.3319,3.3334,3.3301,3.3289,3.3259,3.3229,3.3198,3.2978,3.2447,3.1739,3.1175,3.035,2.9443,2.8926,2.8534,2.8094,2.7827,2.7748,2.7716,2.7716,2.7716,2.7716,2.7748,2.778,2.7868,2.7986,2.8042,2.8122,2.8209,2.8291,2.834,2.8419,2.8466,2.8518,2.8587,2.86,2.8637,4.1417,4.1022,4.0577,4.0144,3.971,3.8985,3.8682,3.876,3.8809,3.8931,3.904,3.9185,3.9362,3.9468,3.9537,3.9616,3.9703,3.9755,3.9798,3.9798,3.9833,3.9833,3.9833,3.9926,3.9986,3.9986,4.0045,3.9884,3.9519,3.9255,3.8496,3.7683,3.7217,3.6754,3.6182,3.6262,3.598,3.5313,3.4955,3.4533,3.3821,3.3475,3.3143,3.2967,3.2914,3.2983,3.3067,3.2882,3.269,3.254,3.2557,3.2657,3.2721,3.2771,3.2818,3.2961,3.2995,3.3024,3.307,3.3119,3.3132,3.3211,3.3226,3.3271,3.3316,3.3331,3.336,3.3404,3.3422,3.3437,3.3481,3.3506,3.3563,3.3577,3.352,3.3477,3.3495,3.3481,3.3495,3.3481,3.3448,3.3437,3.3364,3.3349,3.3289,3.3142,3.2877,3.2295,3.1736,3.0805,3.0,2.9499,2.8962,2.8502,2.8059,2.7877,2.7763,2.7763,2.7777,2.7777,2.7777,2.7824,2.7914,2.8,2.8056,2.8126,2.8196,2.825,2.8318,2.838,2.8427,2.8492,2.8549,2.8587,2.8607,4.2206,4.2173,4.1826,4.1687,4.1441,4.0433,3.9972,3.9982,3.9654,3.9561,3.9634,3.9675,3.9651,3.9729,3.972,3.9729,3.9755,3.9884,3.9926,3.9935,4.0011,4.0011,4.0003,4.0037,4.0087,4.0113,4.0113,4.0196,4.0092,3.9657,3.9153,3.8551,3.7902,3.7193,3.6772,3.6678,3.6307,3.5933,3.5757,3.5485,3.4994,3.473,3.4376,3.4055,3.3983,3.4017,3.3958,3.3682,3.3307,3.2972,3.2878,3.2852,3.2932,3.2979,3.3057,3.3117,3.3147,3.318,3.3162,3.3208,3.3223,3.336,3.3408,3.3466,3.3534,3.3549,3.3549,3.3563,3.3591,3.3591,3.3605,3.3605,3.3633,3.3647,3.3633,3.3633,3.3619,3.3619,3.3605,3.3605,3.3553,3.3538,3.3509,3.3466,3.3411,3.3334,3.309,3.2817,3.231,3.161,3.0788,3.0089,2.9532,2.8944,2.8481,2.8023,2.7906,2.7806,2.7868,2.7885,2.7853,2.7882,2.7943,2.8014,2.8099,2.814,2.8182,2.8237,2.8291,2.8327,2.8375,2.844,2.8523,2.8549,2.8569,4.2774,4.2863,4.2357,4.2209,4.2162,4.1574,4.1294,4.1272,4.0704,4.0511,4.0404,3.9988,3.9806,3.9883,3.9892,3.991,3.9986,4.002,4.0062,4.0062,4.0087,4.0163,4.018,4.0163,4.0163,4.0238,4.0238,4.0387,4.0466,4.0408,4.0139,3.9666,3.8947,3.8281,3.7775,3.7363,3.711,3.6866,3.6538,3.6257,3.6025,3.5596,3.529,3.5074,3.5052,3.512,3.5153,3.5161,3.5105,3.4751,3.3876,3.3268,3.3265,3.3327,3.3385,3.3406,3.3429,3.347,3.3477,3.3459,3.3488,3.3549,3.3549,3.3563,3.3591,3.3619,3.3619,3.3605,3.3605,3.3661,3.3684,3.3689,3.3712,3.3739,3.3753,3.3753,3.3739,3.3657,3.3619,3.3605,3.3591,3.3577,3.3577,3.3563,3.3524,3.3466,3.3375,3.3229,3.2796,3.2277,3.161,3.0838,3.0246,2.9674,2.9107,2.8555,2.8123,2.7949,2.7943,2.7971,2.7957,2.7971,2.8028,2.8085,2.8144,2.8186,2.8196,2.8196,2.825,2.8273,2.8327,2.8406,2.8458,2.8479,2.8569,4.3355,4.3396,4.324,4.3161,4.3132,4.2584,4.2351,4.2272,4.1674,4.1463,4.1348,4.0725,4.0432,4.0475,4.0155,4.0037,4.0113,4.0146,4.0188,4.023,4.0263,4.0362,4.0453,4.0412,4.0412,4.0478,4.0478,4.0631,4.0871,4.0919,4.0723,4.0455,3.9968,3.9532,3.8958,3.839,3.8146,3.7988,3.7506,3.7198,3.7108,3.6838,3.6334,3.6026,3.584,3.5796,3.6206,3.5926,3.6064,3.5973,3.5211,3.4477,3.4434,3.4477,3.441,3.4109,3.4084,3.3891,3.3737,3.3605,3.3619,3.3698,3.3698,3.3721,3.3748,3.3775,3.3775,3.3775,3.3788,3.3802,3.3847,3.386,3.3855,3.3868,3.3881,3.3895,3.3868,3.3762,3.3698,3.3684,3.3671,3.3643,3.3629,3.3643,3.3605,3.3553,3.3481,3.3368,3.3298,3.2793,3.2295,3.1628,3.1032,3.0425,2.982,2.9178,2.8446,2.818,2.7996,2.8042,2.8025,2.8071,2.8126,2.8158,2.8172,2.8186,2.8196,2.8196,2.8209,2.8219,2.8273,2.8353,2.8401,2.8453,2.8556,4.386,4.3889,4.4068,4.4155,4.4083,4.3513,4.33,4.3283,4.2621,4.2355,4.2293,4.1694,4.1347,4.1221,4.0612,4.0265,4.0239,4.0517,4.066,4.0404,4.051,4.0655,4.0752,4.0776,4.0847,4.0847,4.0799,4.0971,4.1232,4.1311,4.1293,4.1073,4.0887,4.06,4.0155,3.9606,3.9266,3.9175,3.8648,3.8317,3.8227,3.8048,3.7544,3.7107,3.6687,3.6697,3.7069,3.6911,3.679,3.7335,3.6841,3.6534,3.6349,3.6024,3.5831,3.5078,3.5074,3.4755,3.4224,3.3973,3.3959,3.392,3.3829,3.3868,3.3947,3.3959,3.3959,3.3972,3.3959,3.3959,3.3998,3.3972,3.3985,3.3985,3.3998,3.3998,3.3985,3.3895,3.386,3.3834,3.3802,3.3775,3.3766,3.3739,3.3671,3.3633,3.3563,3.3491,3.3419,3.3276,3.2793,3.2358,3.176,3.0972,3.0329,2.9653,2.8937,2.8653,2.8361,2.8201,2.818,2.814,2.8154,2.8172,2.8172,2.82,2.8196,2.8196,2.8196,2.8191,2.8232,2.8286,2.8367,2.8427,2.8543,4.4109,4.4224,4.4253,4.4355,4.4497,4.4361,4.4277,4.422,4.3483,4.3179,4.3088,4.2472,4.2144,4.1957,4.1356,4.0807,4.0738,4.1108,4.1197,4.0827,4.0827,4.0965,4.1134,4.1157,4.1323,4.1503,4.1413,4.1436,4.1701,4.1792,4.1919,4.2051,4.1665,4.1333,4.1232,4.0781,4.0399,4.0273,3.9722,3.9372,3.9226,3.8736,3.8302,3.8027,3.7751,3.7874,3.8086,3.8217,3.8331,3.8438,3.8427,3.8361,3.7996,3.7084,3.6444,3.6172,3.6127,3.5809,3.5128,3.4947,3.461,3.4181,3.3972,3.3972,3.4011,3.4023,3.4049,3.4018,3.4036,3.4011,3.4011,3.4049,3.4011,3.4011,3.4036,3.4036,3.4023,3.4011,3.3985,3.3998,3.3972,3.3902,3.3868,3.386,3.382,3.3766,3.3698,3.3629,3.3559,3.3477,3.327,3.2852,3.2418,3.1574,3.0754,3.0055,2.9394,2.9266,2.8959,2.853,2.8459,2.8235,2.82,2.8227,2.8213,2.82,2.8196,2.8196,2.8196,2.8196,2.8223,2.8264,2.834,2.8445,2.8543,4.4384,4.4457,4.4457,4.4514,4.457,4.4598,4.4598,4.4547,4.4181,4.4012,4.3819,4.3349,4.303,4.2843,4.2345,4.1887,4.1876,4.1881,4.1899,4.1583,4.1401,4.1363,4.1547,4.1569,4.1852,4.2103,4.2044,4.2002,4.2249,4.2269,4.2472,4.2674,4.2427,4.2358,4.2287,4.1812,4.1519,4.1316,4.0783,4.0376,4.0268,3.9538,3.901,3.8572,3.8564,3.8578,3.8621,3.8732,3.8807,3.8866,3.895,3.9021,3.879,3.8396,3.765,3.7225,3.71,3.6763,3.6001,3.5608,3.5129,3.4834,3.4451,3.4191,3.4197,3.4209,3.4197,3.4179,3.4209,3.4209,3.4221,3.4197,3.4209,3.4209,3.4197,3.4179,3.4179,3.4197,3.4185,3.4161,3.4074,3.4011,3.3972,3.3947,3.3934,3.3895,3.3829,3.3762,3.3694,3.3615,3.3538,3.3277,3.2878,3.2324,3.1549,3.0916,3.0266,3.0034,2.9693,2.9263,2.903,2.8976,2.8604,2.8354,2.8313,2.8532,2.8196,2.8196,2.8196,2.8209,2.825,2.8304,2.8367,2.8458,2.8665,4.4598,4.4598,4.4598,4.4598,4.4615,4.4643,4.4643,4.4643,4.4682,4.4676,4.4625,4.4225,4.4,4.3917,4.3631,4.334,4.3216,4.296,4.2899,4.2427,4.2228,4.2078,4.2016,4.2103,4.2269,4.2609,4.2649,4.2688,4.2668,4.2688,4.2861,4.3031,4.316,4.3196,4.3049,4.2663,4.2497,4.2238,4.1741,4.1334,4.0983,4.0439,3.969,3.8918,3.8924,3.9001,3.8855,3.8892,3.8964,3.9036,3.912,3.917,3.9261,3.9346,3.8963,3.822,3.8049,3.7586,3.6928,3.6411,3.6012,3.5454,3.4933,3.4619,3.4363,3.4351,3.4374,3.4386,3.4374,3.4381,3.4351,3.4374,3.4374,3.4374,3.4374,3.4386,3.4363,3.4351,3.434,3.4281,3.4161,3.4136,3.4136,3.4099,3.4099,3.4036,3.3967,3.3908,3.3842,3.3793,3.3684,3.3549,3.327,3.2965,3.2441,3.1996,3.1427,3.1052,3.0652,3.0201,3.0003,2.9891,2.9499,2.9197,2.9229,2.9332,2.8788,2.8254,2.8264,2.8304,2.8318,2.8371,2.8445,2.8776,2.9114,4.4598,4.4598,4.4598,4.4598,4.4626,4.4737,4.4776,4.4803,4.4896,4.4951,4.4951,4.501,4.4961,4.4999,4.5278,4.4649,4.4202,4.4355,4.4216,4.343,4.3188,4.2917,4.2618,4.253,4.2688,4.2955,4.3012,4.303,4.303,4.3049,4.3141,4.3323,4.3359,4.3394,4.3391,4.3225,4.3352,4.3185,4.2543,4.1895,4.1337,4.1098,4.0614,4.0108,3.9896,3.9741,3.9334,3.9291,3.9231,3.9295,3.9339,3.936,3.9373,3.9373,3.9386,3.9234,3.9109,3.8829,3.8033,3.7585,3.7019,3.6192,3.56,3.5152,3.467,3.4427,3.4427,3.4386,3.4397,3.4409,3.442,3.4427,3.4397,3.442,3.4443,3.445,3.4439,3.4506,3.4495,3.4443,3.4351,3.434,3.434,3.4293,3.4245,3.4185,3.4105,3.4061,3.4004,3.3921,3.3815,3.3698,3.3601,3.3334,3.315,3.2726,3.2476,3.2081,3.1737,3.1261,3.1003,3.0871,3.0753,3.0522,3.0428,3.0008,2.9413,2.8927,2.8537,2.8645,2.9026,2.8876,2.858,2.9036,2.9742,4.472,4.4615,4.4682,4.4709,4.4737,4.494,4.5032,4.5059,4.515,4.523,4.5257,4.545,4.5606,4.5811,4.6112,4.5925,4.5446,4.5658,4.5507,4.4639,4.4202,4.3754,4.3493,4.3153,4.303,4.3178,4.3269,4.3305,4.3305,4.3305,4.3359,4.3429,4.3464,4.3445,4.3496,4.3479,4.3513,4.3437,4.3212,4.2746,4.2205,4.1928,4.1612,4.0902,4.0922,4.0722,4.0447,4.0063,4.0024,3.9992,3.9808,3.9489,3.9539,3.9564,3.9583,3.9564,3.9564,3.9302,3.887,3.8434,3.7773,3.7105,3.6349,3.5405,3.4742,3.4573,3.4592,3.4517,3.4517,3.4555,3.4603,3.455,3.458,3.4617,3.4824,3.4714,3.4714,3.4642,3.4645,3.4583,3.455,3.4528,3.4506,3.4431,3.4374,3.4316,3.4269,3.4233,3.4161,3.4074,3.3959,3.3829,3.3762,3.3684,3.3588,3.3364,3.3323,3.3072,3.3072,3.2592,3.2099,3.1866,3.1793,3.1464,3.1099,3.0622,3.0072,2.9896,2.9799,2.984,2.9913,2.9787,2.9713,3.0159,3.0789,4.4968,4.4803,4.4858,4.4886,4.4923,4.5203,4.5363,4.5389,4.5529,4.5624,4.5675,4.5887,4.6161,4.6423,4.6643,4.6671,4.6735,4.6589,4.6398,4.5926,4.5325,4.4701,4.4251,4.3742,4.347,4.3429,4.3411,4.3446,4.3445,4.3463,4.3445,4.3496,4.3497,4.3496,4.3513,4.3549,4.3583,4.3651,4.3699,4.3398,4.3005,4.2929,4.2479,4.206,4.1839,4.1853,4.1646,4.1259,4.1025,4.0992,4.0378,4.0057,4.008,3.9854,3.9703,3.9665,3.9672,3.9606,3.9314,3.8958,3.8558,3.7932,3.7204,3.6122,3.5595,3.5276,3.5305,3.5493,3.5475,3.5418,3.5305,3.5413,3.5545,3.5622,3.5558,3.5344,3.5176,3.522,3.5011,3.4697,3.4676,3.4676,3.4634,3.4561,3.4506,3.4431,3.4416,3.4404,3.4316,3.4233,3.4148,3.4005,3.3967,3.3959,3.3915,3.3871,3.3895,3.3895,3.3913,3.3747,3.3147,3.2926,3.287,3.2447,3.198,3.2066,3.2029,3.1558,3.1078,3.0826,3.0682,3.0953,3.1138,3.1513,3.1955,4.5274,4.5319,4.523,4.5177,4.5203,4.5598,4.576,4.5811,4.6038,4.6161,4.6211,4.6405,4.6684,4.6939,4.7102,4.7236,4.7258,4.7551,4.7239,4.6864,4.6509,4.5768,4.5095,4.4529,4.4107,4.3646,4.3534,4.3497,4.3513,4.3583,4.3549,4.3515,4.3549,4.3548,4.3582,4.3634,4.3667,4.3753,4.3818,4.3867,4.373,4.3669,4.3417,4.2966,4.2764,4.2571,4.2034,4.198,4.1989,4.2077,4.1335,4.0781,4.0677,4.028,4.0034,3.9796,3.9777,3.9743,3.9595,3.9503,3.9157,3.8482,3.7728,3.7068,3.6672,3.692,3.7044,3.6796,3.6578,3.674,3.6882,3.7082,3.6723,3.6621,3.6424,3.6293,3.6123,3.5981,3.5696,3.5044,3.492,3.5119,3.5214,3.5218,3.4739,3.4647,3.4539,3.4547,3.4461,3.4374,3.4328,3.4257,3.4203,3.4179,3.4185,3.4173,3.4173,3.4173,3.4173,3.4173,3.3987,3.3906,3.3702,3.3684,3.3361,3.3684,3.3752,3.2908,3.2164,3.1612,3.152,3.2011,3.2311,3.2573,3.3162,4.5743,4.5895,4.6013,4.5887,4.5624,4.607,4.6284,4.6332,4.6566,4.676,4.6875,4.6989,4.7165,4.7385,4.7539,4.7606,4.7666,4.7893,4.7793,4.756,4.7125,4.6652,4.5938,4.5187,4.449,4.4176,4.3861,4.3548,4.3565,4.3686,4.3703,4.3686,4.3686,4.3703,4.3736,4.3751,4.3816,4.3883,4.3963,4.4058,4.4073,4.4135,4.4043,4.3885,4.3867,4.3826,4.3592,4.3183,4.3089,4.2879,4.2321,4.1844,4.1362,4.0919,4.0463,4.0035,3.9968,3.993,3.9908,3.9773,3.9323,3.8694,3.8176,3.7867,3.7597,3.7368,3.7311,3.7263,3.7416,3.754,3.733,3.7333,3.7259,3.7335,3.7356,3.7282,3.7074,3.6923,3.6658,3.6109,3.5939,3.5976,3.5995,3.6014,3.5394,3.485,3.4743,3.4712,3.4819,3.4843,3.4914,3.4929,3.4896,3.4779,3.4798,3.4648,3.4517,3.4555,3.4611,3.4581,3.4637,3.4431,3.43,3.4431,3.445,3.4338,3.411,3.3765,3.3331,3.2868,3.2956,3.3302,3.3531,3.362,3.4102,4.6284,4.6453,4.669,4.6501,4.6137,4.6596,4.6824,4.687,4.7075,4.7298,4.7454,4.7454,4.7578,4.7765,4.787,4.7913,4.7972,4.8111,4.8207,4.8008,4.7717,4.7351,4.6801,4.6177,4.5533,4.5037,4.4427,4.4073,4.4091,4.3917,4.3853,4.3867,4.3902,4.3902,4.3869,4.3931,4.3995,4.4058,4.4135,4.4226,4.424,4.43,4.4387,4.4383,4.4416,4.4493,4.441,4.4165,4.4049,4.3824,4.3388,4.271,4.218,4.1668,4.1116,4.063,4.0259,4.0125,4.0065,3.9897,3.9569,3.9167,3.9072,3.8693,3.8304,3.8115,3.8412,3.8325,3.825,3.8096,3.8077,3.8395,3.8491,3.8635,3.8626,3.8503,3.8077,3.7811,3.7565,3.7223,3.7052,3.6786,3.6796,3.6805,3.6604,3.6099,3.6039,3.601,3.597,3.5969,3.5883,3.5843,3.5784,3.5652,3.5501,3.5671,3.5821,3.5765,3.5698,3.5321,3.5216,3.499,3.4745,3.467,3.467,3.467,3.4517,3.4271,3.4266,3.4232,3.4225,3.4098,3.4199,3.4279,3.4708,4.6713,4.7002,4.7209,4.7012,4.6684,4.708,4.7298,4.7302,4.7533,4.7684,4.779,4.779,4.7852,4.7992,4.811,4.813,4.8169,4.8247,4.8305,4.8233,4.8141,4.7774,4.7408,4.6967,4.6469,4.599,4.5378,4.493,4.482,4.4402,4.4149,4.4042,4.4104,4.4089,4.3947,4.4089,4.4229,4.4285,4.43,4.4358,4.4383,4.4426,4.451,4.4605,4.4667,4.4757,4.4807,4.4834,4.4753,4.4695,4.4252,4.3759,4.3474,4.2349,4.1672,4.1291,4.0585,4.0251,4.0117,4.0087,3.9982,3.9846,3.9701,3.9665,3.9848,3.9877,3.9666,3.9351,3.958,3.9742,3.9896,3.9877,3.9715,3.9638,3.9562,3.9429,3.8964,3.8755,3.8517,3.8328,3.7919,3.7604,3.7604,3.7614,3.7681,3.7518,3.7393,3.7259,3.7069,3.6899,3.6718,3.6671,3.6604,3.6614,3.6576,3.6975,3.7126,3.7031,3.6766,3.6339,3.5893,3.558,3.5315,3.5031,3.4879,3.485,3.487,3.4851,3.4771,3.4658,3.4647,3.4603,3.4733,3.4963,3.5381,4.6725,4.7486,4.7582,4.7542,4.7417,4.7582,4.7645,4.7666,4.7829,4.797,4.8032,4.8052,4.8111,4.819,4.8229,4.8267,4.8286,4.8286,4.8325,4.842,4.8438,4.8347,4.8016,4.761,4.7277,4.6852,4.6239,4.5564,4.5094,4.4841,4.4544,4.4378,4.43,4.427,4.4226,4.4285,4.434,4.4368,4.444,4.451,4.4519,4.46,4.4693,4.4796,4.4858,4.4974,4.5091,4.5148,4.5213,4.5267,4.481,4.4601,4.4238,4.3177,4.268,4.1982,4.1179,4.0873,4.0529,4.0281,4.0244,4.0176,4.0127,4.0127,4.0106,4.0106,4.0106,4.0117,4.0118,4.0118,4.0049,4.003,3.9944,3.9963,3.9925,3.9887,3.9669,3.9669,3.9546,3.9366,3.9061,3.8706,3.857,3.8725,3.8803,3.8584,3.8413,3.7947,3.7662,3.7538,3.7386,3.7394,3.7375,3.7479,3.766,3.7994,3.8032,3.7861,3.7622,3.7297,3.6822,3.6395,3.6024,3.5806,3.5389,3.502,3.5038,3.5028,3.5011,3.4974,3.5031,3.4955,3.4917,3.5344,3.5979,4.6858,4.7788,4.7911,4.7933,4.7933,4.7951,4.7972,4.7994,4.8053,4.8151,4.8208,4.8228,4.8247,4.8305,4.8324,4.8344,4.8363,4.8382,4.842,4.8513,4.855,4.8514,4.8365,4.8161,4.8048,4.7696,4.7171,4.6475,4.5823,4.5569,4.5077,4.4627,4.451,4.4532,4.4505,4.4537,4.4519,4.456,4.4659,4.4738,4.4757,4.4833,4.4919,4.5003,4.5103,4.5181,4.5246,4.5309,4.536,4.54,4.5333,4.516,4.4719,4.4192,4.3694,4.285,4.1872,4.1346,4.0628,4.0398,4.0327,4.0234,4.0225,4.0215,4.0196,4.0225,4.0215,4.0215,4.0186,4.0196,4.0206,4.0186,4.0177,4.0196,4.0186,4.0148,4.0158,4.0129,4.0101,3.9966,3.9906,3.9644,3.9497,3.9834,3.998,3.9686,3.9372,3.8858,3.8421,3.8401,3.8381,3.8418,3.8531,3.8731,3.8835,3.8941,3.8903,3.8672,3.845,3.821,3.7906,3.749,3.7022,3.6544,3.6137,3.5719,3.5291,3.5168,3.5304,3.5418,3.5533,3.5384,3.5139,3.5747,3.6592,4.7108,4.7921,4.8149,4.8206,4.8187,4.8169,4.8228,4.8287,4.8287,4.8287,4.8305,4.8305,4.8324,4.8306,4.8324,4.8382,4.8457,4.8476,4.855,4.8587,4.8642,4.8642,4.8696,4.8676,4.8634,4.8553,4.8137,4.7394,4.6731,4.5756,4.5101,4.4855,4.4776,4.4796,4.4808,4.4821,4.4783,4.4821,4.4877,4.495,4.4979,4.5068,4.5136,4.5203,4.5288,4.535,4.54,4.541,4.5419,4.5438,4.5419,4.539,4.5141,4.4662,4.4393,4.377,4.2579,4.1466,4.0803,4.0669,4.043,4.0386,4.0396,4.0396,4.0381,4.0354,4.0345,4.0345,4.0345,4.0363,4.0381,4.0372,4.0363,4.0363,4.0372,4.0353,4.0353,4.0362,4.0342,4.0321,4.0311,4.0202,4.0161,4.043,4.0447,4.0282,3.9997,3.9959,3.9618,3.9702,3.968,3.9736,3.9887,4.0117,4.0125,3.9797,3.9775,3.9541,3.9375,3.9144,3.886,3.8506,3.7964,3.7439,3.6918,3.65,3.6249,3.5943,3.5718,3.589,3.6318,3.6034,3.5851,3.6557,3.7337,4.6558,4.7403,4.801,4.8286,4.8267,4.8286,4.8267,4.8324,4.8324,4.8324,4.8324,4.8324,4.8382,4.8438,4.8456,4.8495,4.8532,4.8587,4.866,4.8715,4.8769,4.8821,4.891,4.8998,4.9081,4.9069,4.8776,4.8069,4.6905,4.5805,4.5122,4.4933,4.4998,4.5038,4.5095,4.517,4.5114,4.5061,4.5114,4.5148,4.5213,4.5267,4.5309,4.536,4.5438,4.5486,4.5504,4.553,4.5556,4.559,4.5607,4.5588,4.5558,4.5338,4.5115,4.4286,4.2938,4.1686,4.1409,4.0908,4.0592,4.0635,4.0604,4.0468,4.0438,4.0424,4.0432,4.0422,4.043,4.0438,4.0438,4.0438,4.0438,4.0438,4.0438,4.0438,4.0438,4.0438,4.0447,4.0471,4.0479,4.0495,4.0511,4.0519,4.0523,4.0527,4.0534,4.0519,4.0504,4.0476,4.0471,4.0468,4.0484,4.0492,4.0512,4.0284,4.0388,4.0407,4.0146,3.9942,3.98,3.94,3.8877,3.8278,3.7675,3.7448,3.7367,3.701,3.6604,3.7018,3.7378,3.6929,3.673,3.745,3.8033,4.5847,4.6672,4.7498,4.8031,4.8344,4.8382,4.8401,4.842,4.8401,4.8382,4.8382,4.842,4.8476,4.8532,4.8532,4.8587,4.8678,4.8678,4.875,4.8911,4.8928,4.9013,4.9133,4.92,4.9279,4.9296,4.8957,4.8204,4.7027,4.5836,4.5014,4.5159,4.5203,4.5237,4.53,4.537,4.538,4.5341,4.533,4.536,4.539,4.5448,4.5477,4.5495,4.5549,4.5593,4.5618,4.564,4.5665,4.568,4.5688,4.5688,4.568,4.5642,4.5295,4.4496,4.3763,4.2857,4.2452,4.2027,4.1533,4.1212,4.1096,4.0853,4.0616,4.0508,4.05,4.0508,4.0492,4.0484,4.0484,4.0457,4.0484,4.0484,4.0484,4.0503,4.0503,4.0484,4.0527,4.0543,4.0565,4.0569,4.0576,4.0591,4.0591,4.0579,4.0559,4.0559,4.0552,4.0549,4.0554,4.0542,4.0557,4.0564,4.0588,4.0602,4.0607,4.0593,4.0482,4.0364,4.0472,4.0219,3.9596,3.8977,3.8385,3.8197,3.8017,3.7882,3.7679,3.8055,3.8343,3.817,3.8009,3.8308,3.8823,4.5149,4.5865,4.6691,4.7536,4.8329,4.8347,4.8384,4.8532,4.8495,4.8531,4.8495,4.8569,4.8605,4.8624,4.8642,4.8732,4.8822,4.8857,4.8943,4.9118,4.91,4.9181,4.9292,4.9355,4.9333,4.9213,4.882,4.8137,4.7144,4.5997,4.5235,4.5408,4.5409,4.5429,4.5476,4.5513,4.554,4.5547,4.5521,4.5531,4.554,4.5573,4.5605,4.5605,4.5657,4.5708,4.5708,4.5715,4.5715,4.5696,4.5696,4.5704,4.5704,4.5692,4.5241,4.4855,4.438,4.3924,4.3383,4.2958,4.2584,4.223,4.1991,4.1721,4.1475,4.0726,4.0576,4.0923,4.1012,4.1262,4.1358,4.1428,4.1474,4.1455,4.1455,4.1255,4.1031,4.0858,4.0549,4.0564,4.0571,4.0593,4.0646,4.0653,4.066,4.0621,4.0635,4.0635,4.0628,4.0633,4.0607,4.0607,4.0633,4.064,4.0661,4.0668,4.0635,4.0628,4.0621,4.0581,4.054,4.0422,4.0296,3.9727,3.9196,3.8762,3.8531,3.8608,3.8735,3.8754,3.9031,3.9288,3.9385,3.9342,3.9477,4.4819,4.5076,4.5956,4.6855,4.7628,4.7665,4.7664,4.7755,4.8438,4.8604,4.8569,4.8587,4.8678,4.875,4.882,4.8909,4.8996,4.9064,4.9146,4.9228,4.9244,4.9355,4.9457,4.9472,4.9315,4.895,4.8516,4.7895,4.6789,4.5874,4.539,4.5486,4.5514,4.5549,4.5582,4.5635,4.5668,4.568,4.57,4.5668,4.564,4.5648,4.5673,4.568,4.5731,4.5773,4.5781,4.5783,4.5791,4.5778,4.5778,4.5778,4.5778,4.5778,4.5682,4.5431,4.4952,4.4566,4.4257,4.3831,4.3361,4.3155,4.2949,4.2853,4.2337,4.1259,4.0891,4.1354,4.1721,4.203,4.2242,4.2358,4.2435,4.2408,4.2408,4.203,4.1644,4.1219,4.0768,4.0653,4.0653,4.0666,4.0719,4.0694,4.0707,4.072,4.0752,4.0752,4.0746,4.0739,4.0694,4.0694,4.0687,4.0694,4.0713,4.072,4.0707,4.07,4.0694,4.0647,4.06,4.0499,4.0377,4.0389,4.0073,3.9611,3.9477,3.9873,3.9931,3.9669,3.965,3.9861,4.0015,4.0019,4.0115,4.4229,4.4338,4.5235,4.6114,4.6811,4.6921,4.6956,4.7134,4.7612,4.7813,4.7961,4.8448,4.8874,4.896,4.9046,4.9113,4.9197,4.926,4.934,4.9402,4.9495,4.9585,4.9627,4.9475,4.9148,4.8751,4.7964,4.7174,4.6273,4.5869,4.5531,4.5584,4.5646,4.5651,4.5673,4.5723,4.5739,4.5742,4.5803,4.5776,4.5734,4.5734,4.5742,4.5749,4.5776,4.581,4.5817,4.5819,4.58,4.5807,4.58,4.58,4.58,4.58,4.58,4.5684,4.5413,4.5142,4.4949,4.4639,4.4136,4.4001,4.3885,4.3775,4.3098,4.2163,4.2137,4.2523,4.2523,4.2793,4.2839,4.2929,4.2929,4.2929,4.2929,4.2716,4.2542,4.2349,4.1827,4.1383,4.1286,4.1119,4.1055,4.0746,4.0759,4.0752,4.079,4.0797,4.0797,4.0797,4.0759,4.0752,4.0739,4.0739,4.0778,4.0784,4.0784,4.0771,4.0739,4.0673,4.0605,4.0534,4.0477,4.0458,4.0458,4.0381,4.04,4.0496,4.0496,4.0189,4.0246,4.04,4.0496,4.0496,4.0458,4.3542,4.376,4.4526,4.5386,4.6118,4.619,4.6292,4.6478,4.6603,4.666,4.6865,4.8154,4.8842,4.9062,4.9142,4.9265,4.9368,4.9464,4.9559,4.9663,4.9736,4.983,4.9629,4.9271,4.8817,4.8075,4.7209,4.6513,4.5748,4.561,4.5643,4.57,4.5723,4.575,4.5781,4.5795,4.5803,4.5798,4.5812,4.58,4.58,4.5807,4.58,4.58,4.5807,4.5807,4.5807,4.5807,4.5807,4.5807,4.5807,4.5807,4.5807,4.5807,4.5807,4.5749,4.5729,4.5645,4.5645,4.5548,4.5181,4.4949,4.4806,4.4439,4.3788,4.3608,4.3588,4.355,4.3569,4.355,4.3608,4.3685,4.3704,4.3627,4.3608,4.353,4.3453,4.3317,4.2737,4.2138,4.1867,4.1654,4.1332,4.1003,4.0797,4.0797,4.0797,4.0797,4.0797,4.0797,4.079,4.0784,4.0778,4.0784,4.0797,4.0797,4.0797,4.0752,4.0726,4.066,4.061,4.0546,4.0516,4.0496,4.0496,4.0496,4.0496,4.0496,4.0496,4.0496,4.0496,4.0496,4.0516,4.0523,4.0523,4.3139,4.3867,4.405,4.4652,4.5419,4.5539,4.5602,4.5764,4.6411,4.6461,4.6265,4.6934,4.7765,4.8377,4.8469,4.8769,4.9422,4.9627,4.9816,4.9925,4.9827,4.9993,4.9751,4.8953,4.8233,4.7319,4.6433,4.5907,4.5668,4.5684,4.5715,4.5773,4.5773,4.5795,4.5805,4.5812,4.5812,4.5807,4.5807,4.5807,4.5807,4.5807,4.5807,4.5807,4.5807,4.5807,4.5807,4.5807,4.5807,4.5807,4.5807,4.5807,4.5807,4.5807,4.5807,4.5807,4.5807,4.5807,4.5807,4.5807,4.5471,4.549,4.5394,4.5374,4.5007,4.5026,4.4968,4.4891,4.4871,4.4755,4.4794,4.5007,4.5045,4.4871,4.4775,4.4523,4.4342,4.3878,4.3337,4.2841,4.2434,4.2125,4.1777,4.1332,4.0797,4.0797,4.0797,4.0797,4.0797,4.0797,4.0797,4.0797,4.0797,4.0797,4.0797,4.0797,4.079,4.0746,4.0694,4.0646,4.0583,4.0546,4.0523,4.0496,4.0496,4.0496,4.0496,4.0496,4.0496,4.0496,4.0496,4.0496,4.0523,4.0539,4.0554]}]]